[[{"header":{"parameterUnit":"m.s-1","parameterCategory":1,"la1":31.0,"la2":29.5877,"lo1":-88.7671,"lo2":-86.6584,"dy":0.0162,"dx":0.0185,"nx":115,"ny":88,"refTime":"2023-11-01T12:00:00:Z","depth":0,"parameterNumber":2,"parameterNumberName":"U-component_of_WINDS"},"data":[0.0,0.0,0.0,0.0,0.0,0.0,0.0,0.0,0.0,0.0,0.0,0.0,0.0,0.0,0.0,0.0,0.0,0.0,0.0,0.0,0.0,0.0,0.0,0.0,0.0,0.0,0.0,0.0,0.0,0.0,0.0,0.0,0.0,0.0,0.0,0.0,0.0,0.0,0.0,0.0,0.0,0.0,0.0,0.0,0.0,0.0,0.0,0.0,0.0,0.0,0.0,0.0,0.0,0.0,0.0,0.0,0.0,0.0,0.0,0.0,0.0,0.0,0.0,0.0,0.0,0.0,0.0,0.0,0.0,0.0,0.0,0.0,0.0,0.0,0.0,0.0,0.0,0.0,0.0,0.0,0.0,0.0,0.0,0.0,0.0,0.0,0.0,0.0,0.0,0.0,0.0,0.0,0.0,0.0,0.0,0.0,0.0,0.0,0.0,0.0,0.0,0.0,0.0,0.0,0.0,0.0,0.0,0.0,0.0,0.0,0.0,0.0,0.0,0.0,0.0,0.0,0.0,0.0,0.0,0.0,0.0,0.0,0.0,0.0,0.0,0.0,0.0,0.0,0.0,0.0,0.0,0.0,0.0,0.0,0.0,0.0,0.0,0.0,0.0,0.0,0.0,0.0,0.0,0.0,0.0,0.0,0.0,0.0,0.0,0.0,0.0,0.0,0.0,0.0,0.0,0.0,0.0,0.0,0.0,0.0,0.0,0.0,0.0,0.0,0.0,0.0,0.0,0.0,0.0,0.0,0.0,0.0,0.0,0.0,0.0,0.0,0.0,0.0,0.0,0.0,0.0,0.0,0.0,0.0,0.0,0.0,0.0,0.0,0.0,0.0,0.0,0.0,0.0,0.0,0.0,0.0,0.0,0.0,0.0,0.0,0.0,0.0,0.0,0.0,0.0,0.0,0.0,0.0,0.0,0.0,0.0,0.0,0.0,0.0,0.0,0.0,0.0,0.0,0.0,0.0,0.0,0.0,0.0,0.0,0.0,0.0,0.0,0.0,0.0,0.0,0.0,0.0,0.0,0.0,0.0,0.0,0.0,0.0,0.0,0.0,0.0,0.0,0.0,0.0,0.0,0.0,0.0,0.0,0.0,0.0,0.0,0.0,0.0,0.0,0.0,0.0,0.0,0.0,0.0,0.0,0.0,0.0,0.0,0.0,0.0,0.0,0.0,0.0,0.0,0.0,0.0,0.0,0.0,0.0,0.0,0.0,0.0,0.0,0.0,0.0,0.0,0.0,0.0,0.0,0.0,0.0,0.0,0.0,0.0,0.0,0.0,0.0,0.0,0.0,0.0,0.0,0.0,0.0,0.0,0.0,0.0,0.0,0.0,0.0,0.0,0.0,0.0,0.0,0.0,0.0,0.0,0.0,0.0,0.0,0.0,0.0,0.0,0.0,0.0,0.0,0.0,0.0,0.0,0.0,0.0,0.0,0.0,0.0,0.0,0.0,0.0,0.0,0.0,0.0,0.0,0.0,0.0,0.0,0.0,0.0,0.0,0.0,0.0,0.0,0.0,0.0,0.0,0.0,0.0,0.0,0.0,0.0,0.0,0.0,0.0,0.0,0.0,0.0,0.0,0.0,0.0,0.0,0.0,0.0,0.0,0.0,0.0,0.0,0.0,0.0,0.0,0.0,0.0,0.0,0.0,0.0,0.0,0.0,0.0,0.0,0.0,0.0,0.0,0.0,0.0,0.0,0.0,0.0,0.0,0.0,0.0,0.0,0.0,0.0,0.0,0.0,0.0,0.0,0.0,0.0,0.0,0.0,0.0,0.0,0.0,0.0,0.0,0.0,0.0,0.0,0.0,0.0,0.0,0.0,0.0,0.0,0.0,0.0,0.0,0.0,0.0,0.0,0.0,0.0,0.0,0.0,0.0,0.0,0.0,0.0,0.0,0.0,0.0,0.0,0.0,0.0,0.0,0.0,0.0,0.0,0.0,0.0,0.0,0.0,0.0,0.0,0.0,0.0,0.0,0.0,0.0,0.0,0.0,0.0,0.0,0.0,0.0,0.0,0.0,0.0,0.0,0.0,0.0,0.0,0.0,0.0,0.0,0.0,0.0,0.0,0.0,0.0,0.0,0.0,0.0,0.0,0.0,0.0,0.0,0.0,0.0,0.0,0.0,0.0,0.0,0.0,0.0,0.0,0.0,0.0,0.0,0.0,0.0,0.0,0.0,0.0,0.0,0.0,0.0,0.0,0.0,0.0,0.0,0.0,0.0,0.0,0.0,0.0,0.0,0.0,0.0,0.0,0.0,0.0,0.0,0.0,0.0,0.0,0.0,0.0,0.0,0.0,0.0,0.0,0.0,0.0,0.0,0.0,0.0,0.0,0.0,0.0,0.0,0.0,0.0,0.0,0.0,0.0,0.0,0.0,0.0,0.0,0.0,0.0,0.0,0.0,0.0,0.0,0.0,0.0,0.0,0.0,0.0,0.0,0.0,0.0,0.0,0.0,0.0,0.0,0.0,0.0,0.0,0.0,0.0,0.0,0.0,0.0,0.0,0.0,0.0,0.0,0.0,0.0,0.0,0.0,0.0,0.0,0.0,0.0,0.0,0.0,0.0,0.0,0.0,0.0,0.0,0.0,0.0,0.0,0.0,0.0,0.0,0.0,0.0,0.0,0.0,0.0,0.0,0.0,0.0,0.0,0.0,0.0,0.0,0.0,0.0,0.0,0.0,0.0,0.0,0.0,0.0,0.0,0.0,0.0,0.0,0.0,0.0,0.0,0.0,0.0,0.0,0.0,0.0,0.0,0.0,0.0,0.0,0.0,0.0,0.0,0.0,0.0,0.0,0.0,0.0,0.0,0.0,0.0,0.0,0.0,0.0,0.0,0.0,0.0,0.0,0.0,0.0,0.0,0.0,0.0,0.0,0.0,0.0,0.0,0.0,0.0,0.0,0.0,0.0,0.0,0.0,0.0,0.0,0.0,0.0,0.0,0.0,0.0,0.0,0.0,0.0,0.0,0.0,0.0,0.0,0.0,0.0,0.0,0.0,0.0,0.0,0.0,0.0,0.0,0.0,0.0,0.0,0.0,0.0,0.0,0.0,0.0,0.0,0.0,0.0,0.0,0.0,0.0,0.0,0.0,0.0,0.0,0.0,0.0,0.0,0.0,0.0,0.0,0.0,0.0,0.0,0.0,0.0,0.0,0.0,0.0,0.0,0.0,0.0,0.0,0.0,0.0,0.0,0.0,0.0,0.0,0.0,0.0,0.0,0.0,0.0,0.0,0.0,0.0,0.0,0.0,0.0,0.0,0.0,0.0,0.0,0.0,0.0,0.0,0.0,0.0,0.0,0.0,0.0,0.0,0.0,0.0,0.0,0.0,0.0,0.0,0.0,0.0,0.0,0.0,0.0,0.0,0.0,0.0,0.0,0.0,0.0,0.0,0.0,0.0,0.0,0.0,0.0,0.0,0.0,0.0,0.0,0.0,0.0,0.0,0.0,0.0,0.0,0.0,0.0,0.0,0.0,0.0,0.0,0.0,0.0,0.0,0.0,0.0,0.0,0.0,0.0,0.0,0.0,0.0,0.0,0.0,0.0,0.0,0.0,0.0,0.0,0.0,0.0,0.0,0.0,0.0,0.0,0.0,0.0,0.0,0.0,0.0,0.0,0.0,0.0,0.0,0.0,0.0,0.0,0.0,0.0,0.0,0.0,0.0,0.0,0.0,0.0,0.0,0.0,0.0,0.0,0.0,0.0,0.0,0.0,0.0,0.0,0.0,0.0,0.0,0.0,0.0,0.0,0.0,0.0,0.0,0.0,0.0,0.0,0.0,0.0,0.0,0.0,0.0,0.0,0.0,0.0,0.0,0.0,0.0,0.0,0.0,0.0,0.0,0.0,0.0,0.0,0.0,0.0,0.0,0.0,0.0,0.0,0.0,0.0,0.0,0.0,0.0,0.0,0.0,0.0,0.0,0.0,0.0,0.0,0.0,0.0,0.0,0.0,0.0,0.0,0.0,0.0,0.0,0.0,0.0,0.0,0.0,0.0,0.0,0.0,0.0,0.0,0.0,0.0,0.0,0.0,0.0,0.0,0.0,0.0,0.0,0.0,0.0,0.0,0.0,0.0,0.0,0.0,0.0,0.0,0.0,0.0,0.0,0.0,0.0,0.0,0.0,0.0,0.0,0.0,0.0,0.0,0.0,0.0,0.0,0.0,0.0,0.0,0.0,0.0,0.0,0.0,0.0,0.0,0.0,0.0,0.0,0.0,0.0,0.0,0.0,0.0,0.0,0.0,0.0,0.0,0.0,0.9614,0.0,0.0,0.0,0.0,0.0,0.0,0.0,0.0,0.0,0.0,0.0,0.0,0.0,0.0,0.0,0.0,0.0,0.0,0.0,0.0,0.0,0.0,0.0,0.0,0.0,0.0,0.0,0.0,0.0,0.0,0.0,0.0,0.0,0.0,0.0,0.0,0.0,0.0,0.0,0.0,0.0,0.0,0.0,0.0,0.0,0.0,0.0,0.0,0.0,0.0,0.0,0.0,0.0,0.0,0.0,0.0,0.0,0.0,0.0,0.0,0.0,0.0,0.0,0.0,0.0,0.0,0.0,0.0,0.0,0.0,0.0,0.0,0.0,0.0,0.0,0.0,0.0,0.0,0.0,0.0,0.0,0.0,0.0,0.0,0.0,0.0,0.0,0.0,0.0,0.0,0.0,0.0,0.0,0.0,0.0,0.0,0.0,0.0,0.0,0.0,0.0,0.0,0.0,0.0,0.0,0.0,0.0,0.0,0.0,0.0,1.1012,1.1117,1.0725,1.0312,0.9935,0.0,0.0,0.0,0.0,0.0,0.0,0.0,0.0,0.0,0.0,0.0,0.0,0.0,0.0,0.0,0.0,0.0,0.0,0.0,0.0,0.0,0.0,0.0,0.0,0.0,0.0,0.0,0.0,0.0,0.0,0.0,0.0,0.0,0.0,0.0,0.0,0.0,0.0,0.0,0.0,0.0,0.0,0.0,0.0,0.0,0.0,0.0,0.0,0.0,0.0,0.0,0.0,0.0,0.0,0.0,0.0,0.0,0.0,0.0,0.0,0.0,0.0,0.0,0.0,0.0,0.0,0.0,0.0,0.0,0.0,0.0,0.0,0.0,0.0,0.0,0.0,0.0,0.0,0.0,0.0,0.0,0.0,0.0,0.0,0.0,0.0,0.0,0.0,0.0,0.0,0.0,0.0,0.0,0.0,0.0,0.0,0.0,0.0,0.0,0.0,0.0,0.0,0.0,0.0,0.0,0.0,0.0,0.0,0.0,0.0,0.0,0.0,1.0818,1.0331,0.9973,0.0,0.0,0.0,0.0,0.0,0.0,0.0,0.0,0.0,0.0,0.0,0.0,0.0,0.0,0.0,0.0,0.0,0.0,0.0,0.0,0.0,0.0,0.0,0.0,0.0,0.0,0.0,0.0,0.0,0.0,0.0,0.0,0.0,0.0,0.0,0.0,0.0,0.0,0.0,0.0,0.0,0.0,0.0,0.0,0.0,0.0,0.0,0.0,0.0,0.0,0.0,0.0,0.0,0.0,0.0,0.0,0.0,0.0,0.0,0.0,0.0,0.0,0.0,0.0,0.0,0.0,0.0,0.0,0.0,0.0,0.0,0.0,0.0,0.0,0.0,0.0,0.0,0.0,0.0,0.0,0.0,0.0,0.0,0.0,0.0,0.0,0.0,0.0,0.0,0.0,0.0,0.0,0.0,0.0,0.0,0.0,0.0,0.0,0.0,0.0,0.0,0.0,0.0,0.0,0.0,0.0,0.0,0.0,0.0,0.0,1.1198,1.1366,1.0807,0.0,0.9397,0.0,0.0,0.0,0.0,0.0,0.0,0.0,0.0,0.0,0.0,0.0,0.0,0.0,0.0,0.0,0.0,0.0,0.0,0.0,0.0,0.0,0.0,0.0,0.0,0.0,0.0,0.0,0.0,0.0,0.0,0.0,0.0,0.0,0.0,0.0,0.0,0.0,0.0,0.0,0.0,0.0,0.0,0.0,0.0,0.0,0.0,0.0,0.0,0.0,0.0,0.0,0.0,0.0,0.0,0.0,0.0,0.0,0.0,0.0,0.0,0.0,0.0,0.0,0.0,0.0,0.0,0.0,0.0,0.0,0.0,0.0,0.0,0.0,0.0,0.0,0.0,0.0,0.0,0.0,0.0,0.0,0.0,0.0,0.0,0.0,0.0,0.0,0.0,0.0,0.0,0.0,0.0,0.0,0.0,0.0,0.0,0.0,0.0,0.0,0.0,0.0,0.0,0.0,0.0,0.0,0.0,0.0,0.0,0.0,0.0,1.1211,1.1385,1.0807,1.0124,0.0,0.0,0.0,0.0,0.0,0.0,0.0,0.0,0.0,0.0,0.0,0.0,0.0,0.0,0.0,0.0,0.0,0.0,0.0,0.0,0.0,0.0,0.0,0.0,0.0,0.0,0.0,0.0,0.0,0.0,0.0,0.0,0.0,0.0,0.0,0.0,0.0,0.0,0.0,0.0,0.0,0.0,0.0,0.0,0.0,0.0,0.0,0.0,0.0,0.0,0.0,0.0,0.0,0.0,0.0,0.0,0.0,0.0,0.0,0.0,0.0,0.0,0.0,0.0,0.0,0.0,0.0,0.0,0.0,0.0,0.0,0.0,0.0,0.0,0.0,0.0,0.0,0.0,0.0,0.0,0.0,0.0,0.0,0.0,0.0,0.0,0.0,0.0,0.0,0.0,0.0,0.0,0.0,0.0,0.0,0.0,0.0,0.0,0.0,0.0,0.0,0.0,0.0,0.0,0.0,0.0,0.0,0.0,0.0,0.0,1.1192,1.1117,1.1124,1.0713,1.0124,0.934,0.0,0.0,0.0,0.0,0.0,0.0,0.0,0.0,0.0,0.0,0.0,0.0,0.0,0.0,0.0,0.0,0.0,0.0,0.0,0.0,0.0,0.0,0.0,0.0,0.0,0.0,0.0,0.0,0.0,0.0,0.0,0.0,0.0,0.0,0.0,0.0,0.0,0.0,0.0,0.0,0.0,0.0,0.0,0.0,0.0,0.0,0.0,0.0,0.0,0.0,0.0,0.0,0.0,0.0,0.0,0.0,0.0,0.0,0.0,0.0,0.0,0.0,0.0,0.0,0.0,0.0,0.0,0.0,0.0,0.0,0.0,0.0,0.0,0.0,0.0,0.0,0.0,0.0,0.0,0.0,0.0,0.0,0.0,0.0,0.0,0.0,0.0,0.0,0.0,0.0,0.0,0.0,0.0,0.0,0.0,0.0,0.0,0.0,0.0,0.0,0.0,0.0,0.0,0.0,0.0,0.0,0.0,0.0,1.1099,1.1117,1.0912,1.0563,1.0537,1.0124,0.0,0.0,0.0,0.0,0.0,0.0,0.0,0.0,0.0,0.0,0.0,0.0,0.0,0.0,0.0,0.0,0.0,0.0,0.0,0.0,0.0,0.0,0.0,0.0,0.0,0.0,0.0,0.0,0.0,0.0,0.0,0.0,0.0,0.0,0.0,0.0,0.0,0.0,0.0,0.0,0.0,0.0,0.0,0.0,0.0,0.0,0.0,0.0,0.0,0.0,0.0,0.0,0.0,0.0,0.0,0.0,0.0,0.0,0.0,0.0,0.0,0.0,0.0,0.0,0.0,0.0,0.0,0.0,0.0,0.0,0.0,0.0,0.0,0.0,0.0,0.0,0.0,0.0,0.0,0.0,0.0,0.0,0.0,0.0,0.0,0.0,0.0,0.0,0.0,0.0,0.0,0.0,0.0,0.0,0.0,0.0,0.0,0.0,0.0,0.0,0.0,0.0,0.0,0.0,0.0,0.0,0.0,0.0,0.0,1.0893,1.1031,1.0931,1.0519,1.05,1.0105,0.0,0.0,0.0,0.0,0.0,0.0,0.0,0.0,0.0,0.0,0.0,0.0,0.0,0.0,0.0,0.0,0.0,0.0,0.0,0.0,0.0,0.0,0.0,0.0,0.0,0.0,0.0,0.0,0.0,0.0,0.0,0.0,0.0,0.0,0.0,0.0,0.0,0.0,0.0,0.0,0.0,0.0,0.0,0.0,0.0,0.0,0.0,0.0,0.0,0.0,0.0,0.0,0.0,0.0,0.0,0.0,0.0,0.0,0.0,0.0,0.0,0.0,0.0,0.0,0.0,0.0,0.0,0.0,0.0,0.0,0.0,0.0,0.0,0.0,0.0,0.0,0.0,0.0,0.0,0.0,0.0,0.0,0.0,0.0,0.0,0.0,0.0,0.0,0.0,0.0,0.0,0.0,0.0,0.0,0.0,0.0,0.0,0.0,0.0,0.0,0.0,0.0,0.0,0.0,0.0,0.0,0.0,0.0,0.0,1.0687,0.0,1.0743,1.0425,1.0406,1.0067,0.0,0.0,0.0,0.0,0.0,0.0,0.0,0.0,0.0,0.0,0.0,0.0,0.0,0.0,0.0,0.0,0.0,0.0,0.0,0.0,0.0,0.0,0.0,0.0,0.0,0.0,0.0,0.0,0.0,0.0,0.0,0.0,0.0,0.0,0.0,0.0,0.0,0.0,0.0,0.0,0.0,0.0,0.0,0.0,0.0,0.0,0.0,0.0,0.0,0.0,0.0,0.0,0.0,0.0,0.0,0.0,0.0,0.0,0.0,0.0,0.0,0.0,0.0,0.0,0.0,0.0,0.0,0.0,0.0,0.0,0.0,0.0,0.0,0.0,0.0,0.0,0.0,0.0,0.0,0.0,0.0,0.0,0.0,0.0,0.0,0.0,0.0,0.0,0.0,0.0,0.0,0.0,0.0,0.0,0.0,0.0,0.0,0.0,0.0,0.0,0.0,0.0,0.0,0.0,0.0,0.0,0.0,0.0,1.0067,1.0481,1.0519,1.0425,1.0199,1.0199,0.9916,0.0,0.0,0.0,0.0,0.0,0.0,0.0,0.0,0.0,0.0,0.0,0.0,0.0,0.0,0.0,0.0,0.0,0.0,0.0,0.0,0.0,0.0,0.0,0.0,0.0,0.0,0.0,0.0,0.0,0.0,0.0,0.0,0.0,0.0,0.0,0.0,0.0,0.0,0.0,0.0,0.0,0.0,0.0,0.0,0.0,0.0,0.0,0.0,0.0,0.0,0.0,0.0,0.0,0.0,0.0,0.0,0.0,0.0,0.0,0.0,0.0,0.0,0.0,0.0,0.0,0.0,0.0,0.0,0.0,0.0,0.0,0.0,0.0,0.0,0.0,0.0,0.0,0.0,0.0,0.0,0.0,0.0,0.0,0.0,0.0,0.0,0.0,0.0,0.0,0.0,0.0,0.0,0.0,0.0,0.0,0.0,0.0,0.0,0.0,0.0,0.0,0.0,0.0,0.0,0.0,0.0,0.0,0.0,0.0,1.0067,1.0349,1.0406,1.0199,1.0067,0.9765,0.0,0.0,0.0,0.0,0.0,0.0,0.0,0.0,0.0,0.0,0.0,0.0,0.0,0.0,0.0,0.0,0.0,0.0,0.0,0.0,0.0,0.0,0.0,0.0,0.0,0.0,0.0,0.0,0.0,0.0,0.0,0.0,0.0,0.0,0.0,0.0,0.0,0.0,0.0,0.0,0.0,0.0,0.0,0.0,0.0,0.0,0.0,0.0,0.0,0.0,0.0,0.0,0.0,0.0,0.0,0.0,0.0,0.0,0.0,0.0,0.0,0.0,0.0,0.0,0.0,0.0,0.0,0.0,0.0,0.0,0.0,0.0,0.0,0.0,0.0,0.0,0.0,0.0,0.0,0.0,0.0,0.0,0.0,0.0,0.0,0.0,0.0,0.0,0.0,0.0,0.0,0.0,0.0,0.0,0.0,0.0,0.0,0.0,0.0,0.0,0.0,0.0,0.0,0.0,0.0,0.0,0.0,0.0,0.0,0.9663,0.9992,1.0105,0.9973,0.986,0.9558,0.9103,0.0,0.0,0.0,0.0,0.0,0.0,0.0,0.0,0.0,0.0,0.0,0.0,0.0,0.0,0.0,0.0,0.0,0.0,0.0,0.0,0.0,0.0,0.0,0.0,0.0,0.0,0.0,0.0,0.0,0.0,0.0,0.0,0.0,0.0,0.0,0.0,0.0,0.0,0.0,0.0,0.0,0.0,0.0,0.0,0.0,0.0,0.0,0.0,0.0,0.0,0.0,0.0,0.0,0.0,0.0,0.0,0.0,0.0,0.0,0.0,0.0,0.0,0.0,0.0,0.0,0.0,0.0,0.0,0.0,0.0,0.0,0.0,0.0,0.0,0.0,0.0,0.0,0.0,0.0,0.0,0.0,0.0,0.0,0.0,0.0,0.0,0.0,0.0,0.0,0.0,0.0,0.0,0.0,0.0,0.0,0.0,0.0,0.0,0.0,0.0,0.0,0.0,0.0,0.0,0.0,0.0,0.0,0.0,0.9322,0.9511,0.9625,0.9625,0.9587,0.9292,0.0,0.0,0.0,0.0,0.0,0.0,0.0,0.0,0.0,0.0,0.0,0.0,0.0,0.0,0.0,0.0,0.0,0.0,0.0,0.0,0.0,0.0,0.0,0.0,0.0,0.0,0.0,0.0,0.0,0.0,0.0,0.0,0.0,0.0,0.0,0.0,0.0,0.0,0.0,0.0,0.0,0.0,0.0,0.0,0.0,0.0,0.0,0.0,0.0,0.0,0.0,0.0,0.0,0.0,0.0,0.0,0.0,0.0,0.0,0.0,0.0,0.0,0.0,0.0,0.0,0.0,0.0,0.0,0.0,0.0,0.0,0.0,0.0,0.0,0.0,0.0,0.0,0.0,0.0,0.0,0.0,0.0,0.0,0.0,0.0,0.0,0.0,0.0,0.0,0.0,0.0,0.0,0.0,0.0,0.0,0.0,0.0,0.0,0.0,0.0,0.0,0.0,0.0,0.0,0.0,0.0,0.0,0.0,0.0,0.9511,0.9587,0.9625,0.9606,0.9454,0.917,0.0,0.0,0.0,0.0,0.0,0.0,0.0,0.0,0.0,0.0,0.0,0.0,0.0,0.0,0.0,0.0,0.0,0.0,0.0,0.0,0.0,0.0,0.0,0.0,0.0,0.0,0.0,0.0,0.0,0.0,0.0,0.0,0.0,0.0,0.0,0.0,0.0,0.0,0.0,0.0,0.0,0.0,0.0,0.0,0.0,0.0,0.0,0.0,0.0,0.0,0.0,0.0,0.0,0.0,0.0,0.0,0.0,0.0,0.0,0.0,0.0,0.0,0.0,0.0,0.0,0.0,0.0,0.0,0.0,0.0,0.0,0.0,0.0,0.0,0.0,0.0,0.0,0.0,0.0,0.0,0.0,0.0,0.0,0.0,0.0,0.0,0.0,0.0,0.0,0.0,0.0,0.0,0.0,0.0,0.0,0.0,0.0,0.0,0.0,0.0,0.0,0.0,0.0,0.0,0.0,0.0,0.0,0.0,0.9255,0.9606,0.9671,0.9644,0.9492,0.9284,0.8961,0.0,0.0,0.0,0.0,0.0,0.0,0.0,0.0,0.0,0.0,0.0,0.0,0.0,0.0,0.0,0.0,0.0,0.0,0.0,0.0,0.0,0.0,0.0,0.0,0.0,0.0,0.0,0.0,0.0,0.0,0.0,0.0,0.0,0.0,0.0,0.0,0.0,0.0,0.0,0.0,0.0,0.0,0.0,0.0,0.0,0.0,0.0,0.0,0.0,0.0,0.0,0.0,0.0,0.0,0.0,0.0,0.0,0.0,0.0,0.0,0.0,0.0,0.0,0.0,0.0,0.0,0.0,0.0,0.0,0.0,0.0,0.0,0.0,0.0,0.0,0.0,0.0,0.0,0.0,0.0,0.0,0.0,0.0,0.0,0.0,0.0,0.0,0.0,0.0,0.0,0.0,0.0,0.0,0.0,0.0,0.0,0.0,0.0,0.0,0.0,0.0,0.0,0.0,0.0,0.0,0.0,0.0,0.0,0.9633,0.9652,0.9852,0.9719,0.9322,0.9122,0.8723,0.0,0.0,0.0,0.0,0.0,0.0,0.0,0.0,0.0,0.0,0.0,0.0,0.0,0.0,0.0,0.0,0.0,0.0,0.0,0.0,0.0,0.0,0.0,0.0,0.0,0.0,0.0,0.0,0.0,0.0,0.0,0.0,0.0,0.0,0.0,0.0,0.0,0.0,0.0,0.0,0.0,0.0,0.0,0.0,0.0,0.0,0.0,0.0,0.0,0.0,0.0,0.0,0.0,0.0,0.0,0.0,0.0,0.0,0.0,0.0,0.0,0.0,0.0,0.0,0.0,0.0,0.0,0.0,0.0,0.0,0.0,0.0,0.0,0.0,0.0,0.0,0.0,0.0,0.0,0.0,0.0,0.0,0.0,0.0,0.0,0.0,0.0,0.0,0.0,0.0,0.0,0.0,0.0,0.0,0.0,0.0,0.0,0.0,0.0,0.0,0.0,0.0,0.0,0.0,0.0,0.0,0.0,0.0,0.9916,1.0067,1.0105,0.9879,0.9322,0.9103,0.8723,0.0,0.0,0.0,0.0,0.0,0.0,0.0,0.0,0.0,0.0,0.0,0.0,0.0,0.0,0.0,0.0,0.0,0.0,0.0,0.0,0.0,0.0,0.0,0.0,0.0,0.0,0.0,0.0,0.0,0.0,0.0,0.0,0.0,0.0,0.0,0.0,0.0,0.0,0.0,0.0,0.0,0.0,0.0,0.0,0.0,0.0,0.0,0.0,1.5808,0.0,0.0,0.0,0.0,0.0,0.0,0.0,0.0,0.0,0.0,0.0,0.0,0.0,0.0,0.0,0.0,0.0,0.0,0.0,0.0,0.0,0.0,0.0,0.0,0.0,0.0,0.0,0.0,0.0,0.0,0.0,0.0,0.0,0.0,0.0,0.0,0.0,0.0,0.0,0.0,0.0,0.0,0.0,0.0,0.0,0.0,0.0,0.0,0.0,0.0,0.0,0.0,0.0,0.0,0.0,0.0,0.0,0.0,0.0,1.0237,1.0349,1.0237,0.9954,0.9454,0.9065,0.8627,0.0,0.0,0.0,0.0,0.0,0.0,0.0,0.0,0.0,0.0,0.0,0.0,0.0,0.0,0.0,0.0,0.0,0.0,0.0,0.0,0.0,0.0,0.0,0.0,0.0,0.0,0.0,0.0,0.0,0.0,0.0,0.0,0.0,0.0,0.0,0.0,0.0,0.0,0.0,0.0,0.0,0.0,0.0,0.0,0.0,0.0,0.0,0.0,0.0,0.0,0.0,0.0,0.0,0.0,0.0,0.0,0.0,0.0,0.0,0.0,0.0,0.0,0.0,0.0,0.0,0.0,0.0,0.0,0.0,0.0,0.0,0.0,0.0,0.0,0.0,0.0,0.0,0.0,0.0,0.0,0.0,0.0,0.0,0.0,0.0,0.0,0.0,0.0,0.0,0.0,0.0,0.0,0.0,0.0,0.0,0.0,0.0,0.0,0.0,0.0,0.0,0.0,0.0,0.0,0.0,0.0,0.0,1.0593,1.0671,1.0671,1.0462,1.0149,0.971,0.9115,0.8598,0.8165,0.0,0.0,0.0,0.0,0.0,0.0,0.0,0.0,0.0,0.0,0.0,0.0,0.0,0.0,0.0,0.0,0.0,0.0,0.0,0.0,0.0,0.0,0.0,0.0,0.0,0.0,0.0,0.0,0.0,0.0,0.0,0.0,0.0,0.0,0.0,0.0,0.0,0.0,1.4748,1.5287,0.0,0.0,0.0,0.0,0.0,0.0,0.0,0.0,1.6364,0.0,0.0,0.0,0.0,0.0,0.0,0.0,0.0,0.0,0.0,0.0,0.0,0.0,0.0,0.0,0.0,0.0,0.0,0.0,0.0,0.0,0.0,0.0,0.0,0.0,0.0,0.0,0.0,0.0,0.0,0.0,0.0,0.0,0.0,0.0,0.0,0.0,0.0,0.0,0.0,0.0,0.0,0.0,0.0,0.0,0.0,0.0,0.0,0.0,0.0,0.0,0.0,0.0,0.0,0.0,0.0,1.0886,1.1241,1.1436,1.1417,1.1218,1.0819,1.0199,0.9597,0.8988,0.835,0.0,0.0,0.0,0.0,0.0,0.0,0.0,0.0,0.0,0.0,0.0,0.0,0.0,0.0,0.0,0.0,0.0,0.0,0.0,0.0,0.0,0.0,0.0,0.0,0.0,0.0,0.0,0.0,0.0,0.0,0.0,0.0,0.0,0.0,0.0,0.0,0.0,0.0,0.0,1.5813,1.6168,0.0,0.0,0.0,0.0,0.0,0.0,0.0,0.0,1.662,0.0,0.0,0.0,0.0,0.0,0.0,0.0,0.0,0.0,0.0,0.0,0.0,0.0,0.0,0.0,0.0,0.0,0.0,0.0,0.0,0.0,0.0,0.0,0.0,0.0,0.0,0.0,0.0,0.0,0.0,0.0,0.0,0.0,0.0,0.0,0.0,0.0,0.0,0.0,0.0,0.0,0.0,0.0,0.0,0.0,0.0,0.0,0.0,0.0,0.0,0.0,0.0,0.0,0.0,0.0,1.1498,1.1696,1.1766,1.1746,1.1465,1.1022,1.0456,0.9737,0.9049,0.0,0.0,0.0,0.0,0.0,0.0,0.0,0.0,0.0,0.0,0.0,0.0,0.0,0.0,0.0,0.0,0.0,0.0,0.0,0.0,0.0,0.0,0.0,0.0,0.0,0.0,0.0,0.0,0.0,0.0,0.0,0.0,0.0,0.0,0.0,0.0,0.0,0.0,0.0,0.0,1.6131,1.6351,1.6473,0.0,0.0,0.0,0.0,0.0,0.0,1.6953,1.6913,0.0,0.0,0.0,0.0,0.0,0.0,0.0,0.0,0.0,0.0,0.0,0.0,0.0,0.0,0.0,0.0,0.0,0.0,0.0,0.0,0.0,0.0,0.0,0.0,0.0,0.0,0.0,0.0,0.0,0.0,0.0,0.0,0.0,0.0,0.0,0.0,0.0,0.0,0.0,0.0,0.0,0.0,0.0,0.0,0.0,0.0,0.0,0.0,0.0,0.0,0.0,0.0,0.0,0.0,0.0,1.2052,1.2089,1.2063,1.2063,1.1656,1.1208,1.0747,0.9885,0.9127,0.0,0.0,0.0,0.0,0.0,0.0,0.0,0.0,0.0,0.0,0.0,0.0,0.0,0.0,0.0,0.0,0.0,0.0,0.0,0.0,0.0,0.0,0.0,0.0,0.0,0.0,0.0,0.0,0.0,0.0,0.0,0.0,0.0,0.0,0.0,0.0,0.0,0.0,0.0,0.0,0.0,1.646,1.6754,1.6847,0.0,0.0,0.0,0.0,1.726,1.7286,0.0,0.0,0.0,0.0,0.0,0.0,0.0,0.0,0.0,0.0,0.0,0.0,0.0,0.0,0.0,0.0,0.0,0.0,0.0,0.0,0.0,0.0,0.0,0.0,0.0,0.0,0.0,0.0,0.0,0.0,0.0,0.0,0.0,0.0,0.0,0.0,0.0,0.0,0.0,0.0,0.0,0.0,0.0,0.0,0.0,0.0,0.0,0.0,0.0,0.0,0.0,0.0,0.0,0.0,0.0,0.0,1.2343,1.252,1.2614,1.2572,1.2159,1.169,1.1219,1.0373,0.9528,0.0,0.0,0.0,0.0,0.0,0.0,0.0,0.0,0.0,0.0,0.0,0.0,0.0,0.0,0.0,0.0,0.0,0.0,0.0,0.0,0.0,0.0,0.0,0.0,0.0,0.0,0.0,0.0,0.0,0.0,0.0,0.0,0.0,0.0,0.0,0.0,0.0,0.0,0.0,0.0,0.0,1.6792,1.7112,1.7341,1.7515,0.0,0.0,0.0,1.7568,1.7542,0.0,0.0,0.0,0.0,0.0,0.0,0.0,0.0,0.0,0.0,0.0,0.0,0.0,0.0,0.0,0.0,0.0,0.0,0.0,0.0,0.0,0.0,0.0,0.0,0.0,0.0,0.0,0.0,0.0,0.0,0.0,0.0,0.0,0.0,0.0,0.0,0.0,0.0,0.0,0.0,0.0,0.0,0.0,0.0,0.0,0.0,0.0,0.0,0.0,0.0,0.0,0.0,0.0,0.0,0.0,1.2272,1.2549,1.2668,1.2647,1.2519,1.2069,1.1596,1.1133,1.0244,0.9435,0.0,0.0,0.0,0.0,0.0,0.0,0.0,0.0,0.0,0.0,0.0,0.0,0.0,0.0,0.0,0.0,0.0,0.0,0.0,0.0,0.0,0.0,0.0,0.0,0.0,0.0,0.0,0.0,0.0,0.0,0.0,0.0,0.0,0.0,0.0,0.0,0.0,0.0,0.0,0.0,0.0,0.0,1.7407,1.7528,0.0,0.0,0.0,1.7635,1.7822,0.0,0.0,0.0,0.0,0.0,0.0,0.0,0.0,0.0,0.0,0.0,0.0,0.0,0.0,0.0,0.0,0.0,0.0,0.0,0.0,0.0,0.0,0.0,0.0,0.0,0.0,0.0,0.0,0.0,0.0,0.0,0.0,0.0,0.0,0.0,0.0,0.0,0.0,0.0,0.0,0.0,0.0,0.0,0.0,0.0,0.0,0.0,0.0,0.0,0.0,0.0,0.0,0.0,0.0,0.0,0.0,0.0,1.2699,1.2668,1.2561,1.24,1.1864,1.137,1.0895,1.006,0.0,0.0,0.0,0.0,0.0,0.0,0.0,0.0,0.0,0.0,0.0,0.0,0.0,0.0,0.0,0.0,0.0,0.0,0.0,0.0,0.0,0.0,0.0,0.0,0.0,0.0,0.0,0.0,0.0,0.0,0.0,0.0,0.0,0.0,0.0,0.0,0.0,0.0,0.0,0.0,0.0,0.0,1.734,1.7675,1.7715,1.7769,0.0,0.0,1.7729,1.778,1.7608,1.7463,0.0,0.0,0.0,0.0,0.0,0.0,0.0,0.0,0.0,0.0,0.0,0.0,0.0,0.0,0.0,0.0,0.0,0.0,0.0,0.0,0.0,0.0,0.0,0.0,0.0,0.0,0.0,0.0,0.0,0.0,0.0,0.0,0.0,0.0,0.0,0.0,0.0,0.0,0.0,0.0,0.0,0.0,0.0,0.0,0.0,0.0,0.0,0.0,0.0,0.0,0.0,0.0,0.0,0.0,0.0,1.2677,1.2507,1.2412,1.2369,1.1693,1.1111,1.0636,0.9963,0.9133,0.0,0.0,0.0,0.0,0.0,0.0,0.0,0.0,0.0,0.0,0.0,0.0,0.0,0.0,0.0,0.0,0.0,0.0,0.0,0.0,0.0,0.0,0.0,0.0,0.0,0.0,0.0,0.0,0.0,0.0,0.0,0.0,0.0,0.0,0.0,0.0,0.0,0.0,0.0,0.0,0.0,1.7381,1.7902,1.7969,1.7981,0.0,0.0,1.7807,1.7234,1.7156,1.7054,1.6801,0.0,0.0,0.0,0.0,0.0,0.0,0.0,0.0,0.0,0.0,0.0,0.0,0.0,0.0,0.0,0.0,0.0,0.0,0.0,0.0,0.0,0.0,0.0,0.0,0.0,0.0,0.0,0.0,0.0,0.0,0.0,0.0,0.0,0.0,0.0,0.0,0.0,0.0,0.0,0.0,0.0,0.0,0.0,0.0,0.0,0.0,0.0,0.0,0.0,0.0,0.0,0.0,0.0,1.2613,1.2699,1.2485,1.2262,1.1972,1.1241,1.0679,1.0224,0.9419,0.8704,0.0,0.0,0.0,0.0,0.0,0.0,0.0,0.0,0.0,0.0,0.0,0.0,0.0,0.0,0.0,0.0,0.0,0.0,0.0,0.0,0.0,0.0,0.0,0.0,0.0,0.0,0.0,0.0,1.0873,1.1239,1.1817,0.0,0.0,0.0,0.0,0.0,0.0,0.0,0.0,0.0,0.0,1.7516,1.774,1.7766,0.0,0.0,1.783,1.7697,1.7677,1.7342,1.6995,1.6746,1.6423,0.0,0.0,0.0,0.0,0.0,0.0,0.0,0.0,0.0,0.0,0.0,0.0,0.0,0.0,0.0,0.0,0.0,0.0,0.0,0.0,0.0,0.0,0.0,0.0,0.0,0.0,0.0,0.0,0.0,0.0,0.0,0.0,0.0,0.0,0.0,0.0,0.0,0.0,0.0,0.0,0.0,0.0,0.0,0.0,0.0,0.0,0.0,0.0,0.0,0.0,0.0,0.0,1.2656,1.2592,1.2412,1.2057,1.1585,1.0874,1.0311,0.9886,0.9034,0.8406,0.0,0.0,0.0,0.0,0.0,0.0,0.0,0.0,0.0,0.0,0.0,0.0,0.0,0.0,0.0,0.0,0.0,0.0,0.0,0.0,0.0,0.0,0.0,0.0,0.0,0.0,0.0,0.0,1.0892,1.1339,1.1932,0.0,0.0,0.0,0.0,0.0,0.0,0.0,0.0,0.0,0.0,1.7475,1.7585,1.7662,1.7755,1.783,1.7644,1.7484,1.744,1.7088,1.6722,1.6444,0.0,0.0,0.0,0.0,0.0,0.0,0.0,0.0,0.0,0.0,0.0,0.0,0.0,0.0,0.0,0.0,0.0,0.0,0.0,0.0,0.0,0.0,0.0,0.0,0.0,0.0,0.0,0.0,0.0,0.0,0.0,0.0,0.0,0.0,0.0,0.0,0.0,0.0,0.0,0.0,0.0,0.0,0.0,0.0,0.0,0.0,0.0,0.0,0.0,0.0,0.0,0.0,0.0,0.0,1.24,1.2145,1.1768,1.1305,1.0657,1.0072,0.9602,0.8968,0.8289,0.7624,0.0,0.0,0.0,0.0,0.0,0.0,0.0,0.0,0.0,0.0,0.0,0.0,0.0,0.0,0.0,0.0,0.0,0.0,0.0,0.0,0.0,0.0,0.0,0.0,0.0,0.0,1.0491,1.0994,1.15,0.0,0.0,0.0,0.0,0.0,0.0,0.0,0.0,0.0,0.0,1.6773,1.7216,1.7537,1.7817,1.7842,1.7547,1.7496,1.7166,1.6293,1.612,1.604,0.0,0.0,0.0,0.0,0.0,0.0,0.0,0.0,0.0,0.0,0.0,0.0,0.0,0.0,0.0,0.0,0.0,0.0,0.0,0.0,0.0,0.0,0.0,0.0,0.0,0.0,0.0,0.0,0.0,0.0,0.0,0.0,0.0,0.0,0.0,0.0,0.0,0.0,0.0,0.0,0.9917,0.9974,0.0,0.0,0.0,0.0,0.0,0.0,0.0,0.0,0.0,0.0,0.0,0.0,1.2796,1.2412,1.2005,1.1478,1.0831,1.019,0.9559,0.8947,0.842,0.7818,0.7168,0.0,0.0,0.0,0.0,0.0,0.0,0.0,0.0,0.0,0.0,0.0,0.0,0.0,0.0,0.0,0.0,0.0,0.0,0.0,0.0,0.0,0.0,0.0,0.0,0.0,1.0181,0.0,0.0,0.0,0.0,0.0,0.0,0.0,0.0,0.0,0.0,0.0,1.5903,1.6256,1.6779,1.7051,1.6937,1.7138,1.7206,0.0,0.0,0.0,0.0,0.0,0.0,0.0,0.0,0.0,0.0,0.0,0.0,0.0,0.0,1.7426,1.7397,1.7742,1.802,1.8144,0.0,0.0,0.0,0.0,0.0,0.0,0.0,0.0,0.0,0.0,0.0,0.0,0.0,0.0,0.0,0.0,0.9513,0.0,0.0,0.0,0.0,0.0,0.0,0.0,0.0,1.0189,1.0186,1.0212,1.029,1.0518,0.0,1.1102,1.1353,0.0,0.0,0.0,0.0,0.0,0.0,0.0,0.0,1.3061,1.2423,1.2043,1.1391,1.0506,0.9907,0.9275,0.861,0.8054,0.7497,0.6932,0.6857,0.6831,0.0,0.0,0.0,0.0,0.0,0.0,0.0,0.0,0.0,0.0,0.0,0.0,0.0,0.0,0.0,0.0,0.0,0.0,0.0,0.0,0.0,0.0,0.0,1.0177,0.0,0.0,0.0,0.0,0.0,0.0,0.0,0.0,0.0,1.5169,1.5545,1.5842,1.6101,1.6478,1.6691,1.6452,0.0,0.0,0.0,0.0,0.0,0.0,0.0,1.4926,1.476,1.4597,1.4467,1.4462,1.498,1.5774,1.6897,0.0,0.0,1.7625,1.7998,1.8321,1.842,1.8559,1.8637,1.8637,1.8557,1.849,0.0,0.0,0.0,0.0,0.0,0.0,0.0,0.0,1.0061,0.9987,0.0,0.9747,0.0,0.0,0.0,0.0,0.0,0.0,0.0,0.0,1.0296,1.0245,1.0271,1.0541,1.0785,1.1045,1.1378,1.1816,1.2319,1.2603,0.0,0.0,0.0,0.0,0.0,0.0,1.3409,1.2448,1.2204,1.1508,1.0362,0.9851,0.9262,0.8596,0.7856,0.7308,0.6924,0.7024,0.7031,0.6924,0.7024,0.0,0.0,0.0,0.0,0.0,0.0,0.0,0.0,0.0,0.0,0.0,0.0,0.0,0.0,0.0,0.0,0.0,0.0,0.0,0.0,1.011,0.0,0.0,0.0,0.0,0.0,0.0,0.0,0.0,0.0,0.0,1.5431,1.5509,1.5584,1.5771,0.0,0.0,0.0,0.0,1.5946,1.5601,1.5264,1.4948,1.463,1.455,1.456,1.456,0.0,0.0,1.5379,1.5658,1.6105,1.7086,1.7302,1.7592,1.8502,1.8669,1.8864,1.9149,1.9039,1.8913,1.8901,1.8725,1.854,0.9902,0.0,0.0,0.0,0.0,0.9873,0.988,0.988,0.9793,0.9774,0.98,0.9961,0.0,0.0,0.0,0.0,0.0,0.0,1.1134,1.1279,1.1539,1.1545,1.1424,1.1507,1.1612,1.1811,1.2078,1.2438,1.289,1.3344,1.3471,1.3304,0.0,0.0,0.0,0.0,1.364,1.2722,1.2236,1.1462,1.0324,0.9834,0.9127,0.8142,0.754,0.7166,0.7038,0.7071,0.7078,0.7038,0.7071,0.0,0.0,0.0,0.0,0.0,0.0,0.0,0.0,0.0,0.0,0.0,0.0,0.0,0.0,0.0,0.0,0.0,0.0,0.0,0.9778,1.0416,1.0851,0.0,0.0,0.0,0.0,0.0,0.0,0.0,0.0,0.0,1.5661,1.5715,1.5806,0.0,0.0,1.5736,1.5496,1.5411,1.5205,1.4679,0.0,0.0,0.0,1.3726,1.3757,1.3973,1.423,1.4589,1.5257,1.5422,1.5826,1.7019,1.7408,1.7811,1.8467,1.8685,1.877,1.8842,1.9,1.9095,1.9095,1.906,1.8931,1.0423,1.0332,1.017,1.0089,1.0089,1.0089,1.0089,1.0118,1.0232,1.029,1.0318,1.0661,1.0833,1.0833,1.1069,0.0,0.0,0.0,1.1847,1.2035,1.2238,1.2276,1.224,1.2235,1.2349,1.2542,1.2866,1.3143,1.3383,1.3954,1.4132,1.3999,0.0,0.0,1.4228,1.4441,1.405,1.2986,1.2432,1.1577,1.0454,0.9534,0.8763,0.8095,0.7545,0.7296,0.7303,0.7303,0.7296,0.7296,0.7303,0.7344,0.0,0.0,0.0,0.0,0.0,0.0,0.0,0.0,0.0,0.0,0.0,0.8487,0.0,0.0,0.0,0.0,0.9793,1.0028,1.0314,1.0836,0.0,0.0,0.0,0.0,0.0,0.0,0.0,1.4705,1.5124,1.5489,1.5872,1.5816,1.5817,1.5966,1.5725,1.5424,1.5189,0.0,1.453,1.4178,1.3894,1.3655,1.3438,1.335,1.3389,1.3743,1.4163,1.4661,1.5312,1.553,1.5991,1.7008,1.7498,1.7778,1.8279,1.8384,1.8541,1.8785,1.9042,1.9181,1.9181,1.9181,1.916,1.1119,1.1344,1.0984,1.0805,1.0768,1.0783,1.079,1.0821,1.1126,1.1248,1.1279,1.1675,1.1896,1.1918,1.1949,0.0,0.0,1.244,1.2487,1.2628,1.2652,1.2712,1.282,1.2899,1.3084,1.3313,1.3708,1.3884,1.3935,1.4476,1.4765,1.4801,1.508,1.5025,1.4724,1.4951,1.4469,1.3227,1.2698,1.1814,1.058,0.9065,0.8294,0.8286,0.7855,0.7597,0.7597,0.7597,0.7597,0.7597,0.7597,0.7604,0.7617,0.0,0.0,0.0,0.0,0.0,0.0,0.0,0.0,0.0,0.0,0.0,0.0,0.0,0.0,0.0,1.0733,0.0,1.1089,1.135,0.0,0.0,0.0,1.2833,1.3079,1.3716,1.4374,1.4955,0.0,0.0,0.0,0.0,1.5703,1.5674,1.5355,1.5131,1.5046,1.4408,1.3965,1.3861,1.3532,1.329,1.3227,1.3262,1.3414,1.3771,1.4239,1.4808,1.5489,1.579,1.6343,1.7195,1.7432,1.7561,1.7905,1.7978,1.8177,1.8797,1.9001,1.9073,1.9037,1.9049,1.9006,1.197,1.2064,1.1948,1.1702,1.1398,1.1558,1.1618,1.1618,1.1707,1.174,1.1747,1.2096,1.2524,1.304,1.3354,1.3547,1.3602,1.3653,1.369,1.3752,1.3934,1.3951,1.3868,1.4168,1.4285,1.4214,1.4543,1.4734,1.4795,1.5153,1.5423,1.5607,1.5869,1.5576,1.4748,1.4963,1.4543,1.343,1.2938,1.1908,1.0242,0.8965,0.8294,0.8294,0.7855,0.7597,0.7597,0.7597,0.7597,0.7597,0.7597,0.7651,0.7729,0.776,0.0,0.0,0.0,0.0,0.0,0.0,0.0,0.0,0.0,0.9866,0.994,0.0,1.0604,0.0,1.1203,1.154,1.181,1.2358,0.0,0.0,1.344,1.3806,1.412,1.4281,1.4607,1.5142,1.5465,1.5672,1.5774,1.5719,1.5534,1.5298,1.4954,1.465,1.4307,1.3897,1.3476,1.3193,1.3084,1.3012,1.286,1.3106,1.3475,1.384,1.4169,1.4702,1.5417,1.5586,1.5854,1.6601,1.6947,1.7238,1.7561,1.7808,1.7925,1.7933,1.8088,1.8296,1.8264,1.8296,1.8237,1.3421,1.3569,1.365,1.352,1.3237,1.2627,1.2337,1.237,1.2698,1.2833,1.2866,1.3202,1.3537,1.388,1.4138,1.4406,1.4706,1.4761,1.4842,1.4945,1.5086,1.5103,1.4972,1.5102,1.5185,1.5271,1.5493,1.5612,1.5663,1.5901,1.6108,1.6253,1.6304,1.596,1.5268,1.5378,1.4937,1.3865,1.2766,1.1619,1.0378,0.9171,0.8533,0.8509,0.8028,0.777,0.777,0.7794,0.777,0.777,0.7862,0.7936,0.8011,0.8072,0.818,0.0,0.0,0.0,0.0,0.0,0.0,0.0,0.0,0.0,0.0,0.0,1.1674,0.0,0.0,0.0,1.2914,1.3267,1.3583,1.3764,1.4039,1.4295,1.4483,1.4692,1.4927,1.5224,1.5489,1.5602,1.5455,1.5387,1.5247,1.4891,1.455,1.4257,1.4007,1.358,1.3187,1.2919,1.2895,1.2849,1.2718,1.3103,1.3433,1.3654,1.408,1.4604,1.5137,1.5398,1.5658,1.6169,1.6429,1.6613,1.6818,1.698,1.7044,1.6947,1.698,1.7195,1.7497,1.755,1.7495,1.5069,1.5337,1.5515,1.5586,1.5478,1.4113,1.3418,1.3298,1.3948,1.4259,1.4328,1.4708,1.488,1.488,1.4915,1.5303,1.5887,1.583,1.5948,1.6179,1.6155,1.6106,1.6045,1.5905,1.6027,1.6379,1.6426,1.6478,1.6469,1.6712,1.6805,1.6808,1.6549,1.6279,1.5999,1.5935,1.5314,1.4149,1.241,1.1261,1.0696,0.9494,0.8842,0.8792,0.8317,0.8074,0.8067,0.8074,0.8042,0.8074,0.8228,0.8321,0.8328,0.8437,0.8526,0.0,0.854,0.0,0.0,0.0,0.0,0.0,0.0,0.0,0.0,1.2137,1.27,1.3582,1.3927,1.4118,1.4176,1.4225,1.4274,1.4274,1.4521,1.4692,1.4663,1.4987,1.5231,1.5271,1.5413,1.5423,1.5165,1.5047,1.4881,1.4507,1.4175,1.3905,1.3831,1.3365,1.303,1.2976,1.289,1.2816,1.2816,1.3062,1.3301,1.3433,1.3851,1.4375,1.4702,1.5039,1.5398,1.5681,1.5746,1.5811,1.5844,1.5876,1.5876,1.5811,1.5801,1.6029,1.6688,1.6872,1.6882,1.6488,1.656,1.6598,1.6626,1.6617,1.6783,1.6232,1.5177,1.5322,1.5577,1.5913,1.6556,1.6882,1.6882,1.7217,1.7398,1.7523,1.7172,1.7032,1.714,1.6904,1.6808,1.6796,1.697,1.7137,1.7248,1.731,1.7363,1.7373,1.741,1.7432,1.7434,1.7159,1.6871,0.0,0.0,0.0,0.0,1.2264,1.1379,1.063,0.9691,0.9105,0.8872,0.8553,0.0,0.8397,0.8423,0.8397,0.8423,0.8425,0.0,0.0,0.0,0.0,0.0,0.0,0.0,0.0,0.0,0.0,0.0,1.1844,1.2092,1.2767,1.3324,1.3722,1.3925,1.4374,1.4748,1.5026,1.546,1.5697,1.5708,1.5766,1.5708,1.5432,1.5475,1.5537,1.5537,1.5332,1.5175,1.5067,1.4821,1.4497,1.4177,1.385,1.3566,1.3256,1.3093,1.2945,1.2849,1.2816,1.2799,1.2799,1.2873,1.3038,1.3301,1.3465,1.372,1.4048,1.4137,1.4342,1.466,1.4702,1.4833,1.5062,1.5094,1.5029,1.4768,1.4726,1.5029,1.5974,1.6201,1.6201,1.8537,0.0,1.8726,1.8613,0.0,1.8782,1.8342,1.7464,1.7255,1.7282,1.7506,1.7993,1.8201,1.8201,1.8456,1.8706,1.8868,1.8634,1.8507,1.8471,1.8336,1.8083,1.7808,1.8097,1.8142,1.7951,1.8135,1.8145,1.8017,1.8038,1.7949,1.7784,1.7532,1.7129,1.6639,1.5807,1.4641,1.3166,1.2231,1.1361,1.0519,0.9737,0.9175,0.8912,0.0,0.0,0.0,0.0,0.0,0.0,0.0,0.0,0.0,0.0,0.0,0.9144,0.9157,0.9475,1.0228,1.0412,1.0956,1.2072,1.2779,1.3381,1.3859,1.4407,1.4902,1.5343,1.5639,1.5913,1.6253,1.6534,1.6673,1.6684,1.6462,1.6234,1.6063,1.5755,1.5542,1.5353,1.5205,1.5028,1.4821,1.4498,1.4235,1.4051,1.3621,1.3274,1.3198,1.3028,1.2873,1.2824,1.2799,1.2799,1.2799,1.2799,1.284,1.3071,1.3268,1.3433,1.3621,1.3785,1.3973,1.4104,1.417,1.4235,1.4342,1.4408,1.4366,1.4202,1.4137,1.431,1.4856,1.4954,1.4954,2.0504,2.0817,2.0806,2.0583,2.0231,2.0234,2.0051,1.9618,0.0,0.0,0.0,1.9344,1.9484,1.9511,1.9615,1.9823,2.0142,2.0064,1.9987,1.9839,1.9726,1.9413,1.8983,1.9124,1.9048,1.8804,1.8906,1.8858,1.8651,1.8562,1.8335,1.8043,1.7642,1.703,1.6261,1.518,1.4155,1.32,1.2316,1.1396,1.0469,0.9804,0.9316,0.8996,0.8775,0.8668,0.8642,0.8668,0.8668,0.8648,0.8852,0.8987,0.8994,0.9245,0.9395,0.9422,0.9449,0.9733,1.0288,1.0562,1.1162,1.2236,1.3553,1.4435,1.4781,1.5267,1.5882,1.6744,1.6859,1.7013,1.7364,1.7457,1.7457,1.7395,1.6936,1.663,1.6528,1.6,1.5532,1.5271,1.5112,1.4912,1.4514,1.4223,1.3973,1.3834,1.3427,1.3075,1.3226,1.2988,1.2824,1.2799,1.2799,1.2799,1.2799,1.2799,1.2799,1.2832,1.3104,1.3268,1.3334,1.3523,1.3678,1.3645,1.372,1.3687,1.3711,1.3711,1.3711,1.3711,1.3711,1.372,1.372,1.3678,1.3777,2.1608,2.1635,2.1635,2.1413,2.1073,2.1283,2.1213,2.0964,2.0544,2.0341,2.038,2.1074,2.1411,2.1411,2.1404,2.147,2.1485,2.1076,2.0923,0.0,2.0308,2.0178,2.0366,1.9789,1.9808,2.021,1.9594,1.9368,1.9495,1.8803,1.8385,1.8218,1.7282,1.6189,1.5078,1.436,1.3591,1.2719,1.255,1.1879,1.0682,1.0317,0.9881,0.9373,0.9303,0.9281,0.9281,0.9274,0.9281,0.9281,0.9322,0.932,0.9349,0.9396,0.9442,0.9571,0.9656,0.9967,1.0467,1.0904,1.1635,1.267,1.3685,1.456,1.5154,1.5546,1.6052,1.6735,1.7078,1.7364,1.7692,1.8004,1.8047,1.7777,1.7403,1.7061,1.6783,1.6174,1.571,1.5618,1.5185,1.471,1.4394,1.4159,1.3784,1.3345,1.3247,1.3202,1.2955,1.284,1.2799,1.2799,1.2799,1.2799,1.27,1.2799,1.2733,1.2799,1.2807,1.2873,1.284,1.2898,1.2997,1.2964,1.2997,1.2997,1.2997,1.2964,1.2997,1.303,1.303,1.2997,1.303,1.303,1.3194,2.3137,2.3298,2.3338,2.2936,2.2342,2.1967,2.175,2.1702,2.157,2.1421,2.138,2.2037,2.2439,2.269,2.2793,2.2966,2.3147,2.2943,2.2688,2.2384,2.208,2.1719,2.1311,2.1137,2.0908,2.0615,2.0398,2.009,1.974,1.9315,1.8919,1.8492,1.7304,1.6339,1.5596,1.46,1.3851,1.325,1.2296,1.1397,1.0503,1.0185,0.9845,0.941,0.941,0.941,0.941,0.941,0.941,0.941,0.9462,0.9537,0.9618,0.967,0.9808,0.9964,1.0063,1.0256,1.0639,1.1297,1.1963,1.2642,1.3375,1.4166,1.5032,1.5613,1.6223,1.6858,1.7386,1.7828,1.8207,1.8533,1.8584,1.827,1.7819,1.7321,1.6798,1.619,1.5649,1.5317,1.4839,1.4449,1.4215,1.3797,1.3485,1.3215,1.3193,1.2939,1.2601,1.251,1.251,1.2503,1.2371,1.2272,1.2272,1.2246,1.2239,1.2272,1.2246,1.2272,1.2279,1.2279,1.2346,1.251,1.2543,1.2601,1.2733,1.2799,1.2799,1.2799,1.2799,1.2799,1.2799,1.2799,1.2931,2.4252,2.4459,2.4459,2.3962,2.309,2.2215,2.1881,2.2038,2.2143,2.2214,2.231,2.2745,2.3266,2.3757,2.3977,2.427,2.4557,2.4533,2.424,2.3794,2.3577,2.3053,2.2342,2.2315,2.1874,2.1149,2.1065,2.06,1.9945,1.9636,1.9084,1.8245,1.7198,1.6394,1.5846,1.4745,1.3963,1.3394,1.1985,1.0996,1.0524,1.0199,0.9881,0.9644,0.9621,0.9585,0.9614,0.9614,0.9614,0.9621,0.97,0.9808,0.9886,1.0008,1.0123,1.0301,1.0342,1.0504,1.0891,1.1476,1.2037,1.2499,1.2988,1.363,1.4497,1.5361,1.6157,1.6904,1.7431,1.7925,1.8343,1.8644,1.8752,1.8451,1.7981,1.7442,1.6848,1.6224,1.5553,1.4933,1.4512,1.4239,1.3909,1.347,1.3165,1.3193,1.2939,1.2609,1.2338,1.2173,1.2041,1.2008,1.1909,1.1843,1.1817,1.185,1.185,1.1817,1.185,1.1883,1.1883,1.185,1.1883,1.2147,1.2173,1.2272,1.2503,1.2634,1.2667,1.2675,1.27,1.2799,1.2799,1.2799,1.2807,2.4347,2.4087,2.4069,2.3518,2.2582,2.1735,2.161,2.1934,2.1974,2.2422,2.3113,2.3417,2.4004,2.473,2.5012,2.5248,2.5477,2.5235,2.4941,2.4571,2.3832,2.361,2.3622,2.2784,2.2429,2.2403,2.1319,2.0628,2.0358,1.9323,1.8153,1.7075,1.6549,1.5732,1.4599,1.4066,1.3375,1.243,1.1673,1.1265,1.1203,1.0888,1.0573,1.0233,1.022,1.0195,1.0193,1.0227,1.0227,1.0233,1.0227,1.0254,1.0267,1.0281,1.0295,1.029,1.0405,1.069,1.1085,1.1219,1.1582,1.2248,1.2659,1.3071,1.3564,1.4455,1.5586,1.6613,1.7001,1.7421,1.7937,1.8098,1.813,1.8033,1.7721,1.7367,1.6894,1.6377,1.5719,1.4972,1.4535,1.4166,1.3611,1.3349,1.3169,1.2898,1.2576,1.2279,1.214,1.1743,1.1413,1.1413,1.1545,1.1743,1.1751,1.1784,1.1718,1.1751,1.1784,1.1718,1.1685,1.1718,1.1817,1.1784,1.1843,1.1876,1.1975,1.2107,1.2346,1.2477,1.2609,1.2799,1.2799,1.2799,1.2799,2.4547,2.4378,2.3871,2.3108,2.2225,2.1585,2.1414,2.1575,2.1694,2.2222,2.3095,2.3508,2.4377,2.5517,2.5672,2.6016,2.6607,2.6475,2.616,2.5688,2.536,2.4811,2.3968,2.3369,2.2797,2.2173,2.1391,2.0633,1.9807,1.8641,1.761,1.6912,1.6169,1.5381,1.4644,1.3679,1.3001,1.2588,1.1705,1.1258,1.1164,1.0749,1.0435,1.0308,1.0308,1.0308,1.0308,1.0308,1.0308,1.0308,1.0308,1.0349,1.0399,1.0405,1.0446,1.0534,1.0588,1.0689,1.0883,1.1082,1.1347,1.1644,1.2173,1.2634,1.3038,1.3663,1.4506,1.5606,1.6483,1.713,1.7389,1.7744,1.784,1.7486,1.726,1.6915,1.6169,1.5681,1.516,1.4637,1.4146,1.3761,1.34,1.3005,1.2741,1.247,1.2213,1.1942,1.1677,1.138,1.1148,1.0982,1.1049,1.1115,1.1181,1.1148,1.1148,1.1155,1.1148,1.1148,1.1181,1.1148,1.1181,1.1387,1.1446,1.1545,1.1817,1.1876,1.2048,1.2246,1.2543,1.2799,1.2799,1.2799,1.2799,2.4278,2.4021,2.3074,2.2157,2.1422,2.1085,2.0998,2.1152,2.1388,2.2044,2.2939,2.3535,2.4584,2.5754,2.6073,2.6602,2.7183,2.7224,2.6958,2.6454,2.6202,2.5426,2.4325,2.3769,2.2957,2.1953,2.1383,2.0423,1.9187,1.8124,1.7271,1.6704,1.585,1.5092,1.4406,1.3378,1.2796,1.2383,1.1644,1.1231,1.1028,1.0637,1.0405,1.0405,1.0399,1.0405,1.0399,1.0405,1.0399,1.0437,1.0399,1.0446,1.0548,1.0555,1.0602,1.0704,1.0717,1.0717,1.0717,1.0916,1.1115,1.1214,1.171,1.218,1.2609,1.3005,1.3597,1.4408,1.5574,1.6321,1.6775,1.7163,1.7195,1.6785,1.671,1.6331,1.5495,1.5071,1.4735,1.4179,1.3728,1.3301,1.3071,1.2642,1.2312,1.218,1.185,1.1545,1.1247,1.1115,1.0949,1.075,1.0717,1.0717,1.0717,1.075,1.0717,1.0717,1.075,1.0784,1.0717,1.0717,1.0717,1.1049,1.1056,1.1115,1.1314,1.1479,1.181,1.2173,1.247,1.27,1.2799,1.2799,1.2799,2.3204,2.2611,2.1312,2.0496,1.9989,1.9998,2.0226,2.0656,2.1095,2.1855,2.2772,2.3634,2.4555,2.5483,2.6291,2.6828,2.7015,2.703,2.6861,2.6494,2.5651,2.5117,2.499,2.396,2.3026,2.214,2.112,1.9828,1.8306,1.7814,1.7141,1.6074,1.5581,1.4726,1.3618,1.3269,1.271,1.1733,1.1509,1.125,1.0818,1.0711,1.0657,1.0657,1.0664,1.0677,1.065,1.0664,1.069,1.069,1.0683,1.0664,1.0704,1.0704,1.0677,1.0717,1.0717,1.0717,1.0717,1.0717,1.085,1.1115,1.128,1.1578,1.2206,1.2609,1.3038,1.3433,1.4211,1.4996,1.5811,1.6104,1.6136,1.6071,1.6039,1.5649,1.4996,1.48,1.4408,1.3728,1.34,1.3038,1.2444,1.2305,1.2081,1.1817,1.1479,1.1214,1.1148,1.0916,1.0784,1.0717,1.0717,1.0717,1.0717,1.0717,1.0717,1.0717,1.0717,1.0717,1.0717,1.0717,1.0717,1.075,1.0784,1.0817,1.0817,1.1082,1.1545,1.1909,1.2246,1.2444,1.2634,1.2766,1.2799,2.2246,2.123,2.0388,1.9765,1.932,1.932,1.9587,2.013,2.0565,2.1495,2.2654,2.3314,2.428,2.5473,2.6115,2.6603,2.688,2.6896,2.6742,2.6444,2.5801,2.5069,2.4191,2.3235,2.2323,2.1437,2.0326,1.896,1.7446,1.6678,1.5953,1.5273,1.4489,1.3779,1.3265,1.2612,1.2025,1.1639,1.1426,1.1193,1.1023,1.088,1.0833,1.0826,1.0738,1.0717,1.0717,1.0717,1.0717,1.0717,1.0717,1.0717,1.0717,1.0717,1.0717,1.0717,1.0717,1.0717,1.0717,1.0717,1.075,1.0883,1.1082,1.128,1.1644,1.2107,1.2642,1.3005,1.3433,1.4048,1.4572,1.5029,1.529,1.5257,1.5094,1.4833,1.4342,1.408,1.3794,1.34,1.3038,1.251,1.2114,1.1776,1.1545,1.1413,1.1115,1.0916,1.0883,1.075,1.0717,1.0717,1.0717,1.0717,1.0717,1.0717,1.0717,1.0717,1.0717,1.0717,1.0717,1.0717,1.0717,1.0717,1.0717,1.0717,1.0784,1.0949,1.138,1.1545,1.185,1.2279,1.2437,1.2634,1.2733,2.084,1.9617,1.9167,1.8725,1.8372,1.8499,1.886,1.9401,2.0166,2.1064,2.2004,2.2907,2.3886,2.4773,2.5481,2.5874,2.6185,2.6406,2.6398,2.5925,2.5234,2.4395,2.3457,2.2469,2.1501,2.0476,1.918,1.7851,1.6627,1.5882,1.5201,1.4544,1.3816,1.3295,1.2878,1.2223,1.181,1.1594,1.1372,1.1254,1.1193,1.107,1.0955,1.0907,1.0813,1.0765,1.0724,1.0717,1.0717,1.0717,1.0717,1.0717,1.0717,1.0717,1.0717,1.0717,1.0717,1.0717,1.0717,1.0717,1.0717,1.0717,1.0883,1.1049,1.1214,1.1685,1.2081,1.2444,1.2675,1.2997,1.3325,1.3687,1.408,1.4408,1.4375,1.4113,1.3752,1.3433,1.3137,1.284,1.2444,1.2015,1.1644,1.138,1.1181,1.1082,1.0817,1.0717,1.0717,1.0717,1.0717,1.0717,1.0717,1.0717,1.0717,1.0717,1.0717,1.0717,1.0717,1.0717,1.0717,1.0717,1.0717,1.0717,1.0717,1.0717,1.0784,1.0916,1.1049,1.1188,1.1619,1.2114,1.2338,1.2601,1.2716,1.8914,1.7808,1.7603,1.7408,1.7152,1.7515,1.7891,1.8595,1.9798,2.0502,2.1061,2.2447,2.3204,2.3618,2.4419,2.4796,2.4962,2.5557,2.5623,2.5047,2.3951,2.3163,2.2621,2.1622,2.0535,1.9423,1.7856,1.6663,1.5876,1.5542,1.4902,1.4066,1.3749,1.3164,1.2252,1.2144,1.1881,1.1529,1.1424,1.1363,1.122,1.1213,1.1111,1.0961,1.0928,1.0853,1.0751,1.0731,1.0717,1.0717,1.0717,1.0717,1.0717,1.0717,1.0717,1.0717,1.0717,1.0717,1.0717,1.0717,1.0717,1.0717,1.0717,1.085,1.1082,1.1247,1.1479,1.1776,1.1909,1.2041,1.2272,1.2239,1.2568,1.358,1.3744,1.3555,1.3334,1.3005,1.2536,1.2008,1.181,1.1652,1.1314,1.1148,1.1049,1.0817,1.075,1.0717,1.0717,1.0717,1.0717,1.0717,1.0717,1.0717,1.0717,1.0717,1.0717,1.0717,1.0717,1.0717,1.0717,1.0717,1.0717,1.0717,1.0717,1.0717,1.0717,1.0824,1.0917,1.1117,1.1567,1.1976,1.2288,1.2545,1.2765,1.819,1.7459,1.7127,1.6895,1.6856,1.7273,1.7782,1.8283,1.9067,1.9987,2.0951,2.1592,2.2368,2.3224,2.3734,2.3825,2.3825,2.3804,2.3925,2.4052,2.3118,2.2231,2.1564,2.0588,1.9233,1.7836,1.7152,1.6145,1.505,1.4717,1.4163,1.338,1.2928,1.2553,1.2208,1.1943,1.1693,1.1594,1.1545,1.1518,1.147,1.1369,1.1294,1.1246,1.1151,1.107,1.1016,1.0833,1.0724,1.0724,1.0717,1.0717,1.0717,1.0717,1.0717,1.0717,1.0717,1.0717,1.0717,1.0717,1.0724,1.0724,1.0724,1.075,1.085,1.1056,1.1247,1.1413,1.1611,1.1883,1.1916,1.1883,1.2107,1.27,1.2601,1.2503,1.2371,1.2213,1.1909,1.1512,1.138,1.1214,1.0982,1.0883,1.085,1.075,1.0717,1.0717,1.0717,1.0717,1.0717,1.0717,1.0717,1.0717,1.0717,1.0717,1.0717,1.0717,1.0717,1.0717,1.0717,1.0717,1.0717,1.0731,1.0724,1.0738,1.0738,1.0798,1.0913,1.1148,1.1553,1.1906,1.2244,1.2559,1.2884,1.7336,1.6829,1.654,1.64,1.64,1.6735,1.725,1.7896,1.8409,1.9294,2.0269,2.0779,2.1371,2.2202,2.2432,2.2524,2.2478,2.2017,2.2099,2.2518,2.1935,2.1102,2.0332,1.909,1.7809,1.6502,1.5996,1.524,1.4127,1.3887,1.3507,1.289,1.2524,1.2299,1.2147,1.1928,1.1762,1.1714,1.1665,1.1638,1.1613,1.1525,1.145,1.1389,1.1294,1.1254,1.1193,1.0975,1.086,1.0772,1.0718,1.0717,1.0717,1.0717,1.0717,1.0717,1.0717,1.0717,1.0717,1.0717,1.0718,1.0752,1.0772,1.0772,1.0806,1.1006,1.1052,1.1096,1.1214,1.1387,1.1387,1.138,1.1479,1.1677,1.1843,1.1718,1.1652,1.1585,1.142,1.1115,1.1016,1.0883,1.0784,1.0717,1.0717,1.0717,1.0717,1.0717,1.0717,1.0717,1.0717,1.0717,1.0717,1.0717,1.0717,1.0717,1.0717,1.0717,1.0717,1.0717,1.0717,1.0717,1.0717,1.0751,1.0765,1.0799,1.0813,1.0914,1.1029,1.1328,1.1602,1.2005,1.2392,1.2854,1.3164,1.6353,1.5892,1.5892,1.5845,1.5892,1.5938,1.6501,1.7297,1.7896,1.8456,1.907,1.9898,2.0362,2.0501,2.0955,2.1094,2.0908,2.0501,2.0251,2.0225,1.9924,1.9482,1.8819,1.7466,1.6351,1.5497,1.4805,1.413,1.3581,1.3357,1.2969,1.2627,1.2524,1.2419,1.2124,1.2091,1.2002,1.1864,1.1807,1.1746,1.1617,1.1633,1.1558,1.143,1.1409,1.1348,1.1281,1.1213,1.1097,1.0934,1.0813,1.0792,1.0725,1.0744,1.0778,1.0785,1.0751,1.0772,1.0758,1.0792,1.0799,1.0907,1.0928,1.0928,1.0928,1.0955,1.0948,1.0879,1.0838,1.0818,1.0818,1.079,1.0824,1.0824,1.128,1.1446,1.1214,1.1181,1.1049,1.0817,1.0717,1.0717,1.0717,1.0717,1.0717,1.0717,1.0717,1.0717,1.0717,1.0717,1.0717,1.0717,1.0717,1.0717,1.0717,1.0717,1.0717,1.0717,1.0724,1.0731,1.0744,1.0758,1.0772,1.0772,1.0867,1.0894,1.0941,1.107,1.1207,1.1469,1.1793,1.2145,1.2609,1.3107,1.335,1.5838,1.5415,1.5422,1.5368,1.5422,1.5751,1.6032,1.6407,1.7242,1.7896,1.8456,1.9023,1.948,1.9851,1.9944,1.9851,1.9471,1.9006,1.8502,1.8176,1.7763,1.744,1.7013,1.6144,1.5359,1.4891,1.4388,1.3941,1.3375,1.3108,1.279,1.2374,1.2316,1.2223,1.2098,1.2118,1.2084,1.2043,1.2036,1.1932,1.1766,1.1739,1.1701,1.1579,1.1558,1.1538,1.1484,1.1424,1.1295,1.1152,1.1077,1.1084,1.1029,1.1029,1.105,1.1057,1.1063,1.1043,1.107,1.1063,1.1063,1.1132,1.1111,1.1104,1.1104,1.1111,1.1084,1.1029,1.0962,1.0853,1.084,1.0759,1.0738,1.0717,1.0949,1.1016,1.0916,1.085,1.0784,1.0717,1.0717,1.0717,1.0717,1.0717,1.0717,1.0717,1.0717,1.0717,1.0717,1.0717,1.0717,1.0717,1.0717,1.0717,1.0717,1.0717,1.0717,1.0717,1.0731,1.0744,1.0752,1.0799,1.0833,1.0874,1.1029,1.1104,1.1145,1.1172,1.1393,1.1671,1.2098,1.2525,1.2951,1.3404,1.3499,1.5462,1.5181,1.5181,1.5181,1.5228,1.5469,1.5704,1.5985,1.6501,1.7055,1.7523,1.7849,1.8129,1.8409,1.8409,1.8269,1.7981,1.7701,1.7429,1.7087,1.6599,1.6324,1.6031,1.5335,1.4746,1.4424,1.3948,1.3478,1.3058,1.2828,1.2616,1.2442,1.2329,1.2288,1.2302,1.2244,1.2247,1.2169,1.2193,1.2088,1.1945,1.1925,1.1891,1.1803,1.1748,1.1651,1.1619,1.1531,1.1389,1.1254,1.1193,1.12,1.12,1.12,1.12,1.12,1.12,1.1193,1.12,1.12,1.1227,1.1274,1.1295,1.1295,1.1295,1.1295,1.1281,1.1186,1.1077,1.105,1.1016,1.0867,1.0765,1.0731,1.0717,1.0717,1.0717,1.0717,1.0717,1.0717,1.0717,1.0717,1.0717,1.0717,1.0717,1.0717,1.0717,1.0717,1.0717,1.0717,1.0731,1.0738,1.0704,1.0711,1.0785,1.0806,1.0833,1.0826,1.0894,1.088,1.0853,1.0914,1.0968,1.107,1.122,1.133,1.1364,1.1469,1.1755,1.208,1.2512,1.2874,1.3247,1.3547,1.3652,1.5181,1.5181,1.5181,1.5181,1.5181,1.5228,1.5469,1.5751,1.5938,1.6213,1.6634,1.6728,1.6962,1.6673,1.7055,1.6774,1.6681,1.6728,1.6587,1.6356,1.5968,1.567,1.5607,1.493,1.4408,1.4054,1.3349,1.3049,1.2852,1.2642,1.2515,1.2481,1.2474,1.2488,1.2447,1.2474,1.2427,1.2332,1.2311,1.2237,1.2115,1.2118,1.2091,1.2036,1.1911,1.1809,1.1721,1.1611,1.1525,1.1288,1.1254,1.1274,1.1268,1.1254,1.1261,1.1274,1.1295,1.1288,1.1261,1.1295,1.128,1.1389,1.1416,1.1416,1.1416,1.1416,1.1375,1.1315,1.124,1.1213,1.1166,1.1036,1.088,1.0772,1.0725,1.0744,1.0724,1.0717,1.0717,1.0717,1.0717,1.0717,1.0717,1.0717,1.0717,1.0717,1.0717,1.0717,1.0717,1.0717,1.0718,1.0752,1.0752,1.0738,1.0799,1.09,1.0907,1.0941,1.1097,1.1124,1.1077,1.1118,1.1158,1.1268,1.1475,1.1572,1.1628,1.1803,1.2137,1.2473,1.2871,1.3143,1.3389,1.363,1.3795,1.5181,1.5181,1.5181,1.5181,1.5181,1.5181,1.5275,1.5368,1.5751,1.5938,1.6166,1.6494,1.6634,1.6673,1.6587,1.6494,1.6119,1.6072,1.5892,1.5488,1.531,1.5059,1.4903,1.4458,1.4155,1.3802,1.3398,1.3098,1.2948,1.2759,1.2617,1.2522,1.2522,1.2501,1.2501,1.2501,1.2494,1.2454,1.2447,1.2372,1.2271,1.2275,1.2227,1.2125,1.207,1.2036,1.1952,1.185,1.1719,1.1644,1.1586,1.1518,1.1491,1.1491,1.1491,1.1484,1.1497,1.1504,1.1511,1.1497,1.1525,1.1545,1.1552,1.1572,1.1572,1.1558,1.1552,1.1497,1.1416,1.1336,1.1227,1.1179,1.105,1.0907,1.0853,1.0813,1.0751,1.0724,1.0717,1.0717,1.0717,1.0717,1.0717,1.0717,1.0717,1.0717,1.0717,1.0717,1.0731,1.0744,1.0772,1.084,1.0867,1.0907,1.0975,1.105,1.1118,1.113,1.1274,1.144,1.1399,1.135,1.1468,1.1607,1.1761,1.1874,1.1945,1.233,1.2666,1.2968,1.3182,1.3396,1.3611,1.3833,1.4011,1.5181,1.5181,1.5181,1.5181,1.5181,1.5181,1.5181,1.5228,1.5462,1.5563,1.5603,1.5884,1.5978,1.6025,1.5978,1.5791,1.565,1.5556,1.5462,1.5261,1.5139,1.495,1.4681,1.4428,1.4143,1.3795,1.3464,1.3214,1.3057,1.2908,1.2759,1.2617,1.261,1.2562,1.2508,1.2508,1.2501,1.2494,1.2501,1.2461,1.24,1.2386,1.2318,1.2241,1.22,1.2179,1.2084,1.2023,1.1945,1.1918,1.1864,1.1748,1.1604,1.1584,1.1584,1.1584,1.1584,1.1584,1.1577,1.1584,1.1577,1.1584,1.1584,1.1584,1.1584,1.1584,1.1584,1.157,1.1538,1.1436,1.1294,1.1274,1.1199,1.1077,1.0955,1.088,1.0806,1.0732,1.0717,1.0717,1.0717,1.0717,1.0717,1.0717,1.0717,1.0717,1.0698,1.0704,1.0813,1.0833,1.0901,1.0961,1.1036,1.107,1.1166,1.1247,1.1307,1.1375,1.1457,1.1668,1.1796,1.1768,1.1782,1.1966,1.2094,1.2251,1.2409,1.2789,1.3075,1.3218,1.3404,1.3654,1.3868,1.4082,1.4225,1.5181,1.5181,1.5181,1.5181,1.5181,1.5181,1.5181,1.5181,1.5181,1.5275,1.5228,1.5181,1.5321,1.5228,1.5275,1.5228,1.5228,1.5228,1.5228,1.5221,1.5167,1.4991,1.4714,1.4518,1.4299,1.3842,1.3573,1.3356,1.3214,1.3091,1.2915,1.2786,1.2766,1.2691,1.2576,1.2542,1.2535,1.2508,1.2501,1.2501,1.2488,1.2481,1.242,1.2352,1.2318,1.2315,1.2227,1.2159,1.2139,1.2132,1.2111,1.1962,1.1762,1.1617,1.159,1.159,1.1584,1.1584,1.1584,1.1584,1.1584,1.1584,1.1584,1.1584,1.1584,1.1584,1.1584,1.1584,1.1586,1.1552,1.1443,1.1423,1.1348,1.1226,1.1084,1.0982,1.0921,1.0813,1.0745,1.0717,1.0717,1.0717,1.0717,1.0717,1.0717,1.0724,1.0711,1.0759,1.0867,1.0968,1.1036,1.1145,1.1185,1.1267,1.1335,1.1383,1.145,1.1526,1.1586,1.1836,1.2058,1.2044,1.203,1.2266,1.2431,1.2617,1.2832,1.3182,1.3361,1.3432,1.369,1.4011,1.4189,1.4368,1.451,1.5181,1.5181,1.5181,1.5181,1.5181,1.5181,1.5181,1.5181,1.5181,1.5181,1.5181,1.5181,1.5181,1.5181,1.5181,1.5181,1.5181,1.5181,1.5181,1.5181,1.5174,1.5025,1.4755,1.4647,1.4397,1.4068,1.3743,1.3478,1.3254,1.318,1.3098,1.2989,1.2962,1.284,1.2732,1.2645,1.263,1.2549,1.2528,1.2522,1.2501,1.2494,1.2488,1.244,1.244,1.2427,1.2393,1.2311,1.2257,1.2244,1.2166,1.2084,1.2002,1.187,1.1732,1.1644,1.166,1.1674,1.1674,1.1647,1.1626,1.1584,1.1611,1.164,1.164,1.159,1.1597,1.1584,1.1584,1.1599,1.1586,1.1558,1.1497,1.1389,1.1307,1.1246,1.1131,1.1002,1.084,1.0799,1.0765,1.0724,1.0724,1.0711,1.0738,1.0812,1.0867,1.0887,1.0982,1.1083,1.1199,1.1274,1.1348,1.1443,1.1538,1.1538,1.1572,1.1594,1.1678,1.1929,1.2079,1.2151,1.2302,1.2689,1.2904,1.3039,1.3289,1.3539,1.3726,1.3797,1.4082,1.4368,1.4546,1.4688,1.5008,1.5181,1.5181,1.5181,1.5181,1.5181,1.5181,1.5181,1.5181,1.5181,1.5181,1.5181,1.5181,1.5181,1.5181,1.5181,1.5181,1.5181,1.5181,1.5181,1.5181,1.5167,1.5079,1.4855,1.4735,1.4523,1.4217,1.3953,1.3695,1.3424,1.3329,1.3254,1.3146,1.3111,1.2996,1.2881,1.2847,1.2759,1.2657,1.2617,1.2583,1.2515,1.2508,1.2508,1.2508,1.2508,1.2501,1.2488,1.2447,1.24,1.2386,1.237,1.2295,1.2182,1.2108,1.1999,1.1884,1.1843,1.1843,1.1843,1.185,1.1894,1.1857,1.1843,1.185,1.1823,1.1789,1.1708,1.1604,1.1584,1.1584,1.1577,1.1584,1.1579,1.1518,1.145,1.1369,1.1274,1.1145,1.1036,1.0921,1.0826,1.0772,1.0704,1.0738,1.0792,1.086,1.0975,1.1056,1.1103,1.1233,1.1335,1.1409,1.1477,1.1518,1.1563,1.157,1.1584,1.1619,1.1799,1.2051,1.233,1.251,1.2904,1.3333,1.3468,1.3396,1.3575,1.3797,1.3975,1.4154,1.4368,1.4581,1.4795,1.5044,1.5363,1.5181,1.5181,1.5181,1.5181,1.5181,1.5181,1.5181,1.5181,1.5181,1.5181,1.5181,1.5181,1.5181,1.5181,1.5181,1.5181,1.5181,1.5181,1.5181,1.5181,1.5181,1.5153,1.4964,1.4801,1.4552,1.4353,1.4116,1.3919,1.3627,1.3498,1.337,1.3261,1.3214,1.3146,1.3071,1.3037,1.2901,1.282,1.2773,1.2705,1.2623,1.2596,1.2589,1.2589,1.2596,1.2596,1.2569,1.2556,1.2522,1.2501,1.2474,1.244,1.2352,1.2332,1.2277,1.2207,1.2139,1.2104,1.2091,1.2077,1.205,1.205,1.2084,1.2091,1.2064,1.1918,1.1823,1.1665,1.1631,1.1611,1.1626,1.1584,1.1613,1.1556,1.1511,1.143,1.1402,1.1321,1.1261,1.1097,1.0928,1.088,1.09,1.09,1.0975,1.1029,1.1118,1.1199,1.128,1.1375,1.147,1.1538,1.155,1.155,1.1577,1.1577,1.1584,1.1619,1.1907,1.223,1.2617,1.2968,1.3361,1.3654,1.3646,1.3611,1.3797,1.4011,1.4189,1.4368,1.4581,1.483,1.5115,1.5434,1.5789,1.5181,1.5181,1.5181,1.5181,1.5181,1.5181,1.5181,1.5181,1.5181,1.5181,1.5181,1.5181,1.5181,1.5181,1.5181,1.5181,1.5181,1.5181,1.5181,1.5181,1.5174,1.516,1.4977,1.4814,1.4633,1.4475,1.4224,1.3919,1.3715,1.3627,1.3512,1.3383,1.3336,1.3302,1.3166,1.3193,1.3071,1.2963,1.2929,1.2948,1.2928,1.2921,1.2914,1.2921,1.2907,1.286,1.2712,1.2684,1.2637,1.2528,1.2508,1.2494,1.2481,1.2481,1.2474,1.2379,1.2275,1.2098,1.2132,1.2145,1.2152,1.2159,1.2139,1.2104,1.2111,1.2098,1.1972,1.1786,1.1773,1.1719,1.1674,1.1633,1.1619,1.1577,1.155,1.1565,1.1552,1.1463,1.1375,1.1335,1.1192,1.1145,1.1138,1.1166,1.1172,1.1227,1.1288,1.1341,1.1416,1.1497,1.1545,1.1556,1.1584,1.1584,1.1584,1.1584,1.1584,1.1584,1.2015,1.2409,1.276,1.3111,1.3468,1.3682,1.3682,1.3789,1.3975,1.4189,1.4368,1.4617,1.4901,1.5186,1.5496,1.5851,1.6204,1.5181,1.5181,1.5181,1.5181,1.5181,1.5181,1.5181,1.5181,1.5181,1.5181,1.5181,1.5181,1.5181,1.5181,1.5181,1.5181,1.5181,1.5181,1.5181,1.5181,1.5174,1.5194,1.5079,1.4943,1.4787,1.4611,1.4414,1.4183,1.3933,1.3695,1.3553,1.3431,1.3397,1.3376,1.3288,1.3302,1.3214,1.3146,1.305,1.3003,1.3003,1.3003,1.3003,1.3003,1.3009,1.2969,1.2868,1.272,1.2672,1.2578,1.2562,1.2501,1.2501,1.2501,1.2494,1.2488,1.2393,1.2325,1.2318,1.2305,1.2291,1.2343,1.2298,1.2291,1.2261,1.222,1.2166,1.1979,1.1965,1.1891,1.1739,1.1705,1.1681,1.1653,1.1617,1.1633,1.1626,1.155,1.1482,1.1491,1.1457,1.1396,1.1341,1.1314,1.1301,1.1321,1.1389,1.1477,1.1525,1.1565,1.1556,1.157,1.1584,1.1584,1.1584,1.1584,1.1584,1.1727,1.2295,1.2617,1.286,1.3182,1.3575,1.3753,1.3789,1.394,1.4154,1.4368,1.4546,1.4866,1.5212,1.5532,1.5851,1.624,1.6664,1.5181,1.5181,1.5181,1.5181,1.5181,1.5181,1.5181,1.5181,1.5181,1.5181,1.5181,1.5181,1.5181,1.5181,1.5181,1.5181,1.5181,1.5181,1.5181,1.5181,1.5181,1.5181,1.512,1.5071,1.4882,1.4687,1.455,1.4312,1.4068,1.3865,1.3675,1.3464,1.3417,1.3397,1.3397,1.3376,1.3322,1.3241,1.3146,1.3146,1.3132,1.3132,1.3125,1.3125,1.3064,1.3091,1.3043,1.2922,1.2854,1.2659,1.2591,1.2562,1.2515,1.2501,1.2501,1.2501,1.2461,1.2461,1.2461,1.2461,1.2501,1.2501,1.2494,1.2427,1.2366,1.2338,1.2284,1.2135,1.2159,1.204,1.1932,1.1884,1.1857,1.1782,1.1721,1.1694,1.166,1.1626,1.1563,1.1529,1.1552,1.1572,1.1518,1.1477,1.1463,1.147,1.1531,1.157,1.1584,1.1584,1.1584,1.1584,1.1584,1.1584,1.1584,1.1584,1.1584,1.1763,1.233,1.2717,1.2896,1.3289,1.3753,1.3868,1.3904,1.4082,1.4261,1.4474,1.4724,1.515,1.5532,1.5895,1.6249,1.6628,1.7052,1.5181,1.5181,1.5181,1.5181,1.5181,1.5181,1.5181,1.5181,1.5181,1.5181,1.5181,1.5181,1.5181,1.5181,1.5181,1.5181,1.5181,1.5181,1.5181,1.5181,1.5181,1.5181,1.5187,1.5091,1.4909,1.476,1.4618,1.4387,1.418,1.4084,1.3838,1.3599,1.3512,1.3437,1.3397,1.3397,1.339,1.3349,1.3308,1.3322,1.3322,1.3329,1.3329,1.3336,1.3342,1.3308,1.3207,1.3112,1.301,1.2753,1.2739,1.2644,1.2569,1.2542,1.2542,1.2508,1.2501,1.2501,1.2501,1.2501,1.2501,1.2501,1.2501,1.2494,1.2454,1.2474,1.2406,1.2298,1.2271,1.2196,1.2101,1.2077,1.202,1.1945,1.1864,1.183,1.1782,1.1687,1.1653,1.159,1.1584,1.1584,1.1584,1.1558,1.1545,1.1545,1.1545,1.1584,1.1584,1.1584,1.1584,1.1584,1.1584,1.1584,1.1584,1.1584,1.1584,1.1799,1.2223,1.2545,1.2824,1.3289,1.3753,1.3904,1.3904,1.4154,1.4412,1.4661,1.4972,1.5434,1.5851,1.6275,1.6734,1.7157,1.7545,1.5181,1.5181,1.5181,1.5181,1.5181,1.5181,1.5181,1.5181,1.5181,1.5181,1.5181,1.5181,1.5181,1.5181,1.5181,1.5181,1.5181,1.5181,1.5181,1.5181,1.5181,1.5181,1.52,1.516,1.5031,1.4875,1.4719,1.4557,1.4367,1.4234,1.4091,1.3865,1.3661,1.3498,1.3437,1.3403,1.3397,1.3397,1.3397,1.3397,1.3397,1.3397,1.3397,1.3397,1.3397,1.3376,1.3302,1.3214,1.3112,1.301,1.2915,1.2793,1.2664,1.2605,1.2551,1.2522,1.2508,1.2501,1.2501,1.2501,1.2501,1.2501,1.2501,1.2501,1.2501,1.2501,1.2481,1.2433,1.2406,1.2332,1.2237,1.2196,1.2169,1.2118,1.2064,1.1986,1.1918,1.1823,1.1762,1.1762,1.1674,1.1584,1.1584,1.1577,1.157,1.157,1.1577,1.1584,1.1584,1.1584,1.1584,1.1584,1.1584,1.1584,1.1584,1.1584,1.1584,1.1835,1.2086,1.2366,1.2689,1.3111,1.3503,1.3682,1.3975,1.4225,1.451,1.4839,1.5195,1.5612,1.6169,1.6734,1.7193,1.7685,1.8002,1.5092,1.5059,1.5146,1.5147,1.5181,1.5181,1.5181,1.5181,1.5181,1.5181,1.5181,1.5181,1.5181,1.5181,1.5181,1.5181,1.5181,1.5181,1.5181,1.5181,1.5181,1.5181,1.5181,1.5153,1.5086,1.5017,1.4869,1.4713,1.4475,1.4292,1.4156,1.4021,1.3871,1.3688,1.3498,1.3424,1.3403,1.3397,1.3397,1.3397,1.3397,1.3397,1.3397,1.3397,1.3397,1.3397,1.337,1.3302,1.3227,1.3146,1.3098,1.2949,1.284,1.2745,1.2638,1.2596,1.2528,1.2508,1.2501,1.2501,1.2501,1.2501,1.2501,1.2501,1.2501,1.2501,1.2488,1.2494,1.2488,1.2461,1.2345,1.2345,1.2332,1.2302,1.2213,1.2121,1.2074,1.2036,1.1945,1.1898,1.1796,1.1658,1.1631,1.1631,1.1584,1.1584,1.1584,1.1584,1.1584,1.1584,1.1584,1.1584,1.1584,1.1584,1.1584,1.1584,1.1619,1.1727,1.1979,1.2266,1.2581,1.2968,1.3289,1.3503,1.3833,1.4261,1.4617,1.4946,1.5328,1.5718,1.6381,1.7122,1.758,1.8037,1.8422,1.4889,1.4728,1.4916,1.5052,1.516,1.5181,1.5181,1.5181,1.5181,1.5181,1.5181,1.5181,1.5181,1.5181,1.5181,1.5181,1.5181,1.5181,1.5181,1.5181,1.5181,1.5181,1.5181,1.516,1.5126,1.5051,1.4962,1.478,1.4536,1.4455,1.4312,1.4193,1.4014,1.3858,1.3627,1.3478,1.341,1.3397,1.3397,1.3397,1.3397,1.3397,1.3397,1.3397,1.3397,1.3397,1.3383,1.3376,1.3302,1.322,1.32,1.3098,1.3009,1.2847,1.2726,1.2665,1.2583,1.2522,1.2501,1.2501,1.2501,1.2501,1.2501,1.2501,1.2501,1.2501,1.2501,1.2501,1.2501,1.2501,1.2488,1.2481,1.2454,1.2413,1.2318,1.2277,1.223,1.2193,1.2088,1.207,1.1925,1.1786,1.1739,1.1692,1.1617,1.159,1.1584,1.1584,1.1584,1.1584,1.1584,1.1584,1.1584,1.1584,1.1584,1.1584,1.1619,1.1691,1.1835,1.2086,1.2438,1.2832,1.3111,1.3325,1.3726,1.4189,1.4617,1.5052,1.5753,1.6497,1.684,1.7439,1.7931,1.8387,1.8773,1.4741,1.4701,1.4748,1.4903,1.5091,1.5194,1.5181,1.5181,1.5181,1.5181,1.5181,1.5181,1.5181,1.5181,1.5181,1.5181,1.5181,1.5181,1.5181,1.5181,1.5181,1.5181,1.5181,1.5174,1.5153,1.5099,1.5025,1.4889,1.4626,1.4539,1.4421,1.4251,1.4153,1.3912,1.3653,1.3553,1.3519,1.3417,1.3397,1.3397,1.3403,1.341,1.341,1.341,1.341,1.3397,1.3397,1.3397,1.3363,1.3315,1.3302,1.3241,1.3166,1.301,1.2922,1.276,1.2657,1.2603,1.2542,1.2501,1.2501,1.2515,1.2515,1.2522,1.2508,1.2501,1.2501,1.2508,1.2528,1.2522,1.2494,1.2494,1.2481,1.2481,1.2433,1.2433,1.2386,1.2284,1.221,1.2207,1.2088,1.1938,1.1813,1.1823,1.1755,1.1638,1.1624,1.159,1.1584,1.1584,1.1584,1.1584,1.1584,1.1584,1.1584,1.1584,1.1584,1.1655,1.1727,1.1871,1.2259,1.2653,1.2968,1.3218,1.3654,1.4118,1.4795,1.5541,1.6603,1.7344,1.7667,1.8033,1.8528,1.8843,1.9087,1.4586,1.4545,1.4593,1.4713,1.4835,1.5025,1.5133,1.5174,1.5181,1.5181,1.5181,1.5181,1.5181,1.5181,1.5181,1.5181,1.5181,1.5181,1.5181,1.5181,1.5181,1.5181,1.5181,1.5181,1.5174,1.5153,1.5092,1.4964,1.4821,1.462,1.4482,1.4312,1.4241,1.4041,1.3851,1.3743,1.3668,1.36,1.3593,1.3587,1.3566,1.3532,1.3485,1.3471,1.3444,1.3397,1.3397,1.3397,1.3397,1.3397,1.3383,1.3356,1.3268,1.3173,1.3085,1.2935,1.282,1.2766,1.2744,1.2684,1.2698,1.273,1.2623,1.2617,1.2644,1.2691,1.2691,1.2671,1.261,1.2589,1.2583,1.2576,1.2515,1.2515,1.2501,1.2494,1.2474,1.2366,1.2345,1.2343,1.2268,1.2081,1.1945,1.1911,1.1877,1.1782,1.1701,1.1638,1.1604,1.159,1.1584,1.1584,1.1584,1.1584,1.1584,1.1584,1.1584,1.1584,1.1655,1.1763,1.2015,1.2402,1.276,1.3146,1.3646,1.4225,1.5186,1.6072,1.7137,1.7941,1.8418,1.8752,1.9145,1.9377,1.9586,1.4428,1.4326,1.4448,1.4516,1.457,1.4862,1.5105,1.5174,1.5181,1.5181,1.5181,1.5181,1.5181,1.5181,1.5181,1.5181,1.5181,1.5181,1.5181,1.5181,1.5181,1.5181,1.5181,1.5181,1.5181,1.5181,1.5147,1.5059,1.4957,1.4733,1.4523,1.4373,1.4292,1.417,1.4041,1.3953,1.3808,1.3741,1.3707,1.3707,1.3687,1.3682,1.362,1.358,1.3505,1.3437,1.3417,1.3397,1.3397,1.3397,1.3397,1.3397,1.3349,1.3302,1.3207,1.3166,1.3057,1.2982,1.2948,1.2928,1.2962,1.2935,1.2827,1.2894,1.2907,1.2914,1.2894,1.2873,1.2793,1.2759,1.2699,1.2637,1.2542,1.2528,1.2515,1.2508,1.2501,1.2474,1.2474,1.2433,1.2359,1.2237,1.2145,1.2084,1.202,1.1911,1.1837,1.1809,1.1762,1.1633,1.1626,1.1584,1.1584,1.1584,1.1584,1.159,1.1584,1.1584,1.1584,1.1691,1.1936,1.2266,1.2653,1.3111,1.3611,1.4412,1.5685,1.6755,1.7699,1.8436,1.9206,1.9504,1.9873,1.9981,2.0145,1.4333,1.4306,1.4346,1.4421,1.455,1.4841,1.5098,1.5221,1.5181,1.5181,1.5181,1.5181,1.5181,1.5181,1.5181,1.5181,1.5181,1.5181,1.5181,1.5181,1.5181,1.5181,1.5181,1.5181,1.5181,1.5181,1.516,1.5113,1.4943,1.474,1.4584,1.4455,1.4346,1.4272,1.4224,1.4183,1.4034,1.3876,1.3842,1.3842,1.3829,1.3768,1.3693,1.3648,1.3545,1.3505,1.3424,1.3403,1.3397,1.3397,1.3397,1.3397,1.339,1.3349,1.3308,1.3207,1.3091,1.2996,1.3003,1.3003,1.305,1.3139,1.3057,1.2996,1.303,1.303,1.3037,1.303,1.2989,1.2908,1.2861,1.2766,1.2671,1.2617,1.2583,1.2535,1.2522,1.2501,1.2501,1.2488,1.2413,1.2372,1.2288,1.2261,1.2176,1.2098,1.2016,1.1952,1.1891,1.1769,1.1708,1.1701,1.1694,1.1714,1.166,1.1653,1.1597,1.1584,1.1653,1.1717,1.1926,1.2244,1.2632,1.3256,1.4073,1.5238,1.6477,1.7474,1.8363,1.9421,2.0192,2.0362,2.0566,2.071,2.0875,1.4299,1.4299,1.4299,1.438,1.4529,1.4713,1.4903,1.5126,1.5153,1.5181,1.5181,1.5181,1.5181,1.5181,1.5181,1.5181,1.5181,1.5181,1.5181,1.5181,1.5181,1.5181,1.5181,1.5181,1.5181,1.5181,1.5174,1.5147,1.4984,1.4767,1.4545,1.4489,1.4373,1.4312,1.4285,1.4258,1.4197,1.4095,1.3991,1.3977,1.395,1.391,1.3844,1.368,1.3632,1.3546,1.3424,1.3403,1.3397,1.3397,1.3397,1.3397,1.3397,1.339,1.3383,1.3302,1.322,1.3166,1.3166,1.3193,1.3234,1.3275,1.3254,1.322,1.3186,1.322,1.3214,1.3207,1.3139,1.3077,1.2983,1.2915,1.278,1.2693,1.2611,1.2537,1.2542,1.2508,1.2501,1.2501,1.2474,1.2447,1.2413,1.2386,1.2332,1.2216,1.2166,1.2088,1.2026,1.1932,1.1884,1.1914,1.1857,1.1843,1.1782,1.1755,1.1782,1.1809,1.1843,1.196,1.2044,1.2518,1.3137,1.3938,1.48,1.5985,1.7211,1.8099,1.9018,2.0089,2.1049,2.1352,2.1474,2.1498,2.1688,1.4299,1.4299,1.4299,1.4367,1.4489,1.4523,1.4679,1.4936,1.5059,1.516,1.5174,1.5181,1.5181,1.5181,1.5181,1.5181,1.5181,1.5181,1.5181,1.5181,1.5181,1.5181,1.5181,1.5181,1.5181,1.5181,1.5174,1.5167,1.5092,1.4875,1.4593,1.4523,1.4367,1.4299,1.4299,1.4299,1.4258,1.4231,1.4217,1.4217,1.4211,1.4143,1.4007,1.3795,1.3666,1.3538,1.3451,1.3397,1.3397,1.3397,1.3397,1.3397,1.3397,1.3397,1.339,1.3383,1.3342,1.3336,1.3322,1.3322,1.3342,1.337,1.3397,1.3363,1.3322,1.3308,1.3302,1.3288,1.3227,1.32,1.3152,1.3057,1.2956,1.2854,1.272,1.2632,1.2603,1.2556,1.2501,1.2501,1.2494,1.2474,1.2474,1.244,1.242,1.2332,1.2291,1.2244,1.2189,1.2108,1.2084,1.207,1.2016,1.1996,1.1996,1.1945,1.203,1.2057,1.2101,1.2229,1.2381,1.3015,1.3794,1.4653,1.5603,1.6727,1.7856,1.8753,1.9753,2.0885,2.1737,2.2227,2.2411,2.2433,2.2477,1.4299,1.4299,1.4299,1.4326,1.436,1.4468,1.455,1.4631,1.478,1.497,1.5147,1.5174,1.5181,1.5181,1.5181,1.5181,1.5181,1.5181,1.5181,1.5181,1.5181,1.5181,1.5181,1.5181,1.5181,1.5181,1.5181,1.5174,1.512,1.4916,1.4681,1.4606,1.4462,1.4319,1.4299,1.4299,1.4299,1.4299,1.4299,1.4299,1.4285,1.4238,1.4136,1.3889,1.372,1.3585,1.3498,1.3397,1.3397,1.3397,1.3397,1.3397,1.3397,1.3397,1.3397,1.3397,1.3397,1.3397,1.3397,1.3397,1.3397,1.3397,1.3397,1.3397,1.3397,1.3397,1.3397,1.3383,1.337,1.3349,1.3308,1.3193,1.3125,1.2976,1.2874,1.2779,1.2638,1.2589,1.2515,1.2501,1.2501,1.2501,1.2501,1.2494,1.2481,1.2467,1.2454,1.2427,1.2406,1.2338,1.2203,1.22,1.2118,1.2098,1.2132,1.2234,1.2313,1.2398,1.2459,1.2587,1.2797,1.3768,1.4786,1.5539,1.6453,1.7608,1.8595,1.9439,2.0461,2.1622,2.2386,2.288,2.3275,2.3382,2.3364,1.4299,1.4299,1.4299,1.4299,1.4312,1.4387,1.4455,1.4523,1.4604,1.4721,1.4977,1.5059,1.5166,1.5167,1.5181,1.5181,1.5181,1.5181,1.5181,1.5181,1.5181,1.5181,1.5181,1.5181,1.5181,1.5181,1.5181,1.5167,1.514,1.4984,1.4821,1.4674,1.4502,1.436,1.4319,1.4299,1.4299,1.4299,1.4299,1.4299,1.4299,1.4265,1.4143,1.3889,1.3754,1.3619,1.3505,1.3397,1.3397,1.3397,1.3397,1.3397,1.3397,1.3397,1.3397,1.3397,1.3397,1.3397,1.3397,1.3397,1.3397,1.3397,1.3397,1.3397,1.3397,1.3397,1.3397,1.339,1.339,1.337,1.337,1.3288,1.3241,1.3105,1.3024,1.2942,1.2759,1.2589,1.2535,1.2501,1.2501,1.2501,1.2501,1.2501,1.2494,1.2494,1.2494,1.2494,1.2501,1.2501,1.2386,1.2336,1.2299,1.2275,1.2343,1.2509,1.2654,1.2733,1.2865,1.34,1.3922,1.4926,1.585,1.6591,1.7421,1.8479,1.942,2.0277,2.114,2.2237,2.2955,2.35,2.3896,2.4156,2.4061,1.4476,1.4387,1.4343,1.4299,1.4299,1.4299,1.4373,1.4468,1.4489,1.4525,1.4726,1.4848,1.4997,1.5113,1.5153,1.5167,1.5174,1.5181,1.5181,1.5181,1.5181,1.5181,1.5181,1.5181,1.5181,1.5181,1.5181,1.5181,1.5174,1.5011,1.4869,1.474,1.459,1.4441,1.434,1.4299,1.4299,1.4299,1.4299,1.4299,1.4299,1.4285,1.4102,1.391,1.3774,1.3639,1.3498,1.3397,1.3397,1.3397,1.3397,1.3397,1.3397,1.3397,1.3397,1.3397,1.3397,1.3397,1.3397,1.3397,1.3397,1.3397,1.3397,1.3397,1.3397,1.3397,1.3397,1.3397,1.3397,1.3397,1.3397,1.3376,1.3295,1.3254,1.3186,1.3077,1.2813,1.2603,1.2549,1.2508,1.2501,1.2501,1.2501,1.2501,1.2501,1.2501,1.2501,1.2501,1.2501,1.2501,1.2447,1.2497,1.2546,1.2542,1.259,1.2793,1.3027,1.3302,1.3572,1.4298,1.5059,1.5899,1.6745,1.7597,1.8497,1.9409,2.0321,2.1181,2.2073,2.2856,2.3327,2.3822,2.4119,2.4341,2.4488,1.5219,1.4822,1.4476,1.4299,1.4299,1.4299,1.4312,1.434,1.4346,1.4421,1.4536,1.459,1.474,1.5057,1.5057,1.5098,1.5147,1.516,1.5174,1.5181,1.5181,1.5181,1.5181,1.5181,1.5181,1.5181,1.5181,1.5181,1.5174,1.5052,1.4896,1.4694,1.4597,1.4455,1.4326,1.4299,1.4299,1.4299,1.4299,1.4299,1.4292,1.4245,1.4109,1.3923,1.3795,1.3648,1.3485,1.341,1.3397,1.3397,1.3397,1.3397,1.3397,1.3397,1.3397,1.3397,1.3397,1.3397,1.3397,1.3397,1.3397,1.3397,1.3397,1.3397,1.3397,1.3397,1.3397,1.3397,1.3397,1.3397,1.3397,1.3397,1.3342,1.3268,1.3193,1.3017,1.2813,1.2651,1.2542,1.2522,1.2515,1.2508,1.2501,1.2501,1.2501,1.2501,1.2501,1.2501,1.2501,1.2501,1.2547,1.2663,1.2817,1.2926,1.2997,1.3182,1.3438,1.3768,1.4353,1.5344,1.6148,1.6768,1.7616,1.8557,1.9315,2.015,2.1086,2.1948,2.2545,2.3178,2.3637,2.4044,2.4304,2.4488,2.4562]},{"header":{"parameterUnit":"m.s-1","parameterCategory":1,"la1":31.0,"la2":29.5877,"lo1":-88.7671,"lo2":-86.6584,"dy":0.0162,"dx":0.0185,"nx":115,"ny":88,"refTime":"2023-11-01T12:00:00:Z","depth":0,"parameterNumber":3,"parameterNumberName":"V-component_of_WINDS"},"data":[0.0,0.0,0.0,0.0,0.0,0.0,0.0,0.0,0.0,0.0,0.0,0.0,0.0,0.0,0.0,0.0,0.0,0.0,0.0,0.0,0.0,0.0,0.0,0.0,0.0,0.0,0.0,0.0,0.0,0.0,0.0,0.0,0.0,0.0,0.0,0.0,0.0,0.0,0.0,0.0,0.0,0.0,0.0,0.0,0.0,0.0,0.0,0.0,0.0,0.0,0.0,0.0,0.0,0.0,0.0,0.0,0.0,0.0,0.0,0.0,0.0,0.0,0.0,0.0,0.0,0.0,0.0,0.0,0.0,0.0,0.0,0.0,0.0,0.0,0.0,0.0,0.0,0.0,0.0,0.0,0.0,0.0,0.0,0.0,0.0,0.0,0.0,0.0,0.0,0.0,0.0,0.0,0.0,0.0,0.0,0.0,0.0,0.0,0.0,0.0,0.0,0.0,0.0,0.0,0.0,0.0,0.0,0.0,0.0,0.0,0.0,0.0,0.0,0.0,0.0,0.0,0.0,0.0,0.0,0.0,0.0,0.0,0.0,0.0,0.0,0.0,0.0,0.0,0.0,0.0,0.0,0.0,0.0,0.0,0.0,0.0,0.0,0.0,0.0,0.0,0.0,0.0,0.0,0.0,0.0,0.0,0.0,0.0,0.0,0.0,0.0,0.0,0.0,0.0,0.0,0.0,0.0,0.0,0.0,0.0,0.0,0.0,0.0,0.0,0.0,0.0,0.0,0.0,0.0,0.0,0.0,0.0,0.0,0.0,0.0,0.0,0.0,0.0,0.0,0.0,0.0,0.0,0.0,0.0,0.0,0.0,0.0,0.0,0.0,0.0,0.0,0.0,0.0,0.0,0.0,0.0,0.0,0.0,0.0,0.0,0.0,0.0,0.0,0.0,0.0,0.0,0.0,0.0,0.0,0.0,0.0,0.0,0.0,0.0,0.0,0.0,0.0,0.0,0.0,0.0,0.0,0.0,0.0,0.0,0.0,0.0,0.0,0.0,0.0,0.0,0.0,0.0,0.0,0.0,0.0,0.0,0.0,0.0,0.0,0.0,0.0,0.0,0.0,0.0,0.0,0.0,0.0,0.0,0.0,0.0,0.0,0.0,0.0,0.0,0.0,0.0,0.0,0.0,0.0,0.0,0.0,0.0,0.0,0.0,0.0,0.0,0.0,0.0,0.0,0.0,0.0,0.0,0.0,0.0,0.0,0.0,0.0,0.0,0.0,0.0,0.0,0.0,0.0,0.0,0.0,0.0,0.0,0.0,0.0,0.0,0.0,0.0,0.0,0.0,0.0,0.0,0.0,0.0,0.0,0.0,0.0,0.0,0.0,0.0,0.0,0.0,0.0,0.0,0.0,0.0,0.0,0.0,0.0,0.0,0.0,0.0,0.0,0.0,0.0,0.0,0.0,0.0,0.0,0.0,0.0,0.0,0.0,0.0,0.0,0.0,0.0,0.0,0.0,0.0,0.0,0.0,0.0,0.0,0.0,0.0,0.0,0.0,0.0,0.0,0.0,0.0,0.0,0.0,0.0,0.0,0.0,0.0,0.0,0.0,0.0,0.0,0.0,0.0,0.0,0.0,0.0,0.0,0.0,0.0,0.0,0.0,0.0,0.0,0.0,0.0,0.0,0.0,0.0,0.0,0.0,0.0,0.0,0.0,0.0,0.0,0.0,0.0,0.0,0.0,0.0,0.0,0.0,0.0,0.0,0.0,0.0,0.0,0.0,0.0,0.0,0.0,0.0,0.0,0.0,0.0,0.0,0.0,0.0,0.0,0.0,0.0,0.0,0.0,0.0,0.0,0.0,0.0,0.0,0.0,0.0,0.0,0.0,0.0,0.0,0.0,0.0,0.0,0.0,0.0,0.0,0.0,0.0,0.0,0.0,0.0,0.0,0.0,0.0,0.0,0.0,0.0,0.0,0.0,0.0,0.0,0.0,0.0,0.0,0.0,0.0,0.0,0.0,0.0,0.0,0.0,0.0,0.0,0.0,0.0,0.0,0.0,0.0,0.0,0.0,0.0,0.0,0.0,0.0,0.0,0.0,0.0,0.0,0.0,0.0,0.0,0.0,0.0,0.0,0.0,0.0,0.0,0.0,0.0,0.0,0.0,0.0,0.0,0.0,0.0,0.0,0.0,0.0,0.0,0.0,0.0,0.0,0.0,0.0,0.0,0.0,0.0,0.0,0.0,0.0,0.0,0.0,0.0,0.0,0.0,0.0,0.0,0.0,0.0,0.0,0.0,0.0,0.0,0.0,0.0,0.0,0.0,0.0,0.0,0.0,0.0,0.0,0.0,0.0,0.0,0.0,0.0,0.0,0.0,0.0,0.0,0.0,0.0,0.0,0.0,0.0,0.0,0.0,0.0,0.0,0.0,0.0,0.0,0.0,0.0,0.0,0.0,0.0,0.0,0.0,0.0,0.0,0.0,0.0,0.0,0.0,0.0,0.0,0.0,0.0,0.0,0.0,0.0,0.0,0.0,0.0,0.0,0.0,0.0,0.0,0.0,0.0,0.0,0.0,0.0,0.0,0.0,0.0,0.0,0.0,0.0,0.0,0.0,0.0,0.0,0.0,0.0,0.0,0.0,0.0,0.0,0.0,0.0,0.0,0.0,0.0,0.0,0.0,0.0,0.0,0.0,0.0,0.0,0.0,0.0,0.0,0.0,0.0,0.0,0.0,0.0,0.0,0.0,0.0,0.0,0.0,0.0,0.0,0.0,0.0,0.0,0.0,0.0,0.0,0.0,0.0,0.0,0.0,0.0,0.0,0.0,0.0,0.0,0.0,0.0,0.0,0.0,0.0,0.0,0.0,0.0,0.0,0.0,0.0,0.0,0.0,0.0,0.0,0.0,0.0,0.0,0.0,0.0,0.0,0.0,0.0,0.0,0.0,0.0,0.0,0.0,0.0,0.0,0.0,0.0,0.0,0.0,0.0,0.0,0.0,0.0,0.0,0.0,0.0,0.0,0.0,0.0,0.0,0.0,0.0,0.0,0.0,0.0,0.0,0.0,0.0,0.0,0.0,0.0,0.0,0.0,0.0,0.0,0.0,0.0,0.0,0.0,0.0,0.0,0.0,0.0,0.0,0.0,0.0,0.0,0.0,0.0,0.0,0.0,0.0,0.0,0.0,0.0,0.0,0.0,0.0,0.0,0.0,0.0,0.0,0.0,0.0,0.0,0.0,0.0,0.0,0.0,0.0,0.0,0.0,0.0,0.0,0.0,0.0,0.0,0.0,0.0,0.0,0.0,0.0,0.0,0.0,0.0,0.0,0.0,0.0,0.0,0.0,0.0,0.0,0.0,0.0,0.0,0.0,0.0,0.0,0.0,0.0,0.0,0.0,0.0,0.0,0.0,0.0,0.0,0.0,0.0,0.0,0.0,0.0,0.0,0.0,0.0,0.0,0.0,0.0,0.0,0.0,0.0,0.0,0.0,0.0,0.0,0.0,0.0,0.0,0.0,0.0,0.0,0.0,0.0,0.0,0.0,0.0,0.0,0.0,0.0,0.0,0.0,0.0,0.0,0.0,0.0,0.0,0.0,0.0,0.0,0.0,0.0,0.0,0.0,0.0,0.0,0.0,0.0,0.0,0.0,0.0,0.0,0.0,0.0,0.0,0.0,0.0,0.0,0.0,0.0,0.0,0.0,0.0,0.0,0.0,0.0,0.0,0.0,0.0,0.0,0.0,0.0,0.0,0.0,0.0,0.0,0.0,0.0,0.0,0.0,0.0,0.0,0.0,0.0,0.0,0.0,0.0,0.0,0.0,0.0,0.0,0.0,0.0,0.0,0.0,0.0,0.0,0.0,0.0,0.0,0.0,0.0,0.0,0.0,0.0,0.0,0.0,0.0,0.0,0.0,0.0,0.0,0.0,0.0,0.0,0.0,0.0,0.0,0.0,0.0,0.0,0.0,0.0,0.0,0.0,0.0,0.0,0.0,0.0,0.0,0.0,0.0,0.0,0.0,0.0,0.0,0.0,0.0,0.0,0.0,0.0,0.0,0.0,0.0,0.0,0.0,0.0,0.0,0.0,0.0,0.0,0.0,0.0,0.0,0.0,0.0,0.0,0.0,0.0,0.0,0.0,0.0,0.0,0.0,0.0,0.0,0.0,0.0,0.0,0.0,0.0,0.0,0.0,0.0,0.0,0.0,0.0,0.0,0.0,0.0,0.0,0.0,0.0,0.0,0.0,0.0,0.0,0.0,0.0,0.0,0.0,0.0,0.0,0.0,0.0,0.0,0.0,0.0,0.0,0.0,3.4668,0.0,0.0,0.0,0.0,0.0,0.0,0.0,0.0,0.0,0.0,0.0,0.0,0.0,0.0,0.0,0.0,0.0,0.0,0.0,0.0,0.0,0.0,0.0,0.0,0.0,0.0,0.0,0.0,0.0,0.0,0.0,0.0,0.0,0.0,0.0,0.0,0.0,0.0,0.0,0.0,0.0,0.0,0.0,0.0,0.0,0.0,0.0,0.0,0.0,0.0,0.0,0.0,0.0,0.0,0.0,0.0,0.0,0.0,0.0,0.0,0.0,0.0,0.0,0.0,0.0,0.0,0.0,0.0,0.0,0.0,0.0,0.0,0.0,0.0,0.0,0.0,0.0,0.0,0.0,0.0,0.0,0.0,0.0,0.0,0.0,0.0,0.0,0.0,0.0,0.0,0.0,0.0,0.0,0.0,0.0,0.0,0.0,0.0,0.0,0.0,0.0,0.0,0.0,0.0,0.0,0.0,0.0,0.0,0.0,0.0,3.4209,3.4216,3.4341,3.4467,3.4577,0.0,0.0,0.0,0.0,0.0,0.0,0.0,0.0,0.0,0.0,0.0,0.0,0.0,0.0,0.0,0.0,0.0,0.0,0.0,0.0,0.0,0.0,0.0,0.0,0.0,0.0,0.0,0.0,0.0,0.0,0.0,0.0,0.0,0.0,0.0,0.0,0.0,0.0,0.0,0.0,0.0,0.0,0.0,0.0,0.0,0.0,0.0,0.0,0.0,0.0,0.0,0.0,0.0,0.0,0.0,0.0,0.0,0.0,0.0,0.0,0.0,0.0,0.0,0.0,0.0,0.0,0.0,0.0,0.0,0.0,0.0,0.0,0.0,0.0,0.0,0.0,0.0,0.0,0.0,0.0,0.0,0.0,0.0,0.0,0.0,0.0,0.0,0.0,0.0,0.0,0.0,0.0,0.0,0.0,0.0,0.0,0.0,0.0,0.0,0.0,0.0,0.0,0.0,0.0,0.0,0.0,0.0,0.0,0.0,0.0,0.0,0.0,3.4311,3.4461,3.4567,0.0,0.0,0.0,0.0,0.0,0.0,0.0,0.0,0.0,0.0,0.0,0.0,0.0,0.0,0.0,0.0,0.0,0.0,0.0,0.0,0.0,0.0,0.0,0.0,0.0,0.0,0.0,0.0,0.0,0.0,0.0,0.0,0.0,0.0,0.0,0.0,0.0,0.0,0.0,0.0,0.0,0.0,0.0,0.0,0.0,0.0,0.0,0.0,0.0,0.0,0.0,0.0,0.0,0.0,0.0,0.0,0.0,0.0,0.0,0.0,0.0,0.0,0.0,0.0,0.0,0.0,0.0,0.0,0.0,0.0,0.0,0.0,0.0,0.0,0.0,0.0,0.0,0.0,0.0,0.0,0.0,0.0,0.0,0.0,0.0,0.0,0.0,0.0,0.0,0.0,0.0,0.0,0.0,0.0,0.0,0.0,0.0,0.0,0.0,0.0,0.0,0.0,0.0,0.0,0.0,0.0,0.0,0.0,0.0,0.0,3.4148,3.4093,3.4274,0.0,3.4768,0.0,0.0,0.0,0.0,0.0,0.0,0.0,0.0,0.0,0.0,0.0,0.0,0.0,0.0,0.0,0.0,0.0,0.0,0.0,0.0,0.0,0.0,0.0,0.0,0.0,0.0,0.0,0.0,0.0,0.0,0.0,0.0,0.0,0.0,0.0,0.0,0.0,0.0,0.0,0.0,0.0,0.0,0.0,0.0,0.0,0.0,0.0,0.0,0.0,0.0,0.0,0.0,0.0,0.0,0.0,0.0,0.0,0.0,0.0,0.0,0.0,0.0,0.0,0.0,0.0,0.0,0.0,0.0,0.0,0.0,0.0,0.0,0.0,0.0,0.0,0.0,0.0,0.0,0.0,0.0,0.0,0.0,0.0,0.0,0.0,0.0,0.0,0.0,0.0,0.0,0.0,0.0,0.0,0.0,0.0,0.0,0.0,0.0,0.0,0.0,0.0,0.0,0.0,0.0,0.0,0.0,0.0,0.0,0.0,0.0,3.4185,3.4087,3.4274,3.4523,0.0,0.0,0.0,0.0,0.0,0.0,0.0,0.0,0.0,0.0,0.0,0.0,0.0,0.0,0.0,0.0,0.0,0.0,0.0,0.0,0.0,0.0,0.0,0.0,0.0,0.0,0.0,0.0,0.0,0.0,0.0,0.0,0.0,0.0,0.0,0.0,0.0,0.0,0.0,0.0,0.0,0.0,0.0,0.0,0.0,0.0,0.0,0.0,0.0,0.0,0.0,0.0,0.0,0.0,0.0,0.0,0.0,0.0,0.0,0.0,0.0,0.0,0.0,0.0,0.0,0.0,0.0,0.0,0.0,0.0,0.0,0.0,0.0,0.0,0.0,0.0,0.0,0.0,0.0,0.0,0.0,0.0,0.0,0.0,0.0,0.0,0.0,0.0,0.0,0.0,0.0,0.0,0.0,0.0,0.0,0.0,0.0,0.0,0.0,0.0,0.0,0.0,0.0,0.0,0.0,0.0,0.0,0.0,0.0,0.0,3.4191,3.4216,3.4172,3.4303,3.4523,3.4783,0.0,0.0,0.0,0.0,0.0,0.0,0.0,0.0,0.0,0.0,0.0,0.0,0.0,0.0,0.0,0.0,0.0,0.0,0.0,0.0,0.0,0.0,0.0,0.0,0.0,0.0,0.0,0.0,0.0,0.0,0.0,0.0,0.0,0.0,0.0,0.0,0.0,0.0,0.0,0.0,0.0,0.0,0.0,0.0,0.0,0.0,0.0,0.0,0.0,0.0,0.0,0.0,0.0,0.0,0.0,0.0,0.0,0.0,0.0,0.0,0.0,0.0,0.0,0.0,0.0,0.0,0.0,0.0,0.0,0.0,0.0,0.0,0.0,0.0,0.0,0.0,0.0,0.0,0.0,0.0,0.0,0.0,0.0,0.0,0.0,0.0,0.0,0.0,0.0,0.0,0.0,0.0,0.0,0.0,0.0,0.0,0.0,0.0,0.0,0.0,0.0,0.0,0.0,0.0,0.0,0.0,0.0,0.0,3.4222,3.4216,3.4282,3.435,3.4399,3.4523,0.0,0.0,0.0,0.0,0.0,0.0,0.0,0.0,0.0,0.0,0.0,0.0,0.0,0.0,0.0,0.0,0.0,0.0,0.0,0.0,0.0,0.0,0.0,0.0,0.0,0.0,0.0,0.0,0.0,0.0,0.0,0.0,0.0,0.0,0.0,0.0,0.0,0.0,0.0,0.0,0.0,0.0,0.0,0.0,0.0,0.0,0.0,0.0,0.0,0.0,0.0,0.0,0.0,0.0,0.0,0.0,0.0,0.0,0.0,0.0,0.0,0.0,0.0,0.0,0.0,0.0,0.0,0.0,0.0,0.0,0.0,0.0,0.0,0.0,0.0,0.0,0.0,0.0,0.0,0.0,0.0,0.0,0.0,0.0,0.0,0.0,0.0,0.0,0.0,0.0,0.0,0.0,0.0,0.0,0.0,0.0,0.0,0.0,0.0,0.0,0.0,0.0,0.0,0.0,0.0,0.0,0.0,0.0,0.0,3.4288,3.4203,3.4276,3.4404,3.441,3.4528,0.0,0.0,0.0,0.0,0.0,0.0,0.0,0.0,0.0,0.0,0.0,0.0,0.0,0.0,0.0,0.0,0.0,0.0,0.0,0.0,0.0,0.0,0.0,0.0,0.0,0.0,0.0,0.0,0.0,0.0,0.0,0.0,0.0,0.0,0.0,0.0,0.0,0.0,0.0,0.0,0.0,0.0,0.0,0.0,0.0,0.0,0.0,0.0,0.0,0.0,0.0,0.0,0.0,0.0,0.0,0.0,0.0,0.0,0.0,0.0,0.0,0.0,0.0,0.0,0.0,0.0,0.0,0.0,0.0,0.0,0.0,0.0,0.0,0.0,0.0,0.0,0.0,0.0,0.0,0.0,0.0,0.0,0.0,0.0,0.0,0.0,0.0,0.0,0.0,0.0,0.0,0.0,0.0,0.0,0.0,0.0,0.0,0.0,0.0,0.0,0.0,0.0,0.0,0.0,0.0,0.0,0.0,0.0,0.0,3.4352,0.0,3.4335,3.4433,3.4439,3.4539,0.0,0.0,0.0,0.0,0.0,0.0,0.0,0.0,0.0,0.0,0.0,0.0,0.0,0.0,0.0,0.0,0.0,0.0,0.0,0.0,0.0,0.0,0.0,0.0,0.0,0.0,0.0,0.0,0.0,0.0,0.0,0.0,0.0,0.0,0.0,0.0,0.0,0.0,0.0,0.0,0.0,0.0,0.0,0.0,0.0,0.0,0.0,0.0,0.0,0.0,0.0,0.0,0.0,0.0,0.0,0.0,0.0,0.0,0.0,0.0,0.0,0.0,0.0,0.0,0.0,0.0,0.0,0.0,0.0,0.0,0.0,0.0,0.0,0.0,0.0,0.0,0.0,0.0,0.0,0.0,0.0,0.0,0.0,0.0,0.0,0.0,0.0,0.0,0.0,0.0,0.0,0.0,0.0,0.0,0.0,0.0,0.0,0.0,0.0,0.0,0.0,0.0,0.0,0.0,0.0,0.0,0.0,0.0,3.4539,3.4416,3.4404,3.4433,3.4501,3.4501,3.4583,0.0,0.0,0.0,0.0,0.0,0.0,0.0,0.0,0.0,0.0,0.0,0.0,0.0,0.0,0.0,0.0,0.0,0.0,0.0,0.0,0.0,0.0,0.0,0.0,0.0,0.0,0.0,0.0,0.0,0.0,0.0,0.0,0.0,0.0,0.0,0.0,0.0,0.0,0.0,0.0,0.0,0.0,0.0,0.0,0.0,0.0,0.0,0.0,0.0,0.0,0.0,0.0,0.0,0.0,0.0,0.0,0.0,0.0,0.0,0.0,0.0,0.0,0.0,0.0,0.0,0.0,0.0,0.0,0.0,0.0,0.0,0.0,0.0,0.0,0.0,0.0,0.0,0.0,0.0,0.0,0.0,0.0,0.0,0.0,0.0,0.0,0.0,0.0,0.0,0.0,0.0,0.0,0.0,0.0,0.0,0.0,0.0,0.0,0.0,0.0,0.0,0.0,0.0,0.0,0.0,0.0,0.0,0.0,0.0,3.4539,3.4456,3.4439,3.4501,3.4539,3.4626,0.0,0.0,0.0,0.0,0.0,0.0,0.0,0.0,0.0,0.0,0.0,0.0,0.0,0.0,0.0,0.0,0.0,0.0,0.0,0.0,0.0,0.0,0.0,0.0,0.0,0.0,0.0,0.0,0.0,0.0,0.0,0.0,0.0,0.0,0.0,0.0,0.0,0.0,0.0,0.0,0.0,0.0,0.0,0.0,0.0,0.0,0.0,0.0,0.0,0.0,0.0,0.0,0.0,0.0,0.0,0.0,0.0,0.0,0.0,0.0,0.0,0.0,0.0,0.0,0.0,0.0,0.0,0.0,0.0,0.0,0.0,0.0,0.0,0.0,0.0,0.0,0.0,0.0,0.0,0.0,0.0,0.0,0.0,0.0,0.0,0.0,0.0,0.0,0.0,0.0,0.0,0.0,0.0,0.0,0.0,0.0,0.0,0.0,0.0,0.0,0.0,0.0,0.0,0.0,0.0,0.0,0.0,0.0,0.0,3.4695,3.4561,3.4528,3.4567,3.4599,3.4684,3.4806,0.0,0.0,0.0,0.0,0.0,0.0,0.0,0.0,0.0,0.0,0.0,0.0,0.0,0.0,0.0,0.0,0.0,0.0,0.0,0.0,0.0,0.0,0.0,0.0,0.0,0.0,0.0,0.0,0.0,0.0,0.0,0.0,0.0,0.0,0.0,0.0,0.0,0.0,0.0,0.0,0.0,0.0,0.0,0.0,0.0,0.0,0.0,0.0,0.0,0.0,0.0,0.0,0.0,0.0,0.0,0.0,0.0,0.0,0.0,0.0,0.0,0.0,0.0,0.0,0.0,0.0,0.0,0.0,0.0,0.0,0.0,0.0,0.0,0.0,0.0,0.0,0.0,0.0,0.0,0.0,0.0,0.0,0.0,0.0,0.0,0.0,0.0,0.0,0.0,0.0,0.0,0.0,0.0,0.0,0.0,0.0,0.0,0.0,0.0,0.0,0.0,0.0,0.0,0.0,0.0,0.0,0.0,0.0,3.4788,3.4737,3.4706,3.4706,3.4716,3.4756,0.0,0.0,0.0,0.0,0.0,0.0,0.0,0.0,0.0,0.0,0.0,0.0,0.0,0.0,0.0,0.0,0.0,0.0,0.0,0.0,0.0,0.0,0.0,0.0,0.0,0.0,0.0,0.0,0.0,0.0,0.0,0.0,0.0,0.0,0.0,0.0,0.0,0.0,0.0,0.0,0.0,0.0,0.0,0.0,0.0,0.0,0.0,0.0,0.0,0.0,0.0,0.0,0.0,0.0,0.0,0.0,0.0,0.0,0.0,0.0,0.0,0.0,0.0,0.0,0.0,0.0,0.0,0.0,0.0,0.0,0.0,0.0,0.0,0.0,0.0,0.0,0.0,0.0,0.0,0.0,0.0,0.0,0.0,0.0,0.0,0.0,0.0,0.0,0.0,0.0,0.0,0.0,0.0,0.0,0.0,0.0,0.0,0.0,0.0,0.0,0.0,0.0,0.0,0.0,0.0,0.0,0.0,0.0,0.0,3.4737,3.4716,3.4706,3.4711,3.4752,3.4829,0.0,0.0,0.0,0.0,0.0,0.0,0.0,0.0,0.0,0.0,0.0,0.0,0.0,0.0,0.0,0.0,0.0,0.0,0.0,0.0,0.0,0.0,0.0,0.0,0.0,0.0,0.0,0.0,0.0,0.0,0.0,0.0,0.0,0.0,0.0,0.0,0.0,0.0,0.0,0.0,0.0,0.0,0.0,0.0,0.0,0.0,0.0,0.0,0.0,0.0,0.0,0.0,0.0,0.0,0.0,0.0,0.0,0.0,0.0,0.0,0.0,0.0,0.0,0.0,0.0,0.0,0.0,0.0,0.0,0.0,0.0,0.0,0.0,0.0,0.0,0.0,0.0,0.0,0.0,0.0,0.0,0.0,0.0,0.0,0.0,0.0,0.0,0.0,0.0,0.0,0.0,0.0,0.0,0.0,0.0,0.0,0.0,0.0,0.0,0.0,0.0,0.0,0.0,0.0,0.0,0.0,0.0,0.0,3.4766,3.4711,3.4652,3.47,3.4742,3.4798,3.4883,0.0,0.0,0.0,0.0,0.0,0.0,0.0,0.0,0.0,0.0,0.0,0.0,0.0,0.0,0.0,0.0,0.0,0.0,0.0,0.0,0.0,0.0,0.0,0.0,0.0,0.0,0.0,0.0,0.0,0.0,0.0,0.0,0.0,0.0,0.0,0.0,0.0,0.0,0.0,0.0,0.0,0.0,0.0,0.0,0.0,0.0,0.0,0.0,0.0,0.0,0.0,0.0,0.0,0.0,0.0,0.0,0.0,0.0,0.0,0.0,0.0,0.0,0.0,0.0,0.0,0.0,0.0,0.0,0.0,0.0,0.0,0.0,0.0,0.0,0.0,0.0,0.0,0.0,0.0,0.0,0.0,0.0,0.0,0.0,0.0,0.0,0.0,0.0,0.0,0.0,0.0,0.0,0.0,0.0,0.0,0.0,0.0,0.0,0.0,0.0,0.0,0.0,0.0,0.0,0.0,0.0,0.0,0.0,3.4663,3.4658,3.4642,3.4679,3.4788,3.4801,3.4903,0.0,0.0,0.0,0.0,0.0,0.0,0.0,0.0,0.0,0.0,0.0,0.0,0.0,0.0,0.0,0.0,0.0,0.0,0.0,0.0,0.0,0.0,0.0,0.0,0.0,0.0,0.0,0.0,0.0,0.0,0.0,0.0,0.0,0.0,0.0,0.0,0.0,0.0,0.0,0.0,0.0,0.0,0.0,0.0,0.0,0.0,0.0,0.0,0.0,0.0,0.0,0.0,0.0,0.0,0.0,0.0,0.0,0.0,0.0,0.0,0.0,0.0,0.0,0.0,0.0,0.0,0.0,0.0,0.0,0.0,0.0,0.0,0.0,0.0,0.0,0.0,0.0,0.0,0.0,0.0,0.0,0.0,0.0,0.0,0.0,0.0,0.0,0.0,0.0,0.0,0.0,0.0,0.0,0.0,0.0,0.0,0.0,0.0,0.0,0.0,0.0,0.0,0.0,0.0,0.0,0.0,0.0,0.0,3.4583,3.4539,3.4528,3.4594,3.4788,3.4806,3.4903,0.0,0.0,0.0,0.0,0.0,0.0,0.0,0.0,0.0,0.0,0.0,0.0,0.0,0.0,0.0,0.0,0.0,0.0,0.0,0.0,0.0,0.0,0.0,0.0,0.0,0.0,0.0,0.0,0.0,0.0,0.0,0.0,0.0,0.0,0.0,0.0,0.0,0.0,0.0,0.0,0.0,0.0,0.0,0.0,0.0,0.0,0.0,0.0,4.3506,0.0,0.0,0.0,0.0,0.0,0.0,0.0,0.0,0.0,0.0,0.0,0.0,0.0,0.0,0.0,0.0,0.0,0.0,0.0,0.0,0.0,0.0,0.0,0.0,0.0,0.0,0.0,0.0,0.0,0.0,0.0,0.0,0.0,0.0,0.0,0.0,0.0,0.0,0.0,0.0,0.0,0.0,0.0,0.0,0.0,0.0,0.0,0.0,0.0,0.0,0.0,0.0,0.0,0.0,0.0,0.0,0.0,0.0,0.0,3.4489,3.4456,3.4489,3.4572,3.4752,3.4816,3.4927,0.0,0.0,0.0,0.0,0.0,0.0,0.0,0.0,0.0,0.0,0.0,0.0,0.0,0.0,0.0,0.0,0.0,0.0,0.0,0.0,0.0,0.0,0.0,0.0,0.0,0.0,0.0,0.0,0.0,0.0,0.0,0.0,0.0,0.0,0.0,0.0,0.0,0.0,0.0,0.0,0.0,0.0,0.0,0.0,0.0,0.0,0.0,0.0,0.0,0.0,0.0,0.0,0.0,0.0,0.0,0.0,0.0,0.0,0.0,0.0,0.0,0.0,0.0,0.0,0.0,0.0,0.0,0.0,0.0,0.0,0.0,0.0,0.0,0.0,0.0,0.0,0.0,0.0,0.0,0.0,0.0,0.0,0.0,0.0,0.0,0.0,0.0,0.0,0.0,0.0,0.0,0.0,0.0,0.0,0.0,0.0,0.0,0.0,0.0,0.0,0.0,0.0,0.0,0.0,0.0,0.0,0.0,3.5198,3.4766,3.4766,3.483,3.4963,3.5087,3.5085,3.5135,3.5278,0.0,0.0,0.0,0.0,0.0,0.0,0.0,0.0,0.0,0.0,0.0,0.0,0.0,0.0,0.0,0.0,0.0,0.0,0.0,0.0,0.0,0.0,0.0,0.0,0.0,0.0,0.0,0.0,0.0,0.0,0.0,0.0,0.0,0.0,0.0,0.0,0.0,0.0,4.268,4.3319,0.0,0.0,0.0,0.0,0.0,0.0,0.0,0.0,4.4883,0.0,0.0,0.0,0.0,0.0,0.0,0.0,0.0,0.0,0.0,0.0,0.0,0.0,0.0,0.0,0.0,0.0,0.0,0.0,0.0,0.0,0.0,0.0,0.0,0.0,0.0,0.0,0.0,0.0,0.0,0.0,0.0,0.0,0.0,0.0,0.0,0.0,0.0,0.0,0.0,0.0,0.0,0.0,0.0,0.0,0.0,0.0,0.0,0.0,0.0,0.0,0.0,0.0,0.0,0.0,0.0,3.6823,3.6553,3.641,3.6416,3.6478,3.6598,3.6776,3.6211,3.5964,3.6078,0.0,0.0,0.0,0.0,0.0,0.0,0.0,0.0,0.0,0.0,0.0,0.0,0.0,0.0,0.0,0.0,0.0,0.0,0.0,0.0,0.0,0.0,0.0,0.0,0.0,0.0,0.0,0.0,0.0,0.0,0.0,0.0,0.0,0.0,0.0,0.0,0.0,0.0,0.0,4.4044,4.4497,0.0,0.0,0.0,0.0,0.0,0.0,0.0,0.0,4.5663,0.0,0.0,0.0,0.0,0.0,0.0,0.0,0.0,0.0,0.0,0.0,0.0,0.0,0.0,0.0,0.0,0.0,0.0,0.0,0.0,0.0,0.0,0.0,0.0,0.0,0.0,0.0,0.0,0.0,0.0,0.0,0.0,0.0,0.0,0.0,0.0,0.0,0.0,0.0,0.0,0.0,0.0,0.0,0.0,0.0,0.0,0.0,0.0,0.0,0.0,0.0,0.0,0.0,0.0,0.0,3.7536,3.7025,3.6756,3.6763,3.6851,3.6986,3.715,3.6901,3.6633,0.0,0.0,0.0,0.0,0.0,0.0,0.0,0.0,0.0,0.0,0.0,0.0,0.0,0.0,0.0,0.0,0.0,0.0,0.0,0.0,0.0,0.0,0.0,0.0,0.0,0.0,0.0,0.0,0.0,0.0,0.0,0.0,0.0,0.0,0.0,0.0,0.0,0.0,0.0,0.0,4.4469,4.4847,4.5259,0.0,0.0,0.0,0.0,0.0,0.0,4.6498,4.6388,0.0,0.0,0.0,0.0,0.0,0.0,0.0,0.0,0.0,0.0,0.0,0.0,0.0,0.0,0.0,0.0,0.0,0.0,0.0,0.0,0.0,0.0,0.0,0.0,0.0,0.0,0.0,0.0,0.0,0.0,0.0,0.0,0.0,0.0,0.0,0.0,0.0,0.0,0.0,0.0,0.0,0.0,0.0,0.0,0.0,0.0,0.0,0.0,0.0,0.0,0.0,0.0,0.0,0.0,0.0,3.8223,3.7555,3.7194,3.7194,3.7324,3.7461,3.7555,3.7629,3.7298,0.0,0.0,0.0,0.0,0.0,0.0,0.0,0.0,0.0,0.0,0.0,0.0,0.0,0.0,0.0,0.0,0.0,0.0,0.0,0.0,0.0,0.0,0.0,0.0,0.0,0.0,0.0,0.0,0.0,0.0,0.0,0.0,0.0,0.0,0.0,0.0,0.0,0.0,0.0,0.0,0.0,4.5223,4.603,4.6287,0.0,0.0,0.0,0.0,4.7342,4.7333,0.0,0.0,0.0,0.0,0.0,0.0,0.0,0.0,0.0,0.0,0.0,0.0,0.0,0.0,0.0,0.0,0.0,0.0,0.0,0.0,0.0,0.0,0.0,0.0,0.0,0.0,0.0,0.0,0.0,0.0,0.0,0.0,0.0,0.0,0.0,0.0,0.0,0.0,0.0,0.0,0.0,0.0,0.0,0.0,0.0,0.0,0.0,0.0,0.0,0.0,0.0,0.0,0.0,0.0,0.0,0.0,3.9073,3.8894,3.8822,3.8836,3.9008,3.9151,3.9207,3.8712,3.8124,0.0,0.0,0.0,0.0,0.0,0.0,0.0,0.0,0.0,0.0,0.0,0.0,0.0,0.0,0.0,0.0,0.0,0.0,0.0,0.0,0.0,0.0,0.0,0.0,0.0,0.0,0.0,0.0,0.0,0.0,0.0,0.0,0.0,0.0,0.0,0.0,0.0,0.0,0.0,0.0,0.0,4.6058,4.6856,4.7562,4.8039,0.0,0.0,0.0,4.8186,4.8196,0.0,0.0,0.0,0.0,0.0,0.0,0.0,0.0,0.0,0.0,0.0,0.0,0.0,0.0,0.0,0.0,0.0,0.0,0.0,0.0,0.0,0.0,0.0,0.0,0.0,0.0,0.0,0.0,0.0,0.0,0.0,0.0,0.0,0.0,0.0,0.0,0.0,0.0,0.0,0.0,0.0,0.0,0.0,0.0,0.0,0.0,0.0,0.0,0.0,0.0,0.0,0.0,0.0,0.0,0.0,3.9219,3.9131,3.9133,3.914,3.9181,3.9322,3.9464,3.9557,3.9433,3.8831,0.0,0.0,0.0,0.0,0.0,0.0,0.0,0.0,0.0,0.0,0.0,0.0,0.0,0.0,0.0,0.0,0.0,0.0,0.0,0.0,0.0,0.0,0.0,0.0,0.0,0.0,0.0,0.0,0.0,0.0,0.0,0.0,0.0,0.0,0.0,0.0,0.0,0.0,0.0,0.0,0.0,0.0,4.7663,4.8076,0.0,0.0,0.0,4.8453,4.8967,0.0,0.0,0.0,0.0,0.0,0.0,0.0,0.0,0.0,0.0,0.0,0.0,0.0,0.0,0.0,0.0,0.0,0.0,0.0,0.0,0.0,0.0,0.0,0.0,0.0,0.0,0.0,0.0,0.0,0.0,0.0,0.0,0.0,0.0,0.0,0.0,0.0,0.0,0.0,0.0,0.0,0.0,0.0,0.0,0.0,0.0,0.0,0.0,0.0,0.0,0.0,0.0,0.0,0.0,0.0,0.0,0.0,3.9082,3.9133,3.9168,3.9178,3.9344,3.9489,3.9623,3.9884,0.0,0.0,0.0,0.0,0.0,0.0,0.0,0.0,0.0,0.0,0.0,0.0,0.0,0.0,0.0,0.0,0.0,0.0,0.0,0.0,0.0,0.0,0.0,0.0,0.0,0.0,0.0,0.0,0.0,0.0,0.0,0.0,0.0,0.0,0.0,0.0,0.0,0.0,0.0,0.0,0.0,0.0,4.748,4.848,4.859,4.8903,0.0,0.0,4.9125,4.9605,4.9127,4.864,0.0,0.0,0.0,0.0,0.0,0.0,0.0,0.0,0.0,0.0,0.0,0.0,0.0,0.0,0.0,0.0,0.0,0.0,0.0,0.0,0.0,0.0,0.0,0.0,0.0,0.0,0.0,0.0,0.0,0.0,0.0,0.0,0.0,0.0,0.0,0.0,0.0,0.0,0.0,0.0,0.0,0.0,0.0,0.0,0.0,0.0,0.0,0.0,0.0,0.0,0.0,0.0,0.0,0.0,0.0,3.9089,3.9144,3.9215,3.9229,3.9395,3.9563,3.9693,3.9868,3.9264,0.0,0.0,0.0,0.0,0.0,0.0,0.0,0.0,0.0,0.0,0.0,0.0,0.0,0.0,0.0,0.0,0.0,0.0,0.0,0.0,0.0,0.0,0.0,0.0,0.0,0.0,0.0,0.0,0.0,0.0,0.0,0.0,0.0,0.0,0.0,0.0,0.0,0.0,0.0,0.0,0.0,4.7672,4.927,4.9454,4.974,0.0,0.0,5.0549,4.9963,4.9824,4.9529,4.8707,0.0,0.0,0.0,0.0,0.0,0.0,0.0,0.0,0.0,0.0,0.0,0.0,0.0,0.0,0.0,0.0,0.0,0.0,0.0,0.0,0.0,0.0,0.0,0.0,0.0,0.0,0.0,0.0,0.0,0.0,0.0,0.0,0.0,0.0,0.0,0.0,0.0,0.0,0.0,0.0,0.0,0.0,0.0,0.0,0.0,0.0,0.0,0.0,0.0,0.0,0.0,0.0,0.0,3.911,3.9082,3.9151,3.9263,3.9311,3.9526,3.9682,3.9802,4.0,3.9362,0.0,0.0,0.0,0.0,0.0,0.0,0.0,0.0,0.0,0.0,0.0,0.0,0.0,0.0,0.0,0.0,0.0,0.0,0.0,0.0,0.0,0.0,0.0,0.0,0.0,0.0,0.0,0.0,3.971,3.9852,4.0214,0.0,0.0,0.0,0.0,0.0,0.0,0.0,0.0,0.0,0.0,4.8288,4.9495,4.9652,0.0,0.0,5.1327,5.1125,5.1339,5.0545,4.9797,4.951,4.9083,0.0,0.0,0.0,0.0,0.0,0.0,0.0,0.0,0.0,0.0,0.0,0.0,0.0,0.0,0.0,0.0,0.0,0.0,0.0,0.0,0.0,0.0,0.0,0.0,0.0,0.0,0.0,0.0,0.0,0.0,0.0,0.0,0.0,0.0,0.0,0.0,0.0,0.0,0.0,0.0,0.0,0.0,0.0,0.0,0.0,0.0,0.0,0.0,0.0,0.0,0.0,0.0,3.9096,3.9117,3.9215,3.9285,3.9427,3.9629,3.9779,3.9927,4.0128,3.9546,0.0,0.0,0.0,0.0,0.0,0.0,0.0,0.0,0.0,0.0,0.0,0.0,0.0,0.0,0.0,0.0,0.0,0.0,0.0,0.0,0.0,0.0,0.0,0.0,0.0,0.0,0.0,0.0,4.0474,4.0716,4.1441,0.0,0.0,0.0,0.0,0.0,0.0,0.0,0.0,0.0,0.0,4.9092,5.0006,5.031,5.1022,5.2525,5.2258,5.2065,5.2409,5.1538,5.0712,5.0516,0.0,0.0,0.0,0.0,0.0,0.0,0.0,0.0,0.0,0.0,0.0,0.0,0.0,0.0,0.0,0.0,0.0,0.0,0.0,0.0,0.0,0.0,0.0,0.0,0.0,0.0,0.0,0.0,0.0,0.0,0.0,0.0,0.0,0.0,0.0,0.0,0.0,0.0,0.0,0.0,0.0,0.0,0.0,0.0,0.0,0.0,0.0,0.0,0.0,0.0,0.0,0.0,0.0,0.0,3.9178,3.934,3.9413,3.9508,3.9688,3.984,3.9996,4.0143,3.985,3.9107,0.0,0.0,0.0,0.0,0.0,0.0,0.0,0.0,0.0,0.0,0.0,0.0,0.0,0.0,0.0,0.0,0.0,0.0,0.0,0.0,0.0,0.0,0.0,0.0,0.0,0.0,4.2272,4.2225,4.2454,0.0,0.0,0.0,0.0,0.0,0.0,0.0,0.0,0.0,0.0,4.8799,5.0175,5.0932,5.1745,5.2562,5.3607,5.3747,5.3526,5.2981,5.283,5.2568,0.0,0.0,0.0,0.0,0.0,0.0,0.0,0.0,0.0,0.0,0.0,0.0,0.0,0.0,0.0,0.0,0.0,0.0,0.0,0.0,0.0,0.0,0.0,0.0,0.0,0.0,0.0,0.0,0.0,0.0,0.0,0.0,0.0,0.0,0.0,0.0,0.0,0.0,0.0,0.0,4.6533,4.68,0.0,0.0,0.0,0.0,0.0,0.0,0.0,0.0,0.0,0.0,0.0,0.0,3.9092,3.9215,3.9342,3.9458,3.9641,3.985,4.0007,4.0148,4.0262,3.9985,3.9273,0.0,0.0,0.0,0.0,0.0,0.0,0.0,0.0,0.0,0.0,0.0,0.0,0.0,0.0,0.0,0.0,0.0,0.0,0.0,0.0,0.0,0.0,0.0,0.0,0.0,4.2509,0.0,0.0,0.0,0.0,0.0,0.0,0.0,0.0,0.0,0.0,0.0,4.7444,4.8233,4.9252,5.0232,5.1176,5.1974,5.2856,0.0,0.0,0.0,0.0,0.0,0.0,0.0,0.0,0.0,0.0,0.0,0.0,0.0,0.0,5.3236,5.1434,5.0985,5.0888,5.0885,0.0,0.0,0.0,0.0,0.0,0.0,0.0,0.0,0.0,0.0,0.0,0.0,0.0,0.0,0.0,0.0,4.3583,0.0,0.0,0.0,0.0,0.0,0.0,0.0,0.0,4.7553,4.7794,4.7788,4.7771,4.7442,0.0,4.6465,4.564,0.0,0.0,0.0,0.0,0.0,0.0,0.0,0.0,3.9827,3.9703,3.9779,3.9808,3.9728,3.9922,4.0073,4.0182,4.0376,4.0086,3.9315,3.9011,3.8738,0.0,0.0,0.0,0.0,0.0,0.0,0.0,0.0,0.0,0.0,0.0,0.0,0.0,0.0,0.0,0.0,0.0,0.0,0.0,0.0,0.0,0.0,0.0,4.3433,0.0,0.0,0.0,0.0,0.0,0.0,0.0,0.0,0.0,4.6946,4.7316,4.8041,4.9189,4.997,5.0805,5.1785,0.0,0.0,0.0,0.0,0.0,0.0,0.0,5.3707,5.3793,5.3311,5.3063,5.3388,5.4016,5.4562,5.4839,0.0,0.0,5.3253,5.255,5.219,5.2197,5.1691,5.1206,5.1206,5.0986,5.0802,0.0,0.0,0.0,0.0,0.0,0.0,0.0,0.0,4.5382,4.5399,0.0,4.5491,0.0,0.0,0.0,0.0,0.0,0.0,0.0,0.0,4.805,4.7941,4.7935,4.7917,4.7782,4.7603,4.672,4.6208,4.5875,4.4134,0.0,0.0,0.0,0.0,0.0,0.0,4.1193,4.0636,4.071,4.0466,3.9887,3.9976,4.0117,4.0225,4.0415,4.0161,3.9396,4.0092,4.0131,3.9396,4.0092,0.0,0.0,0.0,0.0,0.0,0.0,0.0,0.0,0.0,0.0,0.0,0.0,0.0,0.0,0.0,0.0,0.0,0.0,0.0,0.0,4.5252,0.0,0.0,0.0,0.0,0.0,0.0,0.0,0.0,0.0,0.0,4.7847,4.7821,4.8413,5.0116,0.0,0.0,0.0,0.0,5.4268,5.4409,5.4464,5.4592,5.4719,5.478,5.4818,5.4818,0.0,0.0,5.5689,5.6463,5.6865,5.6659,5.6594,5.6545,5.6213,5.5293,5.4689,5.4549,5.3303,5.2228,5.2107,5.1797,5.1199,5.1239,0.0,0.0,0.0,0.0,4.8936,4.8974,4.8974,4.8952,4.8996,4.899,4.8958,0.0,0.0,0.0,0.0,0.0,0.0,5.0746,5.1274,5.1256,5.0894,5.0361,5.0342,4.9677,4.8384,4.7996,4.7137,4.5799,4.5139,4.4408,4.3601,0.0,0.0,0.0,0.0,4.1364,4.1451,4.1556,4.1331,4.0744,4.0864,4.0748,4.0359,4.0436,4.0385,4.0169,4.0362,4.04,4.0169,4.0362,0.0,0.0,0.0,0.0,0.0,0.0,0.0,0.0,0.0,0.0,0.0,0.0,0.0,0.0,0.0,0.0,0.0,0.0,0.0,4.6123,4.6624,4.6886,0.0,0.0,0.0,0.0,0.0,0.0,0.0,0.0,0.0,4.9577,4.956,4.9941,0.0,0.0,5.2701,5.3057,5.3854,5.448,5.4665,0.0,0.0,0.0,5.636,5.6755,5.6702,5.6678,5.6668,5.6694,5.6933,5.7186,5.7454,5.7501,5.7582,5.7908,5.6769,5.5794,5.5605,5.518,5.4775,5.4775,5.458,5.4211,5.5395,5.3464,5.2779,5.2516,5.2516,5.2516,5.2516,5.2511,5.2488,5.2477,5.2472,5.2403,5.2368,5.2368,5.2358,0.0,0.0,0.0,5.3029,5.3187,5.314,5.265,5.1856,5.1456,5.0705,4.9611,4.8761,4.7796,4.6674,4.618,4.5513,4.4654,0.0,0.0,4.3226,4.262,4.2298,4.231,4.2394,4.219,4.1637,4.1817,4.1786,4.1403,4.1467,4.1512,4.155,4.155,4.1512,4.1512,4.155,4.1781,0.0,0.0,0.0,0.0,0.0,0.0,0.0,0.0,0.0,0.0,0.0,4.5107,0.0,0.0,0.0,0.0,4.632,4.6429,4.6887,4.729,0.0,0.0,0.0,0.0,0.0,0.0,0.0,4.9054,5.0152,5.1062,5.1312,5.133,5.1533,5.2019,5.2663,5.324,5.3633,0.0,5.5189,5.5321,5.6118,5.6739,5.6791,5.7253,5.7565,5.7521,5.7741,5.7859,5.7649,5.7834,5.8154,5.8353,5.8371,5.8491,5.8868,5.7975,5.7063,5.6654,5.6197,5.5902,5.5902,5.5902,5.5744,5.8563,5.8361,5.6839,5.6078,5.5886,5.5963,5.6001,5.5995,5.5935,5.5911,5.5905,5.5823,5.5817,5.5772,5.5765,0.0,0.0,5.5538,5.5047,5.4293,5.4127,5.3591,5.2641,5.1736,5.1166,5.0905,4.922,4.8318,4.81,4.7164,4.6214,4.53,4.4424,4.3948,4.3926,4.3808,4.3558,4.3094,4.3212,4.3057,4.2532,4.2761,4.2917,4.2878,4.3039,4.3085,4.3085,4.3085,4.3085,4.3085,4.3085,4.3124,4.3201,0.0,0.0,0.0,0.0,0.0,0.0,0.0,0.0,0.0,0.0,0.0,0.0,0.0,0.0,0.0,4.7794,0.0,4.7793,4.7852,0.0,0.0,0.0,4.885,4.8704,4.9988,5.0859,5.0691,0.0,0.0,0.0,0.0,5.3118,5.3127,5.322,5.3649,5.4484,5.5464,5.6141,5.6247,5.705,5.7708,5.7723,5.7875,5.796,5.7916,5.8326,5.8708,5.8572,5.9058,5.9434,5.9234,5.9206,5.9167,5.9024,5.892,5.8654,5.7637,5.6788,5.6187,5.6282,5.6319,5.6292,6.194,6.1882,6.1467,6.0201,5.8469,5.9115,5.9422,5.9422,5.9364,5.9358,5.9396,5.9286,5.9237,5.9126,5.9016,5.8972,5.8919,5.8265,5.7855,5.7559,5.6148,5.5057,5.4231,5.3225,5.206,5.0823,5.0201,4.9249,4.7924,4.7607,4.6945,4.5978,4.5681,4.4997,4.3918,4.3845,4.3863,4.4012,4.4119,4.3962,4.3498,4.3101,4.2917,4.2917,4.3039,4.3085,4.3085,4.3085,4.3085,4.3085,4.3085,4.3393,4.3974,4.4008,0.0,0.0,0.0,0.0,0.0,0.0,0.0,0.0,0.0,4.7302,4.7526,0.0,4.7463,0.0,4.8769,4.9493,4.9429,5.0502,0.0,0.0,5.1276,5.13,5.1133,5.1494,5.1686,5.1532,5.2211,5.2801,5.2934,5.3602,5.4062,5.413,5.4266,5.4673,5.5571,5.5997,5.6541,5.7289,5.8116,5.8692,5.8765,5.9271,5.9549,5.9505,5.9589,5.966,5.948,5.9597,5.9688,5.9484,5.9346,5.9262,5.9167,5.9053,5.8976,5.877,5.8477,5.8249,5.8259,5.8249,5.8062,6.3998,6.4007,6.4389,6.3778,6.244,6.1889,6.1669,6.1662,6.1555,6.1527,6.152,6.1449,6.1376,6.134,6.1241,6.1178,6.1107,6.0611,5.9948,5.9117,5.8072,5.6735,5.5152,5.4225,5.3065,5.1657,5.0775,4.9798,4.8839,4.831,4.7623,4.6706,4.6688,4.6105,4.4979,4.49,4.5049,4.535,4.5265,4.513,4.495,4.4335,4.4024,4.4029,4.4119,4.4205,4.4205,4.4201,4.4205,4.4205,4.4586,4.5009,4.5432,4.5778,4.6394,0.0,0.0,0.0,0.0,0.0,0.0,0.0,0.0,0.0,0.0,0.0,4.8979,0.0,0.0,0.0,5.0967,5.1764,5.2288,5.2281,5.2167,5.2098,5.2005,5.2312,5.2489,5.2444,5.314,5.3636,5.3679,5.4105,5.4631,5.5093,5.5265,5.5503,5.605,5.6838,5.7692,5.8273,5.9078,5.9647,5.9675,6.0032,6.0279,6.0189,6.0091,5.9966,5.9874,5.9807,5.974,5.9563,5.9492,5.94,5.9383,5.9337,5.9318,5.9346,5.9337,5.9234,5.9187,5.913,5.8943,6.5436,6.5454,6.6214,6.6518,6.6383,6.4489,6.364,6.3585,6.3406,6.3336,6.3321,6.3234,6.3193,6.3193,6.3185,6.3133,6.2988,6.2761,6.1804,6.0248,5.9769,5.8325,5.607,5.5013,5.4,5.2954,5.1219,5.034,5.022,4.9233,4.8375,4.7629,4.7554,4.7193,4.6546,4.6526,4.6611,4.6733,4.6416,4.6347,4.6561,4.6023,4.5755,4.5765,4.5853,4.5936,4.5898,4.5936,4.5902,4.5936,4.6663,4.7043,4.7081,4.7697,4.8197,0.0,4.8432,0.0,0.0,0.0,0.0,0.0,0.0,0.0,0.0,5.0314,5.082,5.2167,5.2319,5.2348,5.2333,5.24,5.2468,5.2468,5.236,5.2312,5.232,5.2919,5.3337,5.3366,5.3975,5.446,5.4451,5.4605,5.5055,5.5842,5.633,5.6558,5.6656,5.7891,5.8928,5.914,5.9838,6.0293,6.0293,6.032,6.0308,6.0279,6.0144,6.0021,5.9942,5.9899,5.9807,5.9693,5.9676,5.9659,5.965,5.9642,5.9642,5.9659,5.9621,5.956,5.942,5.9327,5.9365,6.6904,6.6886,6.7038,6.7152,6.7114,6.7314,6.7128,6.6733,6.67,6.6641,6.6602,6.6404,6.6322,6.6322,6.6277,6.6229,6.6116,6.4794,6.3983,6.3549,6.0698,5.9102,5.8455,5.6164,5.4559,5.3581,5.2493,5.1611,5.0906,4.9943,4.9397,4.9231,4.8624,4.8228,0.0,0.0,0.0,0.0,4.7101,4.7283,4.7457,4.7498,4.7534,4.7578,4.7597,0.0,4.7625,4.762,4.7625,4.762,4.7778,0.0,0.0,0.0,0.0,0.0,0.0,0.0,0.0,0.0,0.0,0.0,5.1948,5.1731,5.193,5.1871,5.1888,5.2198,5.2724,5.3067,5.2948,5.3474,5.3853,5.389,5.3873,5.389,5.3929,5.4079,5.4183,5.4183,5.4364,5.4489,5.4559,5.5193,5.5804,5.6208,5.7415,5.8326,5.8437,5.8754,5.9307,5.9967,6.0293,6.0377,6.0377,6.0401,6.0366,6.0308,6.0272,6.0174,6.0099,6.0038,6.0029,5.9912,5.9942,5.991,5.9853,5.9844,5.9861,5.9926,5.9896,5.9861,5.9616,5.9554,5.9554,6.9484,0.0,6.9433,6.9463,0.0,6.9944,6.998,6.9721,6.8887,6.8518,6.8461,6.789,6.7633,6.7633,6.7118,6.6886,6.676,6.5933,6.5076,6.4151,6.2401,6.0683,5.9053,5.7615,5.6043,5.4338,5.3329,5.2417,5.1593,5.0674,5.025,5.0308,4.9942,4.9834,4.9999,5.0228,4.9725,4.8397,4.8159,4.813,4.8321,4.8126,4.8038,4.8087,0.0,0.0,0.0,0.0,0.0,0.0,0.0,0.0,0.0,0.0,0.0,5.1856,5.1933,5.2233,5.2927,5.3409,5.3698,5.3899,5.4538,5.4555,5.3588,5.3767,5.4078,5.4401,5.4764,5.4929,5.487,5.5153,5.5397,5.5434,5.5134,5.4916,5.4885,5.4608,5.4426,5.4439,5.448,5.4651,5.5193,5.5683,5.6436,5.7286,5.8273,5.9114,5.9531,5.9688,5.9922,6.0332,6.0377,6.0377,6.0377,6.0377,6.0408,6.0359,6.0316,6.0279,6.0197,6.0159,6.0076,6.0045,6.003,6.0014,6.0029,6.0013,5.9983,6.0022,6.0038,6.0037,5.9864,5.9839,5.9839,7.1655,7.1565,7.1527,7.1633,7.1733,7.1894,7.2148,7.2267,0.0,0.0,0.0,6.902,6.8656,6.8608,6.7846,6.746,6.7325,6.7063,6.6148,6.4764,6.4145,6.2401,5.9752,5.8968,5.7555,5.5494,5.4137,5.316,5.2488,5.1524,5.1066,5.1128,5.1144,5.1269,5.1477,5.1765,5.1367,5.0248,4.9627,4.9486,4.965,4.9149,4.8925,4.8985,4.8986,4.9005,4.9009,4.9005,4.9005,4.9048,5.0361,5.113,5.1169,5.2433,5.328,5.3433,5.3587,5.3656,5.3711,5.4494,5.5171,5.5623,5.6724,5.6707,5.5163,5.5639,5.6197,5.6639,5.6687,5.6641,5.6575,5.6546,5.6546,5.6565,5.6052,5.5695,5.5685,5.5229,5.4957,5.4949,5.5074,5.529,5.6122,5.6519,5.7104,5.8464,5.9039,5.9438,6.0125,6.0297,6.0332,6.0377,6.0377,6.0377,6.0377,6.0377,6.0377,6.037,6.0352,6.0316,6.0301,6.0219,6.0144,6.0151,6.0174,6.0182,6.0136,6.0136,6.0136,6.0136,6.0136,6.0174,6.0174,6.0144,6.0121,7.1371,7.1322,7.1322,7.143,7.1571,7.2283,7.3077,7.3717,7.2091,7.1377,7.1366,7.1001,7.0859,7.0859,7.0698,7.0637,7.0551,6.9206,6.8435,0.0,6.515,6.3512,6.2796,5.9902,5.8247,5.7571,5.5428,5.4223,5.3928,5.2641,5.1919,5.1895,5.1556,5.1541,5.1836,5.1999,5.2084,5.2103,5.2023,5.21,5.2359,5.2313,5.2357,5.249,5.2423,5.2467,5.2467,5.2428,5.2467,5.2467,5.2697,5.2856,5.2851,5.3121,5.3549,5.428,5.4939,5.5638,5.6301,5.7093,5.7507,5.7447,5.7415,5.7199,5.6802,5.6777,5.6799,5.6723,5.6743,5.6575,5.6432,5.6456,5.6484,5.6487,5.6481,5.6463,5.6546,5.652,5.6529,5.6555,5.6794,5.6879,5.7201,5.7863,5.8395,5.8978,5.96,6.017,6.0304,6.0408,6.0377,6.0377,6.0377,6.0377,6.0398,6.0377,6.0391,6.0377,6.0415,6.0401,6.0408,6.0356,6.0335,6.0342,6.0335,6.0335,6.0335,6.0342,6.0335,6.0328,6.0328,6.0335,6.0328,6.0328,6.0292,7.3802,7.3751,7.3738,7.3865,7.4087,7.4607,7.5077,7.5375,7.4153,7.3342,7.2906,7.222,7.1851,7.169,7.1206,7.0946,7.0845,7.009,6.9311,6.8383,6.6838,6.5147,6.3347,6.1715,5.9976,5.8215,5.7007,5.5956,5.5168,5.4449,5.4174,5.428,5.4261,5.4396,5.4614,5.4848,5.5042,5.5189,5.3528,5.2768,5.2953,5.3015,5.3119,5.3197,5.3197,5.3197,5.3197,5.3197,5.3197,5.3197,5.3664,5.4087,5.4549,5.5016,5.5626,5.6511,5.689,5.7253,5.758,5.829,5.8636,5.8533,5.8811,5.8866,5.8651,5.8014,5.7765,5.8071,5.7997,5.7862,5.7744,5.7681,5.7624,5.7725,5.7497,5.7323,5.7397,5.7166,5.7032,5.7163,5.7249,5.755,5.8091,5.8593,5.9146,5.9607,6.0132,6.0387,6.0418,6.0477,6.0477,6.0439,6.0466,6.0486,6.0486,6.0531,6.0493,6.0486,6.0531,6.0486,6.0525,6.0525,6.0511,6.0477,6.047,6.0418,6.0391,6.0377,6.0377,6.0377,6.0377,6.0377,6.0377,6.0377,6.0349,7.5907,7.5841,7.5841,7.5999,7.6269,7.6528,7.6624,7.6539,7.5817,7.5144,7.4423,7.3392,7.2819,7.2578,7.2052,7.1625,7.132,7.1122,7.0273,6.898,6.8352,6.6715,6.4316,6.3456,6.1665,5.9311,5.847,5.7474,5.6422,5.6034,5.6018,5.6256,5.6585,5.6823,5.7019,5.7273,5.7469,5.7443,5.5198,5.4049,5.4143,5.4205,5.4304,5.4346,5.439,5.4357,5.4351,5.4351,5.4351,5.439,5.5011,5.5626,5.6247,5.694,5.7594,5.8236,5.8467,5.8637,5.8765,5.9211,5.9498,5.9442,5.9977,6.0235,5.9952,5.9131,5.8756,5.9196,5.9084,5.8976,5.8848,5.8794,5.8801,5.8855,5.8469,5.8184,5.8277,5.7887,5.7666,5.787,5.7936,5.8326,5.8927,5.923,5.9538,6.0132,6.0387,6.0457,6.0473,6.0506,6.0533,6.0539,6.0559,6.0572,6.0617,6.061,6.061,6.0617,6.061,6.0604,6.0604,6.061,6.0604,6.0551,6.0506,6.0486,6.0439,6.0412,6.0405,6.0443,6.0398,6.0377,6.0377,6.0377,6.0415,7.5918,7.596,7.6047,7.6179,7.6543,7.6747,7.6782,7.665,7.6476,7.6305,7.5894,7.4983,7.4428,7.4313,7.4754,7.451,7.373,7.3028,7.2179,7.1109,6.9091,6.7845,6.7055,6.4451,6.2794,6.1973,5.9582,5.8252,5.7892,5.6721,5.6286,5.6622,5.6778,5.7091,5.7351,5.7484,5.7648,5.7859,5.7698,5.762,5.7632,5.7692,5.7751,5.7852,5.7775,5.7819,5.7621,5.7813,5.7813,5.7852,5.7813,5.7967,5.8044,5.8121,5.8198,5.8357,5.9011,5.9675,6.0358,6.0531,6.0463,6.0371,6.0366,6.0359,6.025,5.9922,5.9597,5.94,5.929,5.9168,5.9014,5.8965,5.8955,5.8984,5.8997,5.9103,5.9158,5.9304,5.9441,5.9633,5.954,5.987,5.9999,6.0058,6.0177,6.0356,6.0464,6.0525,6.0513,6.0591,6.0654,6.0654,6.0629,6.0591,6.0629,6.0623,6.0636,6.0629,6.0623,6.0636,6.0642,6.0636,6.0617,6.0623,6.0572,6.0565,6.0546,6.052,6.0511,6.0484,6.0457,6.0377,6.0377,6.0377,6.0377,7.7412,7.7465,7.7623,7.7854,7.8151,7.833,7.8377,7.8293,7.7732,7.7339,7.7042,7.6591,7.5867,7.5038,7.5356,7.5156,7.4617,7.4249,7.3366,7.2166,7.1121,6.97,6.7802,6.6108,6.4487,6.3051,6.1255,6.0029,5.9196,5.8344,5.8052,5.8259,5.8429,5.8682,5.887,5.9102,5.9254,5.9383,5.9524,5.965,5.9509,5.8711,5.8252,5.8275,5.8275,5.8275,5.8275,5.8275,5.8275,5.8275,5.8275,5.8506,5.8973,5.9011,5.9242,5.9742,6.005,6.0429,6.0752,6.0716,6.0667,6.061,6.0506,6.0412,6.0366,6.0227,5.999,5.9673,5.9436,5.9253,5.9178,5.9072,5.9043,5.9149,5.9215,5.9355,5.9563,5.9693,5.9828,5.9958,6.0076,6.0205,6.0286,6.0373,6.0429,6.0446,6.0538,6.0552,6.0604,6.066,6.0703,6.0734,6.0722,6.071,6.0697,6.0703,6.0703,6.0742,6.0703,6.0703,6.0697,6.0703,6.0697,6.0699,6.0648,6.0629,6.0617,6.0565,6.0571,6.0531,6.047,6.0377,6.0377,6.0377,6.0377,7.8642,7.8721,7.9004,7.9225,7.9427,7.9558,7.9581,7.9459,7.8789,7.8324,7.8067,7.7889,7.7236,7.6277,7.6127,7.5779,7.5323,7.5308,7.4574,7.3302,7.2853,7.143,6.9292,6.7707,6.6087,6.4326,6.2993,6.1708,6.0507,6.01,5.9985,6.0105,6.0336,6.053,6.0737,6.0971,6.1016,6.0862,6.0968,6.0966,6.0606,5.9565,5.9011,5.9011,5.8973,5.9011,5.8973,5.9011,5.8973,5.9006,5.8973,5.9242,5.9819,5.9858,6.0127,6.0704,6.0781,6.0781,6.0781,6.0746,6.071,6.0691,6.0597,6.0545,6.0457,6.0373,6.0242,6.0013,5.9681,5.9481,5.9355,5.9244,5.9234,5.9392,5.9373,5.9519,5.9782,5.989,5.9934,6.0068,6.0212,6.0308,6.0359,6.045,6.0518,6.0545,6.061,6.0629,6.0685,6.071,6.074,6.0775,6.0781,6.0781,6.0781,6.0775,6.0781,6.0781,6.0775,6.0769,6.0781,6.0781,6.0781,6.0722,6.076,6.071,6.0673,6.0642,6.0578,6.0506,6.0446,6.0398,6.0377,6.0377,6.0377,7.8966,7.9178,7.9538,7.9792,7.98,7.9838,7.9821,7.9872,7.9596,7.9309,7.9091,7.8838,7.8474,7.8137,7.7869,7.723,7.642,7.6332,7.5853,7.4947,7.3711,7.2945,7.2576,6.9584,6.7591,6.653,6.4522,6.2886,6.1676,6.1617,6.1808,6.2013,6.2058,6.2387,6.2558,6.2593,6.247,6.1985,6.1908,6.1638,6.0962,6.0742,6.0633,6.0633,6.0671,6.055,6.0594,6.0671,6.0627,6.0627,6.0589,6.0671,6.0704,6.0704,6.0748,6.0781,6.0781,6.0781,6.0781,6.0781,6.0757,6.071,6.0679,6.0623,6.05,6.0457,6.0366,6.0279,6.006,5.9869,5.9659,5.9581,5.9572,5.9589,5.9598,5.9702,5.9869,5.9918,6.0013,6.0212,6.0286,6.0366,6.0491,6.048,6.0564,6.0617,6.0642,6.0691,6.0703,6.0746,6.0769,6.0781,6.0781,6.0781,6.0781,6.0781,6.0781,6.0781,6.0781,6.0781,6.0781,6.0781,6.0781,6.0775,6.0769,6.0763,6.0763,6.0716,6.0629,6.0559,6.0531,6.0491,6.0412,6.0384,6.0377,8.0903,8.1176,8.1391,8.1545,8.1651,8.1651,8.1588,8.1496,8.1347,8.1106,8.0831,8.0643,8.0357,8.0028,7.978,7.8794,7.7378,7.729,7.6847,7.6123,7.5601,7.4653,7.3093,7.0981,6.9347,6.7989,6.584,6.4009,6.2777,6.2379,6.2246,6.2416,6.2603,6.2803,6.2913,6.3048,6.2963,6.2798,6.2797,6.268,6.2314,6.1903,6.1633,6.1595,6.1095,6.0781,6.0781,6.0781,6.0781,6.0781,6.0781,6.0781,6.0781,6.0781,6.0781,6.0781,6.0781,6.0781,6.0781,6.0781,6.0775,6.0752,6.0716,6.0679,6.061,6.052,6.045,6.0373,6.0279,6.0099,5.9974,5.9861,5.9795,5.9803,5.9844,5.991,6.0029,6.0091,6.0197,6.0286,6.0366,6.0477,6.0558,6.0585,6.0629,6.0654,6.071,6.0746,6.0752,6.0775,6.0781,6.0781,6.0781,6.0781,6.0781,6.0781,6.0781,6.0781,6.0781,6.0781,6.0781,6.0781,6.0781,6.0781,6.0781,6.0781,6.0769,6.074,6.066,6.0629,6.061,6.0525,6.0453,6.0412,6.0391,8.2244,8.2504,8.261,8.2752,8.2871,8.2802,8.2721,8.2596,8.2412,8.2187,8.1941,8.1733,8.1453,8.1187,8.0968,8.0228,7.8975,7.8778,7.8327,7.7621,7.7519,7.6354,7.4397,7.2782,7.1158,6.9263,6.6752,6.5056,6.4291,6.3553,6.3318,6.3472,6.3634,6.3745,6.3831,6.3999,6.3918,6.3719,6.368,6.3622,6.3275,6.2781,6.2326,6.2056,6.1518,6.105,6.0819,6.0781,6.0781,6.0781,6.0781,6.0781,6.0781,6.0781,6.0781,6.0781,6.0781,6.0781,6.0781,6.0781,6.0781,6.0781,6.0752,6.0722,6.0691,6.0642,6.0564,6.0491,6.0443,6.0335,6.0263,6.0182,6.0091,6.0013,6.0021,6.0083,6.0167,6.0279,6.0344,6.0408,6.0491,6.0578,6.061,6.066,6.0697,6.0716,6.0763,6.0781,6.0781,6.0781,6.0781,6.0781,6.0781,6.0781,6.0781,6.0781,6.0781,6.0781,6.0781,6.0781,6.0781,6.0781,6.0781,6.0781,6.0781,6.0781,6.0769,6.0746,6.0722,6.0736,6.0655,6.0558,6.0473,6.0418,6.0474,8.2749,8.3113,8.3037,8.3238,8.3371,8.3295,8.3056,8.3021,8.2662,8.2611,8.2551,8.1982,8.1934,8.1693,8.162,8.1262,8.117,8.0903,8.0349,7.9589,7.911,7.8041,7.6368,7.4789,7.2662,7.0336,6.7523,6.6217,6.6129,6.5365,6.5033,6.5299,6.5207,6.5248,6.5703,6.5525,6.5295,6.4763,6.4583,6.4237,6.3429,6.3391,6.3012,6.2364,6.2172,6.1749,6.0973,6.0858,6.0781,6.0781,6.0781,6.0781,6.0781,6.0781,6.0781,6.0781,6.0781,6.0781,6.0781,6.0781,6.0781,6.0781,6.0781,6.0757,6.0716,6.0685,6.0642,6.0585,6.0559,6.0533,6.0486,6.0493,6.0425,6.0166,6.0129,6.0212,6.0301,6.0373,6.0432,6.0539,6.0578,6.0649,6.0673,6.0703,6.0722,6.0763,6.0775,6.0781,6.0781,6.0781,6.0781,6.0781,6.0781,6.0781,6.0781,6.0781,6.0781,6.0781,6.0781,6.0781,6.0781,6.0781,6.0781,6.0781,6.0781,6.0781,6.0781,6.0802,6.0944,6.0908,6.0744,6.0904,6.1081,6.1148,6.0704,8.4669,8.4863,8.4891,8.4937,8.4985,8.4901,8.4796,8.465,8.4476,8.4263,8.4029,8.3867,8.3663,8.3389,8.3286,8.326,8.326,8.3184,8.2418,8.1037,8.0293,7.9489,7.8255,7.6335,7.3542,7.0554,6.9275,6.8233,6.7363,6.6556,6.6277,6.632,6.5932,6.5726,6.587,6.584,6.5686,6.5545,6.5474,6.532,6.5051,6.4474,6.4051,6.3782,6.3243,6.2781,6.2474,6.1435,6.0819,6.0819,6.0781,6.0781,6.0781,6.0781,6.0781,6.0781,6.0781,6.0781,6.0781,6.0781,6.0819,6.0819,6.0819,6.0775,6.0757,6.076,6.0685,6.0654,6.0617,6.0604,6.0597,6.0604,6.052,6.0398,6.0418,6.0439,6.0466,6.0538,6.0559,6.0635,6.066,6.0691,6.0734,6.0752,6.0757,6.0775,6.0781,6.0781,6.0781,6.0781,6.0781,6.0781,6.0781,6.0781,6.0781,6.0781,6.0781,6.0781,6.0781,6.0781,6.0781,6.0781,6.0781,6.0858,6.0819,6.0896,6.0896,6.1044,6.1302,6.1458,6.1582,6.1793,6.2085,6.1903,6.1437,8.5686,8.5826,8.5843,8.587,8.587,8.5845,8.5743,8.557,8.5461,8.5266,8.5039,8.4916,8.4729,8.4515,8.4454,8.443,8.4442,8.4563,8.3936,8.2773,8.204,8.1048,7.9512,7.6924,7.4181,7.1479,7.0513,6.9641,6.848,6.7692,6.733,6.7292,6.6964,6.6767,6.6755,6.6795,6.6705,6.6436,6.6365,6.6211,6.5859,6.5359,6.4936,6.4589,6.4051,6.3622,6.3275,6.2243,6.1589,6.1287,6.0979,6.0781,6.0781,6.0781,6.0781,6.0781,6.0781,6.0781,6.0781,6.0781,6.0979,6.1172,6.1287,6.1287,6.1281,6.1245,6.1118,6.0792,6.0691,6.0699,6.0699,6.066,6.0642,6.0604,6.0572,6.0636,6.0649,6.0661,6.0693,6.071,6.0728,6.0752,6.0769,6.0781,6.0781,6.0781,6.0781,6.0781,6.0781,6.0781,6.0781,6.0781,6.0781,6.0781,6.0781,6.0781,6.0781,6.0781,6.0781,6.0781,6.0781,6.0781,6.0781,6.0973,6.105,6.1441,6.1518,6.1897,6.2154,6.2259,6.2407,6.249,6.2653,6.248,6.2096,8.5879,8.6005,8.6005,8.6014,8.6005,8.5996,8.589,8.5733,8.557,8.5451,8.5356,8.5127,8.5017,8.4984,8.4833,8.4798,8.4844,8.4984,8.4963,8.4648,8.3997,8.2536,7.9923,7.7189,7.4916,7.3102,7.157,7.0432,6.9665,6.8714,6.8311,6.8335,6.8195,6.8254,6.8109,6.8353,6.7853,6.7282,6.7173,6.6827,6.6096,6.5974,6.5551,6.482,6.4705,6.4359,6.3775,6.3391,6.2935,6.221,6.1518,6.1204,6.1018,6.0935,6.1127,6.1166,6.0973,6.1089,6.1012,6.1204,6.1441,6.2056,6.2172,6.2172,6.2172,6.2127,6.1891,6.1308,6.1077,6.0962,6.0962,6.0808,6.0802,6.0802,6.0679,6.0648,6.0691,6.0697,6.0722,6.0763,6.0781,6.0781,6.0781,6.0781,6.0781,6.0781,6.0781,6.0781,6.0781,6.0781,6.0781,6.0781,6.0781,6.0781,6.0781,6.0781,6.0781,6.0781,6.0819,6.0858,6.0935,6.1012,6.1089,6.1287,6.1627,6.1979,6.2249,6.2583,6.2955,6.3226,6.3246,6.3219,6.3208,6.3186,6.2975,8.5975,8.6052,8.609,8.606,8.609,8.6031,8.5979,8.5908,8.5704,8.557,8.5451,8.5367,8.5224,8.5138,8.5116,8.5138,8.5186,8.5291,8.5441,8.5511,8.5399,8.3391,8.0687,7.8474,7.656,7.4861,7.3169,7.2142,7.1295,6.9875,6.9219,6.9294,6.8749,6.8448,6.8391,6.8507,6.8314,6.8084,6.8045,6.7667,6.6942,6.6789,6.6359,6.5667,6.5551,6.5436,6.5128,6.4583,6.3852,6.3045,6.282,6.266,6.2551,6.2551,6.2468,6.2506,6.2545,6.2627,6.2583,6.2545,6.2743,6.2929,6.3012,6.2974,6.2974,6.3012,6.2858,6.2551,6.2166,6.1749,6.1672,6.121,6.0896,6.0781,6.074,6.0728,6.0746,6.0757,6.0769,6.0781,6.0781,6.0781,6.0781,6.0781,6.0781,6.0781,6.0781,6.0781,6.0781,6.0781,6.0781,6.0781,6.0781,6.0781,6.0781,6.0781,6.0781,6.0781,6.0858,6.0935,6.1172,6.1441,6.1633,6.1864,6.2551,6.2974,6.3006,6.316,6.3597,6.4142,6.4103,6.406,6.4374,6.4441,6.4022,8.6043,8.6094,8.6094,8.6094,8.6085,8.6082,8.6039,8.5987,8.589,8.5742,8.5648,8.558,8.5521,8.5461,8.5461,8.5491,8.5513,8.5571,8.5667,8.5656,8.5394,8.3736,8.1286,7.9352,7.7437,7.5748,7.4129,7.2945,7.1989,7.0721,7.0203,7.0115,6.9699,6.9468,6.9545,6.9436,6.9237,6.9013,6.893,6.8552,6.7744,6.7628,6.7436,6.6936,6.6628,6.6288,6.5897,6.5397,6.4589,6.3622,6.3275,6.3314,6.3314,6.3314,6.3314,6.3314,6.3314,6.3275,6.3314,6.3314,6.3468,6.3737,6.3852,6.3852,6.3852,6.3852,6.3775,6.3237,6.282,6.2666,6.2474,6.1826,6.1248,6.0858,6.0781,6.0781,6.0781,6.0781,6.0781,6.0781,6.0781,6.0781,6.0781,6.0781,6.0781,6.0781,6.0781,6.0781,6.0781,6.0781,6.0858,6.0896,6.0902,6.0941,6.1166,6.1281,6.1435,6.1396,6.1781,6.1704,6.1749,6.2095,6.2403,6.2781,6.3429,6.3846,6.384,6.402,6.4603,6.498,6.4938,6.4907,6.5111,6.5129,6.4748,8.6094,8.6094,8.6094,8.6094,8.6094,8.6085,8.6082,8.6031,8.5996,8.5905,8.5825,8.5806,8.576,8.5777,8.5742,8.5797,8.5815,8.5806,8.5834,8.5639,8.5117,8.3781,8.2203,7.9827,7.7977,7.6294,7.4517,7.3301,7.2423,7.1468,7.0975,7.0783,7.0744,7.0821,7.0591,7.0744,7.0475,6.9937,6.9821,6.9398,6.8706,6.8507,6.8353,6.8045,6.7552,6.6974,6.6474,6.6058,6.5359,6.3814,6.3622,6.3737,6.3698,6.3622,6.366,6.3737,6.3852,6.3814,6.366,6.3852,6.3974,6.4589,6.4743,6.4743,6.4743,6.4743,6.4512,6.3968,6.3545,6.3391,6.3121,6.2589,6.1903,6.1287,6.1018,6.0935,6.0819,6.0781,6.0781,6.0781,6.0781,6.0781,6.0781,6.0781,6.0781,6.0781,6.0781,6.0781,6.0781,6.0781,6.0979,6.1172,6.1172,6.1095,6.1441,6.182,6.2056,6.2249,6.2935,6.3089,6.282,6.3051,6.3281,6.3698,6.4257,6.4597,6.4706,6.5071,6.5486,6.5503,6.5266,6.5331,6.5441,6.5351,6.5077,8.6094,8.6094,8.6094,8.6094,8.6094,8.6094,8.6077,8.606,8.6031,8.5996,8.5914,8.5852,8.5825,8.5777,8.5834,8.5852,8.5923,8.5932,8.6005,8.592,8.5198,8.433,8.2929,8.0707,7.9015,7.7531,7.55,7.4046,7.3199,7.236,7.1552,7.1014,7.1014,7.0898,7.0898,7.0898,7.086,7.0629,7.0591,7.0167,6.959,6.9391,6.9122,6.8545,6.8237,6.8045,6.7782,6.7205,6.6673,6.625,6.5705,6.532,6.5166,6.5166,6.5166,6.5128,6.5205,6.5243,6.5282,6.5205,6.5359,6.5474,6.5513,6.5628,6.5628,6.5551,6.5513,6.5205,6.4743,6.4083,6.3468,6.3198,6.2666,6.2056,6.1749,6.1518,6.0973,6.0819,6.0781,6.0781,6.0781,6.0781,6.0781,6.0781,6.0781,6.0781,6.0781,6.0781,6.0858,6.0935,6.1287,6.1672,6.1826,6.1858,6.2243,6.2666,6.3051,6.3326,6.3935,6.4263,6.4032,6.3962,6.4218,6.459,6.5039,6.5257,6.5244,6.5331,6.5545,6.5566,6.5523,6.5479,6.5435,6.5429,6.5391,8.6094,8.6094,8.6094,8.6094,8.6094,8.6094,8.6094,8.6085,8.6043,8.6065,8.6018,8.5966,8.5949,8.594,8.5949,8.5984,8.6009,8.6026,8.6043,8.6,8.5585,8.4786,8.3524,8.1823,8.0208,7.8484,7.6361,7.4938,7.4053,7.3206,7.236,7.1552,7.1514,7.1245,7.0937,7.0937,7.0898,7.086,7.0898,7.0667,7.0321,7.0244,6.986,6.9199,6.8968,6.8853,6.8314,6.7968,6.7744,6.759,6.7282,6.6628,6.6019,6.5904,6.5904,6.5904,6.5904,6.5904,6.5865,6.5904,6.5865,6.5904,6.5904,6.5904,6.5904,6.5904,6.5904,6.5827,6.5436,6.4859,6.4051,6.3935,6.3512,6.282,6.2326,6.1903,6.1479,6.1056,6.0781,6.0781,6.0781,6.0781,6.0781,6.0781,6.0781,6.0781,6.0864,6.0902,6.1518,6.1633,6.2018,6.2364,6.2589,6.2781,6.3121,6.3583,6.4128,6.4512,6.4974,6.5135,6.5032,6.5077,6.5154,6.5359,6.5454,6.5505,6.5554,6.5601,6.5544,6.5516,6.5518,6.5466,6.5421,6.5375,6.5344,8.6094,8.6094,8.6094,8.6094,8.6094,8.6094,8.6094,8.6094,8.6094,8.6077,8.6085,8.6094,8.6069,8.6085,8.6077,8.6085,8.6085,8.6085,8.6085,8.6047,8.6017,8.5016,8.3717,8.2601,8.1093,7.8754,7.6976,7.5745,7.47,7.4007,7.3245,7.2514,7.2399,7.1975,7.1321,7.1129,7.1091,7.0937,7.0898,7.0898,7.0821,7.0783,7.0437,7.0052,6.986,6.9622,6.9122,6.8737,6.8622,6.8584,6.8468,6.7622,6.6705,6.6096,6.5942,6.5942,6.5904,6.5904,6.5904,6.5904,6.5904,6.5904,6.5904,6.5904,6.5904,6.5904,6.5904,6.5904,6.5705,6.5513,6.4897,6.4782,6.4359,6.3666,6.2858,6.248,6.2133,6.1518,6.1133,6.0781,6.0781,6.0781,6.0781,6.0781,6.0781,6.0819,6.0941,6.121,6.1826,6.2403,6.2787,6.3205,6.3435,6.3897,6.4282,6.4352,6.4936,6.516,6.5705,6.566,6.566,6.5583,6.5506,6.5581,6.567,6.5674,6.5632,6.5523,6.5487,6.5472,6.5459,6.5391,6.5352,6.5313,6.5282,8.6094,8.6094,8.6094,8.6094,8.6094,8.6094,8.6094,8.6094,8.6094,8.6094,8.6094,8.6094,8.6094,8.6094,8.6094,8.6094,8.6094,8.6094,8.6094,8.6094,8.6055,8.5209,8.3947,8.3332,8.1908,7.9785,7.7938,7.6438,7.5168,7.4507,7.4046,7.343,7.3276,7.2822,7.2206,7.1944,7.1629,7.1168,7.1052,7.1014,7.0898,7.086,7.0821,7.0552,7.0552,7.0475,7.0283,6.9821,6.9513,6.9436,6.8776,6.8314,6.7853,6.7321,6.675,6.625,6.6128,6.6205,6.6205,6.6051,6.5936,6.5904,6.6058,6.6013,6.6013,6.5942,6.5981,6.5904,6.5904,6.5782,6.5705,6.5551,6.5205,6.4589,6.4128,6.3782,6.3128,6.2397,6.1672,6.1243,6.105,6.0819,6.0819,6.0941,6.1095,6.132,6.1627,6.1941,6.248,6.3057,6.3512,6.3935,6.4359,6.4897,6.5436,6.5436,6.5628,6.5545,6.5808,6.5763,6.5775,6.5762,6.5773,6.566,6.5618,6.5552,6.5501,6.545,6.5451,6.5436,6.5375,6.5313,6.5274,6.5242,6.5169,8.6094,8.6094,8.6094,8.6094,8.6094,8.6094,8.6094,8.6094,8.6094,8.6094,8.6094,8.6094,8.6094,8.6094,8.6094,8.6094,8.6094,8.6094,8.6094,8.6094,8.6017,8.5517,8.4247,8.3832,8.2362,8.0631,7.9131,7.7669,7.613,7.5592,7.493,7.4315,7.4123,7.3707,7.3053,7.286,7.236,7.1783,7.1552,7.136,7.0975,7.0937,7.0937,7.0937,7.0937,7.0898,7.0821,7.0591,7.0321,7.0244,6.993,6.9507,6.909,6.8667,6.8052,6.7398,6.7167,6.7167,6.7167,6.7205,6.7237,6.7244,6.7167,6.7205,6.7051,6.6859,6.6397,6.6019,6.5904,6.5904,6.5865,6.5904,6.5667,6.532,6.4936,6.4474,6.3935,6.3205,6.2589,6.1935,6.1396,6.1089,6.0902,6.1095,6.1402,6.1787,6.2243,6.2704,6.3172,6.3705,6.4282,6.4705,6.5089,6.532,6.5788,6.5827,6.5904,6.5897,6.5865,6.582,6.5728,6.5694,6.5618,6.5532,6.5465,6.5479,6.5443,6.5436,6.5398,6.536,6.5313,6.5266,6.5218,6.5161,6.5086,8.6094,8.6094,8.6094,8.6094,8.6094,8.6094,8.6094,8.6094,8.6094,8.6094,8.6094,8.6094,8.6094,8.6094,8.6094,8.6094,8.6094,8.6094,8.6094,8.6094,8.6094,8.5662,8.4863,8.3939,8.2793,8.14,8.0054,7.8938,7.7284,7.6553,7.5822,7.5207,7.4938,7.4553,7.3892,7.3699,7.3168,7.2706,7.2437,7.2052,7.1591,7.1437,7.1398,7.1398,7.1437,7.1437,7.1283,7.1206,7.1014,7.0898,7.0744,7.0552,7.0052,6.9937,6.9629,6.9007,6.8622,6.843,6.8353,6.8276,6.8122,6.8122,6.8314,6.8353,6.8199,6.759,6.7051,6.6365,6.6173,6.6058,6.5936,6.5904,6.5859,6.575,6.5282,6.482,6.4666,6.4205,6.366,6.2935,6.1973,6.1704,6.182,6.182,6.2243,6.2551,6.3051,6.3512,6.3974,6.4512,6.5051,6.5436,6.5711,6.5711,6.5865,6.5865,6.5904,6.5897,6.5846,6.5787,6.5674,6.5566,6.5487,6.5466,6.5428,6.5435,6.5436,6.5391,6.5352,6.5313,6.5266,6.521,6.5144,6.5069,6.4984,8.6094,8.6094,8.6094,8.6094,8.6094,8.6094,8.6094,8.6094,8.6094,8.6094,8.6094,8.6094,8.6094,8.6094,8.6094,8.6094,8.6094,8.6094,8.6094,8.6094,8.6055,8.5701,8.4939,8.4016,8.3255,8.2093,8.0669,7.8938,7.7784,7.7284,7.663,7.5899,7.563,7.5438,7.4668,7.4584,7.413,7.3514,7.3322,7.3199,7.3084,7.3046,7.3007,7.3046,7.2969,7.2699,7.2091,7.1937,7.1668,7.1052,7.0937,7.086,7.0783,7.0783,7.0744,7.0206,6.9391,6.8391,6.8584,6.866,6.8699,6.8737,6.8622,6.843,6.8468,6.8391,6.7898,6.7058,6.6981,6.6673,6.6205,6.5974,6.5897,6.5865,6.5711,6.559,6.5513,6.5013,6.4512,6.4282,6.3474,6.3205,6.3166,6.3121,6.316,6.3468,6.3814,6.432,6.4743,6.5205,6.5474,6.575,6.5904,6.5904,6.5904,6.5904,6.5904,6.5904,6.5826,6.5753,6.5646,6.5537,6.5465,6.542,6.542,6.5398,6.5398,6.5352,6.5313,6.5258,6.5194,6.5128,6.5015,6.4929,6.4842,8.6094,8.6094,8.6094,8.6094,8.6094,8.6094,8.6094,8.6094,8.6094,8.6094,8.6094,8.6094,8.6094,8.6094,8.6094,8.6094,8.6094,8.6094,8.6094,8.6094,8.6055,8.5893,8.5517,8.4747,8.3862,8.2862,8.1747,8.0439,7.9015,7.7669,7.6861,7.6169,7.5976,7.5861,7.5361,7.5438,7.4938,7.4315,7.3776,7.3507,7.3507,7.3507,7.3507,7.3507,7.3546,7.3315,7.2976,7.2367,7.2098,7.1559,7.1245,7.0898,7.0898,7.0898,7.086,7.0821,7.0283,6.9898,6.986,6.9783,6.9706,6.9776,6.9744,6.9706,6.9314,6.9084,6.8776,6.7936,6.7859,6.7436,6.6789,6.6596,6.6244,6.609,6.6096,6.5974,6.5936,6.5711,6.5327,6.5166,6.4974,6.4628,6.432,6.4166,6.4089,6.4205,6.4589,6.5089,6.5359,6.559,6.575,6.5827,6.5904,6.5904,6.5904,6.5904,6.5904,6.5878,6.5735,6.5674,6.5587,6.5523,6.5443,6.5405,6.5398,6.5406,6.536,6.5313,6.5274,6.5202,6.5082,6.5006,6.4929,6.4833,6.4725,8.6094,8.6094,8.6094,8.6094,8.6094,8.6094,8.6094,8.6094,8.6094,8.6094,8.6094,8.6094,8.6094,8.6094,8.6094,8.6094,8.6094,8.6094,8.6094,8.6094,8.6094,8.6094,8.5747,8.5201,8.4401,8.3563,8.2516,8.117,7.9785,7.8631,7.7553,7.6361,7.6092,7.5976,7.5976,7.5861,7.5553,7.5091,7.4553,7.4315,7.4238,7.4238,7.4199,7.4199,7.4091,7.4007,7.3738,7.3283,7.2899,7.2021,7.1636,7.1245,7.0975,7.0898,7.0898,7.0898,7.0667,7.0667,7.0667,7.0667,7.0898,7.0898,7.086,7.0475,7.0129,6.9975,6.9667,6.8821,6.8737,6.8282,6.7667,6.7398,6.7244,6.6821,6.6474,6.632,6.6128,6.5936,6.5788,6.5596,6.5513,6.5628,6.532,6.5089,6.5013,6.5051,6.5397,6.5827,6.5904,6.5904,6.5904,6.5904,6.5904,6.5904,6.5904,6.5904,6.5904,6.5872,6.5728,6.5615,6.558,6.5501,6.5405,6.5421,6.5413,6.5375,6.5337,6.529,6.5234,6.5136,6.5006,6.4958,6.4871,6.4734,6.4624,8.6094,8.6094,8.6094,8.6094,8.6094,8.6094,8.6094,8.6094,8.6094,8.6094,8.6094,8.6094,8.6094,8.6094,8.6094,8.6094,8.6094,8.6094,8.6094,8.6094,8.6094,8.6094,8.5854,8.5316,8.4555,8.3708,8.2901,8.1593,8.0162,7.9623,7.8477,7.7369,7.663,7.6207,7.5976,7.5976,7.5938,7.5707,7.5476,7.5553,7.5553,7.5592,7.5592,7.563,7.5668,7.5476,7.4661,7.4361,7.3783,7.2559,7.2245,7.1706,7.1283,7.1129,7.1129,7.0937,7.0898,7.0898,7.0898,7.0898,7.0898,7.0898,7.0898,7.086,7.0629,7.0744,7.036,6.9744,6.959,6.9167,6.8629,6.8276,6.8167,6.7744,6.7282,6.709,6.6821,6.6282,6.609,6.5942,6.5904,6.5904,6.5904,6.5551,6.5474,6.5474,6.5474,6.5904,6.5904,6.5904,6.5904,6.5904,6.5904,6.5904,6.5904,6.5904,6.5904,6.5865,6.5748,6.5688,6.5594,6.5501,6.5405,6.5413,6.5413,6.536,6.5344,6.5288,6.5177,6.5069,6.4929,6.4824,6.4707,6.4596,6.4492,8.6094,8.6094,8.6094,8.6094,8.6094,8.6094,8.6094,8.6094,8.6094,8.6094,8.6094,8.6094,8.6094,8.6094,8.6094,8.6094,8.6094,8.6094,8.6094,8.6094,8.6094,8.6094,8.5931,8.5701,8.5247,8.4362,8.3478,8.2554,8.1477,8.0469,7.9662,7.8631,7.7476,7.6553,7.6207,7.6015,7.5976,7.5976,7.5976,7.5976,7.5976,7.5976,7.5976,7.5976,7.5976,7.5861,7.5438,7.4938,7.4361,7.3783,7.3245,7.2552,7.1822,7.1713,7.1405,7.1014,7.0937,7.0898,7.0898,7.0898,7.0898,7.0898,7.0898,7.0898,7.0898,7.0898,7.0783,7.0514,7.036,6.9937,6.9398,6.9167,6.9013,6.8507,6.8199,6.7975,6.759,6.7051,6.6705,6.6705,6.6205,6.5904,6.5904,6.5865,6.5827,6.5827,6.5865,6.5904,6.5904,6.5904,6.5904,6.5904,6.5904,6.5904,6.5904,6.5904,6.5904,6.5859,6.5813,6.5722,6.566,6.5537,6.5457,6.542,6.5398,6.5344,6.5282,6.5248,6.5166,6.5027,6.485,6.4707,6.4587,6.4453,6.4366,8.5593,8.5401,8.5624,8.5901,8.6094,8.6094,8.6094,8.6094,8.6094,8.6094,8.6094,8.6094,8.6094,8.6094,8.6094,8.6094,8.6094,8.6094,8.6094,8.6094,8.6094,8.6094,8.6094,8.594,8.5555,8.4893,8.4324,8.3439,8.2093,8.1054,8.0285,7.9515,7.8669,7.763,7.6553,7.613,7.6015,7.5976,7.5976,7.5976,7.5976,7.5976,7.5976,7.5976,7.5976,7.5976,7.5822,7.5438,7.5014,7.4553,7.4046,7.3437,7.2822,7.2283,7.1905,7.1437,7.1052,7.0937,7.0898,7.0898,7.0898,7.0898,7.0898,7.0898,7.0898,7.0898,7.0821,7.086,7.0821,7.0667,7.0014,7.0014,6.9937,6.9545,6.9045,6.8744,6.8475,6.8045,6.7744,6.7475,6.6898,6.6327,6.6173,6.6173,6.5904,6.5904,6.5904,6.5904,6.5904,6.5904,6.5904,6.5904,6.5904,6.5904,6.5904,6.5904,6.5897,6.5878,6.5833,6.578,6.5681,6.5566,6.5501,6.5457,6.5429,6.5337,6.5258,6.5223,6.5095,6.5001,6.4797,6.4605,6.4482,6.4356,6.4247,8.4439,8.3793,8.4593,8.5363,8.5978,8.6094,8.6094,8.6094,8.6094,8.6094,8.6094,8.6094,8.6094,8.6094,8.6094,8.6094,8.6094,8.6094,8.6094,8.6094,8.6094,8.6094,8.6094,8.5978,8.5786,8.5085,8.4585,8.3824,8.2439,8.1977,8.117,8.0239,7.9477,7.8592,7.7284,7.6438,7.6053,7.5976,7.5976,7.5976,7.5976,7.5976,7.5976,7.5976,7.5976,7.5976,7.5899,7.5861,7.5438,7.4976,7.4861,7.4284,7.3546,7.286,7.2406,7.2059,7.136,7.1014,7.0898,7.0898,7.0898,7.0898,7.0898,7.0898,7.0898,7.0898,7.0898,7.0898,7.0898,7.0898,7.0821,7.0783,7.0629,7.0398,6.986,6.9629,6.936,6.893,6.8552,6.8237,6.7628,6.7058,6.6789,6.6519,6.6096,6.5942,6.5904,6.5904,6.5904,6.5904,6.5904,6.5904,6.5904,6.5904,6.5904,6.5904,6.5897,6.5885,6.5859,6.5813,6.5708,6.5632,6.5537,6.5494,6.5451,6.5352,6.5258,6.5199,6.4993,6.4808,6.4679,6.4521,6.4385,6.4257,6.4145,8.387,8.364,8.3909,8.4516,8.5316,8.5893,8.6094,8.6094,8.6094,8.6094,8.6094,8.6094,8.6094,8.6094,8.6094,8.6094,8.6094,8.6094,8.6094,8.6094,8.6094,8.6094,8.6094,8.6055,8.594,8.5632,8.5209,8.4439,8.3216,8.2716,8.1785,8.0823,8.0008,7.89,7.7676,7.6861,7.6669,7.6092,7.5976,7.5976,7.6015,7.6053,7.6053,7.6053,7.6053,7.5976,7.5976,7.5976,7.5784,7.5515,7.5438,7.5091,7.443,7.3783,7.3283,7.2598,7.1783,7.1475,7.1129,7.0898,7.0898,7.0975,7.0975,7.1014,7.0937,7.0898,7.0898,7.0937,7.1052,7.1014,7.086,7.086,7.0783,7.0783,7.0514,7.0514,7.0244,6.9667,6.9244,6.9007,6.8552,6.7705,6.7212,6.7051,6.6667,6.6211,6.6134,6.5942,6.5904,6.5904,6.5904,6.5904,6.5904,6.5904,6.5904,6.5904,6.5904,6.5891,6.5878,6.5852,6.5742,6.5667,6.5566,6.5516,6.5466,6.5368,6.5218,6.5044,6.4781,6.4587,6.4661,6.4479,6.4216,6.4125,6.4052,8.2986,8.2755,8.3024,8.3439,8.4132,8.5209,8.5824,8.6055,8.6094,8.6094,8.6094,8.6094,8.6094,8.6094,8.6094,8.6094,8.6094,8.6094,8.6094,8.6094,8.6094,8.6094,8.6094,8.6094,8.6055,8.594,8.5593,8.4863,8.4055,8.3178,8.2131,8.117,8.0508,7.9631,7.8554,7.7938,7.7515,7.713,7.7092,7.7053,7.6938,7.6746,7.6476,7.6399,7.6245,7.5976,7.5976,7.5976,7.5976,7.5976,7.5899,7.5745,7.5245,7.4707,7.4207,7.336,7.2706,7.2399,7.2045,7.1937,7.2014,7.1968,7.1591,7.1552,7.1706,7.1975,7.1975,7.186,7.1514,7.1398,7.136,7.1321,7.0975,7.0975,7.0898,7.086,7.0744,7.0129,7.0014,6.9776,6.9353,6.8513,6.7744,6.7552,6.7359,6.6821,6.6359,6.6211,6.6019,6.5942,6.5904,6.5904,6.5904,6.5904,6.5904,6.5904,6.5904,6.5904,6.5891,6.5872,6.5826,6.5715,6.5646,6.553,6.5428,6.5344,6.5128,6.4915,6.4803,6.4829,6.4898,6.4599,6.4117,6.4129,6.4188,8.1823,8.1246,8.1939,8.2324,8.2631,8.4286,8.5393,8.6055,8.6094,8.6094,8.6094,8.6094,8.6094,8.6094,8.6094,8.6094,8.6094,8.6094,8.6094,8.6094,8.6094,8.6094,8.6094,8.6094,8.6094,8.6094,8.5901,8.5401,8.4824,8.3555,8.2362,8.1516,8.1054,8.0362,7.9631,7.9131,7.8561,7.8176,7.7984,7.7984,7.7869,7.7592,7.7246,7.7015,7.6592,7.6207,7.6092,7.5976,7.5976,7.5976,7.5976,7.5976,7.5707,7.52,7.4899,7.443,7.3815,7.3392,7.3199,7.3084,7.3276,7.3122,7.2745,7.2892,7.2969,7.3007,7.2892,7.2776,7.2552,7.236,7.2252,7.1668,7.1129,7.1052,7.0975,7.0937,7.0898,7.0744,7.0744,7.0514,7.009,6.9398,6.866,6.8314,6.8167,6.7552,6.7128,6.6974,6.6705,6.5974,6.5936,6.5904,6.5904,6.5904,6.5904,6.5942,6.5904,6.5904,6.5904,6.5885,6.5801,6.578,6.5667,6.5537,6.5435,6.5344,6.5331,6.5226,6.5057,6.5096,6.5361,6.5192,6.4876,6.4597,6.4505,8.1285,8.1131,8.1362,8.1785,8.2516,8.417,8.5354,8.6047,8.6094,8.6094,8.6094,8.6094,8.6094,8.6094,8.6094,8.6094,8.6094,8.6094,8.6094,8.6094,8.6094,8.6094,8.6094,8.6094,8.6094,8.6094,8.5978,8.5709,8.4747,8.3593,8.2708,8.1977,8.1362,8.0939,8.0669,8.0439,7.9592,7.8946,7.8754,7.8754,7.8677,7.833,7.7907,7.74,7.7061,7.6592,7.613,7.6015,7.5976,7.5976,7.5976,7.5976,7.5938,7.5707,7.5476,7.4661,7.4007,7.3469,7.3507,7.3507,7.3776,7.4276,7.4053,7.3707,7.3661,7.3661,7.3699,7.3661,7.343,7.3206,7.2937,7.2399,7.186,7.1552,7.136,7.1091,7.1014,7.0898,7.0898,7.0821,7.0398,7.0167,6.9468,6.9314,6.9052,6.8391,6.793,6.7782,6.7436,6.6744,6.6397,6.6359,6.632,6.6436,6.6128,6.609,6.5981,6.5904,6.609,6.6237,6.616,6.6062,6.5751,6.5707,6.5857,6.5838,6.578,6.5644,6.5522,6.5828,6.6045,6.5829,6.5602,6.5311,6.4971,8.1093,8.1093,8.1093,8.1554,8.2401,8.3439,8.4516,8.5508,8.594,8.6094,8.6094,8.6094,8.6094,8.6094,8.6094,8.6094,8.6094,8.6094,8.6094,8.6094,8.6094,8.6094,8.6094,8.6094,8.6094,8.6094,8.6055,8.5901,8.4978,8.3747,8.2755,8.217,8.1516,8.117,8.1016,8.0862,8.0516,7.9939,7.96,7.9523,7.9369,7.9138,7.8515,7.783,7.7561,7.6823,7.613,7.6015,7.5976,7.5976,7.5976,7.5976,7.5976,7.5938,7.5899,7.52,7.4976,7.4668,7.4668,7.4584,7.4815,7.5046,7.5168,7.4976,7.4784,7.4738,7.47,7.4661,7.4276,7.393,7.363,7.3245,7.2713,7.2213,7.1752,7.1328,7.1129,7.0937,7.0898,7.0898,7.0744,7.0591,7.0398,7.0244,6.9937,6.9283,6.8776,6.8552,6.8205,6.7667,6.7398,6.7353,6.7244,6.7167,6.6821,6.6667,6.6821,6.6974,6.7167,6.7186,6.6814,6.6726,6.6806,6.6644,6.6418,6.6424,6.6399,6.6244,6.6189,6.6484,6.676,6.6705,6.646,6.6042,6.5651,8.1093,8.1093,8.1093,8.1477,8.217,8.2362,8.3247,8.4709,8.5401,8.5978,8.6055,8.6094,8.6094,8.6094,8.6094,8.6094,8.6094,8.6094,8.6094,8.6094,8.6094,8.6094,8.6094,8.6094,8.6094,8.6094,8.6055,8.6017,8.5593,8.4362,8.3024,8.2362,8.1477,8.1093,8.1093,8.1093,8.0862,8.0708,8.0631,8.0631,8.0592,8.0208,7.9438,7.8484,7.7753,7.7022,7.6284,7.5976,7.5976,7.5976,7.5976,7.5976,7.5976,7.5976,7.5938,7.5899,7.5668,7.563,7.5553,7.5553,7.5668,7.5822,7.5976,7.5784,7.5553,7.5476,7.5438,7.5361,7.5014,7.4861,7.4591,7.4053,7.3476,7.2899,7.2367,7.1867,7.1475,7.1206,7.0898,7.0898,7.086,7.0744,7.0744,7.0552,7.0437,6.9937,6.9706,6.9436,6.9129,6.8667,6.8314,6.8237,6.793,6.7814,6.7814,6.7744,6.8007,6.816,6.8192,6.805,6.7626,6.7745,6.799,6.749,6.6916,6.7087,6.7078,6.6914,6.6952,6.7262,6.7525,6.7653,6.7345,6.6803,6.6334,8.1093,8.1093,8.1093,8.1246,8.1439,8.2054,8.2516,8.2978,8.3824,8.4901,8.5901,8.6055,8.6094,8.6094,8.6094,8.6094,8.6094,8.6094,8.6094,8.6094,8.6094,8.6094,8.6094,8.6094,8.6094,8.6094,8.6094,8.6055,8.5747,8.4593,8.3524,8.3101,8.2016,8.1208,8.1093,8.1093,8.1093,8.1093,8.1093,8.1093,8.1016,8.0746,8.0169,7.9023,7.8061,7.7292,7.6553,7.5976,7.5976,7.5976,7.5976,7.5976,7.5976,7.5976,7.5976,7.5976,7.5976,7.5976,7.5976,7.5976,7.5976,7.5976,7.5976,7.5976,7.5976,7.5976,7.5976,7.5899,7.5822,7.5707,7.5476,7.4822,7.4199,7.3591,7.3014,7.2476,7.1905,7.1398,7.0975,7.0898,7.0898,7.0898,7.0898,7.086,7.0783,7.0706,7.0629,7.0475,7.036,6.9975,6.9206,6.8968,6.8507,6.8391,6.8584,6.8724,6.8948,6.8774,6.8684,6.8541,6.8423,6.8433,6.846,6.7813,6.7396,6.7628,6.7768,6.7653,6.7718,6.7931,6.7888,6.7889,6.7837,6.7428,6.7021,8.1093,8.1093,8.1093,8.1093,8.117,8.1593,8.1977,8.2362,8.2824,8.3755,8.4939,8.5401,8.5739,8.6017,8.6094,8.6094,8.6094,8.6094,8.6094,8.6094,8.6094,8.6094,8.6094,8.6094,8.6094,8.6094,8.6094,8.6017,8.5863,8.4978,8.4055,8.3486,8.2247,8.1439,8.1208,8.1093,8.1093,8.1093,8.1093,8.1093,8.1093,8.09,8.0208,7.9023,7.8253,7.7484,7.6592,7.5976,7.5976,7.5976,7.5976,7.5976,7.5976,7.5976,7.5976,7.5976,7.5976,7.5976,7.5976,7.5976,7.5976,7.5976,7.5976,7.5976,7.5976,7.5976,7.5976,7.5938,7.5938,7.5822,7.5822,7.5361,7.4853,7.4322,7.386,7.3399,7.236,7.1398,7.1091,7.0898,7.0898,7.0898,7.0898,7.0898,7.086,7.086,7.086,7.086,7.0898,7.0898,7.0244,6.9738,6.9308,6.9391,6.9776,6.9826,6.976,6.9547,6.9205,6.9342,6.9398,6.9109,6.8823,6.8448,6.8281,6.8367,6.843,6.8181,6.8082,6.8184,6.8111,6.8007,6.7952,6.786,6.7479,8.1061,8.1077,8.1085,8.1093,8.1093,8.1093,8.1516,8.2054,8.217,8.2639,8.3516,8.4209,8.5055,8.5709,8.594,8.6017,8.6055,8.6094,8.6094,8.6094,8.6094,8.6094,8.6094,8.6094,8.6094,8.6094,8.6094,8.6094,8.6055,8.5132,8.4324,8.3593,8.2747,8.19,8.1323,8.1093,8.1093,8.1093,8.1093,8.1093,8.1093,8.1016,7.9977,7.9138,7.8369,7.7599,7.6553,7.5976,7.5976,7.5976,7.5976,7.5976,7.5976,7.5976,7.5976,7.5976,7.5976,7.5976,7.5976,7.5976,7.5976,7.5976,7.5976,7.5976,7.5976,7.5976,7.5976,7.5976,7.5976,7.5976,7.5976,7.5861,7.5399,7.493,7.4546,7.393,7.2668,7.1475,7.1168,7.0937,7.0898,7.0898,7.0898,7.0898,7.0898,7.0898,7.0898,7.0898,7.0898,7.0898,7.0591,7.0423,7.0256,7.0455,7.0724,7.0529,7.0287,7.0275,7.0025,7.0279,7.028,6.9734,6.9415,6.9446,6.9333,6.8961,6.8739,6.8479,6.8442,6.8309,6.8108,6.7978,6.7873,6.7794,6.7741,8.0885,8.0959,8.1061,8.1093,8.1093,8.1093,8.117,8.1323,8.1362,8.1785,8.2439,8.2747,8.3593,8.5124,8.5124,8.5354,8.5901,8.5978,8.6055,8.6094,8.6094,8.6094,8.6094,8.6094,8.6094,8.6094,8.6094,8.6094,8.6055,8.5363,8.4478,8.3601,8.2785,8.1977,8.1246,8.1093,8.1093,8.1093,8.1093,8.1093,8.1054,8.0785,8.0015,7.9215,7.8484,7.74,7.6476,7.6053,7.5976,7.5976,7.5976,7.5976,7.5976,7.5976,7.5976,7.5976,7.5976,7.5976,7.5976,7.5976,7.5976,7.5976,7.5976,7.5976,7.5976,7.5976,7.5976,7.5976,7.5976,7.5976,7.5976,7.5976,7.5668,7.5245,7.4822,7.3822,7.2668,7.1745,7.1129,7.1014,7.0975,7.0937,7.0898,7.0898,7.0898,7.0898,7.0898,7.0898,7.0898,7.0898,7.093,7.0909,7.0882,7.0822,7.0769,7.0695,7.0568,7.0623,7.0547,7.0298,7.0118,7.0012,6.9844,6.9559,6.9353,6.8992,6.8835,6.8565,6.8371,6.8159,6.8043,6.7899,6.7807,6.7741,6.7714]}]]